[[{"header":{"parameterUnit":"m.s-1","parameterCategory":1,"la1":30.6,"la2":28.766,"lo1":-90.7593,"lo2":-88.6598,"dy":0.0162,"dx":0.0183,"nx":116,"ny":114,"refTime":"2023-06-04T12:00:00:Z","depth":0,"parameterNumber":2,"parameterNumberName":"U-component_of_WINDS"},"data":[0.0,0.0,0.0,0.0,0.0,0.0,0.0,0.0,0.0,0.0,0.0,0.0,0.0,0.0,0.0,0.0,0.0,0.0,0.0,0.0,0.0,0.0,0.0,0.0,0.0,0.0,0.0,0.0,0.0,0.0,0.0,0.0,0.0,0.0,0.0,0.0,0.0,0.0,0.0,0.0,0.0,0.0,0.0,0.0,0.0,0.0,0.0,0.0,0.0,0.0,0.0,0.0,0.0,0.0,0.0,0.0,0.0,0.0,0.0,0.0,0.0,0.0,0.0,0.0,0.0,0.0,0.0,0.0,0.0,0.0,0.0,0.0,0.0,0.0,0.0,0.0,0.0,0.0,0.0,0.0,0.0,0.0,0.0,0.0,0.0,0.0,0.0,0.0,0.0,0.0,0.0,0.0,0.0,0.0,0.0,0.0,0.0,0.0,0.0,0.0,0.0,0.0,0.0,0.0,0.0,0.0,0.0,0.0,0.0,0.0,0.0,0.0,0.0,0.0,0.0,0.0,0.0,0.0,0.0,0.0,0.0,0.0,0.0,0.0,0.0,0.0,0.0,0.0,0.0,0.0,0.0,0.0,0.0,0.0,0.0,0.0,0.0,0.0,0.0,0.0,0.0,0.0,0.0,0.0,0.0,0.0,0.0,0.0,0.0,0.0,0.0,0.0,0.0,0.0,0.0,0.0,0.0,0.0,0.0,0.0,0.0,0.0,0.0,0.0,0.0,0.0,0.0,0.0,0.0,0.0,0.0,0.0,0.0,0.0,0.0,0.0,0.0,0.0,0.0,0.0,0.0,0.0,0.0,0.0,0.0,0.0,0.0,0.0,0.0,0.0,0.0,0.0,0.0,0.0,0.0,0.0,0.0,0.0,0.0,0.0,0.0,0.0,0.0,0.0,0.0,0.0,0.0,0.0,0.0,0.0,0.0,0.0,0.0,0.0,0.0,0.0,0.0,0.0,0.0,0.0,0.0,0.0,0.0,0.0,0.0,0.0,0.0,0.0,0.0,0.0,0.0,0.0,0.0,0.0,0.0,0.0,0.0,0.0,0.0,0.0,0.0,0.0,0.0,0.0,0.0,0.0,0.0,0.0,0.0,0.0,0.0,0.0,0.0,0.0,0.0,0.0,0.0,0.0,0.0,0.0,0.0,0.0,0.0,0.0,0.0,0.0,0.0,0.0,0.0,0.0,0.0,0.0,0.0,0.0,0.0,0.0,0.0,0.0,0.0,0.0,0.0,0.0,0.0,0.0,0.0,0.0,0.0,0.0,0.0,0.0,0.0,0.0,0.0,0.0,0.0,0.0,0.0,0.0,0.0,0.0,0.0,0.0,0.0,0.0,0.0,0.0,0.0,0.0,0.0,0.0,0.0,0.0,0.0,0.0,0.0,0.0,0.0,0.0,0.0,0.0,0.0,0.0,0.0,0.0,0.0,0.0,0.0,0.0,0.0,0.0,0.0,0.0,0.0,0.0,0.0,0.0,0.0,0.0,0.0,0.0,0.0,0.0,0.0,0.0,0.0,0.0,0.0,0.0,0.0,0.0,0.0,0.0,0.0,0.0,0.0,0.0,0.0,0.0,0.0,0.0,0.0,0.0,0.0,0.0,0.0,0.0,0.0,0.0,0.0,0.0,0.0,0.0,0.0,0.0,0.0,0.0,0.0,0.0,0.0,0.0,0.0,0.0,0.0,0.0,0.0,0.0,0.0,0.0,0.0,0.0,0.0,0.0,0.0,0.0,0.0,0.0,0.0,0.0,0.0,0.0,0.0,0.0,0.0,0.0,0.0,0.0,0.0,0.0,0.0,0.0,0.0,0.0,0.0,0.0,0.0,0.0,0.0,0.0,0.0,0.0,0.0,0.0,0.0,0.0,0.0,0.0,0.0,0.0,0.0,0.0,0.0,0.0,0.0,0.0,0.0,0.0,0.0,0.0,0.0,0.0,0.0,0.0,0.0,0.0,0.0,0.0,0.0,0.0,0.0,0.0,0.0,0.0,0.0,0.0,0.0,0.0,0.0,0.0,0.0,0.0,0.0,0.0,0.0,0.0,0.0,0.0,0.0,0.0,0.0,0.0,0.0,0.0,0.0,0.0,0.0,0.0,0.0,0.0,0.0,0.0,0.0,0.0,0.0,0.0,0.0,0.0,0.0,0.0,0.0,0.0,0.0,0.0,0.0,0.0,0.0,0.0,0.0,0.0,0.0,0.0,0.0,0.0,0.0,0.0,0.0,0.0,0.0,0.0,0.0,0.0,0.0,0.0,0.0,0.0,0.0,0.0,0.0,0.0,0.0,0.0,0.0,0.0,0.0,0.0,0.0,0.0,0.0,0.0,0.0,0.0,0.0,0.0,0.0,0.0,0.0,0.0,0.0,0.0,0.0,0.0,0.0,0.0,0.0,0.0,0.0,0.0,0.0,0.0,0.0,0.0,0.0,0.0,0.0,0.0,0.0,0.0,0.0,0.0,0.0,0.0,0.0,0.0,0.0,0.0,0.0,0.0,0.0,0.0,0.0,0.0,0.0,0.0,0.0,0.0,0.0,0.0,0.0,0.0,0.0,0.0,0.0,0.0,0.0,0.0,0.0,0.0,0.0,0.0,0.0,0.0,0.0,0.0,0.0,0.0,0.0,0.0,0.0,0.0,0.0,0.0,0.0,0.0,0.0,0.0,0.0,0.0,0.0,0.0,0.0,0.0,0.0,0.0,0.0,0.0,0.0,0.0,0.0,0.0,0.0,0.0,0.0,0.0,0.0,0.0,0.0,0.0,0.0,0.0,0.0,0.0,0.0,0.0,0.0,0.0,0.0,0.0,0.0,0.0,0.0,0.0,0.0,0.0,0.0,0.0,0.0,0.0,0.0,0.0,0.0,0.0,0.0,0.0,0.0,0.0,0.0,0.0,0.0,0.0,0.0,0.0,0.0,0.0,0.0,0.0,0.0,0.0,0.0,0.0,0.0,0.0,0.0,0.0,0.0,0.0,0.0,0.0,0.0,0.0,0.0,0.0,0.0,0.0,0.0,0.0,0.0,0.0,0.0,0.0,0.0,0.0,0.0,0.0,0.0,0.0,0.0,0.0,0.0,0.0,0.0,0.0,0.0,0.0,0.0,0.0,0.0,0.0,0.0,0.0,0.0,0.0,0.0,0.0,0.0,0.0,0.0,0.0,0.0,0.0,0.0,0.0,0.0,0.0,0.0,0.0,0.0,0.0,0.0,0.0,0.0,0.0,0.0,0.0,0.0,0.0,0.0,0.0,0.0,0.0,0.0,0.0,0.0,0.0,0.0,0.0,0.0,0.0,0.0,0.0,0.0,0.0,0.0,0.0,0.0,0.0,0.0,0.0,0.0,0.0,0.0,0.0,0.0,0.0,0.0,0.0,0.0,0.0,0.0,0.0,0.0,0.0,0.0,0.0,0.0,0.0,0.0,0.0,0.0,0.0,0.0,0.0,0.0,0.0,0.0,0.0,0.0,0.0,0.0,0.0,0.0,0.0,0.0,0.0,0.0,0.0,0.0,0.0,0.0,0.0,0.0,0.0,0.0,0.0,0.0,0.0,0.0,0.0,0.0,0.0,0.0,0.0,0.0,0.0,0.0,0.0,0.0,0.0,0.0,0.0,0.0,0.0,0.0,0.0,0.0,0.0,0.0,0.0,0.0,0.0,0.0,0.0,0.0,0.0,0.0,0.0,0.0,0.0,0.0,0.0,0.0,0.0,0.0,0.0,0.0,0.0,0.0,0.0,0.0,0.0,0.0,0.0,0.0,0.0,0.0,0.0,0.0,0.0,0.0,0.0,0.0,0.0,0.0,0.0,0.0,0.0,0.0,0.0,0.0,0.0,0.0,0.0,0.0,0.0,0.0,0.0,0.0,0.0,0.0,0.0,0.0,0.0,0.0,0.0,0.0,0.0,0.0,0.0,0.0,0.0,0.0,0.0,0.0,0.0,0.0,0.0,0.0,0.0,0.0,0.0,0.0,0.0,0.0,0.0,0.0,0.0,0.0,0.0,0.0,0.0,0.0,0.0,0.0,0.0,0.0,0.0,0.0,0.0,0.0,0.0,0.0,0.0,0.0,0.0,0.0,0.0,0.0,0.0,0.0,0.0,0.0,0.0,0.0,0.0,0.0,0.0,0.0,0.0,0.0,0.0,0.0,0.0,0.0,0.0,0.0,0.0,0.0,0.0,0.0,0.0,0.0,0.0,0.0,0.0,0.0,0.0,0.0,0.0,0.0,0.0,0.0,0.0,0.0,0.0,0.0,0.0,0.0,0.0,0.0,0.0,0.0,0.0,0.0,0.0,0.0,0.0,0.0,0.0,0.0,0.0,0.0,0.0,0.0,0.0,0.0,0.0,0.0,0.0,0.0,0.0,0.0,0.0,0.0,0.0,0.0,0.0,0.0,0.0,0.0,0.0,0.0,0.0,0.0,0.0,0.0,0.0,0.0,0.0,0.0,0.0,0.0,0.0,0.0,0.0,0.0,0.0,0.0,0.0,0.0,0.0,0.0,0.0,0.0,0.0,0.0,0.0,0.0,0.0,0.0,0.0,0.0,0.0,0.0,0.0,0.0,0.0,0.0,0.0,0.0,0.0,0.0,0.0,0.0,0.0,0.0,0.0,0.0,0.0,0.0,0.0,0.0,0.0,0.0,0.0,0.0,0.0,0.0,0.0,0.0,0.0,0.0,0.0,0.0,0.0,0.0,0.0,0.0,0.0,0.0,0.0,0.0,0.0,0.0,0.0,0.0,0.0,0.0,0.0,0.0,0.0,0.0,0.0,0.0,0.0,0.0,0.0,0.0,0.0,0.0,0.0,0.0,0.0,0.0,0.0,0.0,0.0,0.0,0.0,0.0,0.0,0.0,0.0,0.0,0.0,0.0,0.0,0.0,0.0,0.0,0.0,0.0,0.0,0.0,0.0,0.0,0.0,0.0,0.0,0.0,0.0,0.0,0.0,0.0,0.0,0.0,0.0,0.0,0.0,0.0,0.0,0.0,0.0,0.0,0.0,0.0,0.0,0.0,0.0,0.0,0.0,0.0,0.0,0.0,0.0,0.0,0.0,0.0,0.0,0.0,0.0,0.0,0.0,0.0,0.0,0.0,0.0,0.0,0.0,0.0,0.0,0.0,0.0,0.0,0.0,0.0,0.0,0.0,0.0,0.0,0.0,0.0,0.0,0.0,0.0,0.0,0.0,0.0,0.0,0.0,0.0,0.0,0.0,0.0,0.0,0.0,0.0,0.0,0.0,0.0,0.0,0.0,0.0,0.0,0.0,0.0,0.0,0.0,0.0,0.0,0.0,0.0,0.0,0.0,0.0,0.0,0.0,0.0,0.0,0.0,0.0,0.0,0.0,0.0,0.0,0.0,0.0,0.0,0.0,0.0,0.0,0.0,0.0,0.0,0.0,0.0,0.0,0.0,0.0,0.0,0.0,0.0,0.0,0.0,0.0,0.0,0.0,0.0,0.0,0.0,0.0,0.0,0.0,0.0,0.0,0.0,0.0,0.0,0.0,0.0,0.0,0.0,0.0,0.0,0.0,0.0,0.0,0.0,0.0,0.0,0.0,0.0,0.0,0.0,0.0,0.0,0.0,0.0,0.0,0.0,0.0,0.0,0.0,0.0,0.0,0.0,0.0,0.0,0.0,0.0,0.0,0.0,0.0,0.0,0.0,0.0,0.0,0.0,0.0,0.0,0.0,0.0,0.0,0.0,0.0,0.0,0.0,0.0,0.0,0.0,0.0,0.0,0.0,0.0,0.0,0.0,0.0,0.0,0.0,0.0,0.0,0.0,0.0,0.0,0.0,0.0,0.0,0.0,0.0,0.0,0.0,0.0,0.0,0.0,0.0,0.0,0.0,0.0,0.0,0.0,0.0,0.0,0.0,0.0,0.0,0.0,0.0,0.0,0.0,0.0,0.0,0.0,0.0,0.0,0.0,0.0,0.0,0.0,0.0,0.0,0.0,0.0,0.0,0.0,0.0,0.0,0.0,0.0,0.0,0.0,0.0,0.0,0.0,0.0,0.0,0.0,0.0,0.0,0.0,0.0,0.0,0.0,0.0,0.0,0.0,0.0,0.0,0.0,0.0,0.0,0.0,0.0,0.0,-0.0392,-0.047,0.0,0.0,0.0,0.0,0.0,0.0,0.0,0.0,0.0,0.0,0.0,0.0,0.0,0.0,0.0,0.0,0.0,0.0,0.0,0.0,0.0,0.0,0.0,0.0,0.0,0.0,0.0,0.0,0.0,0.0,0.0,0.0,0.0,0.0,0.0,0.0,0.0,0.0,-0.1568,-0.1289,-0.101,-0.1066,-0.1122,-0.1122,0.0,0.0,0.0,0.0,0.0,0.0,0.0,0.0,0.0,0.0,0.0,0.0,0.0,0.0,0.0,0.0,0.0,0.0,0.0,0.0,0.0,0.0,0.0,0.0,0.0,0.0,0.0,0.0,0.0,0.0,0.0,0.0,0.0,0.0,0.0,0.0,0.0,0.0,0.0,0.0,0.0,0.0,0.0,0.0,0.0,0.0,0.0,0.0,0.0,0.0,0.0,0.0,0.0,0.0,0.0,0.0,0.0,0.0,0.0,0.0,0.0,0.0,0.0,0.0,0.0,0.0,0.0,0.0,0.0,0.0,-0.0793,-0.0863,0.0,0.0,0.0,0.0,0.0,0.0,0.0,0.0,0.0,0.0,0.0,0.0,0.0,0.0,0.0,0.0,0.0,0.0,0.0,0.0,0.0,0.0,0.0,-0.6285,-0.5413,-0.4695,-0.4574,-0.4519,0.0,0.0,0.0,0.0,0.0,0.0,0.0,-0.3683,-0.3181,-0.2294,-0.2069,-0.1736,-0.1234,-0.1242,-0.1131,-0.0905,-0.0962,0.0,0.0,0.0,0.0,0.0,0.0,0.0,0.0,0.0,0.0,0.0,0.0,0.0,0.0,0.0,0.0,0.0,0.0,0.0,0.0,0.0,0.0,0.0,0.0,0.0,0.0,0.0,0.0,0.0,0.0,0.0,0.0,0.0,0.0,0.0,0.0,0.0,0.0,0.0,0.0,0.0,0.0,0.0,0.0,0.0,0.0,0.0,0.0,0.0,0.0,0.0,0.0,0.0,0.0,0.0,0.0,0.0,0.0,0.0,0.0,0.0,0.0,0.0,-0.1348,-0.1278,-0.1278,-0.1278,-0.1278,-0.1276,-0.131,-0.1282,-0.1275,-0.13,0.0,0.0,0.0,0.0,0.0,0.0,0.0,0.0,0.0,0.0,0.0,0.0,0.0,0.0,0.0,0.0,0.0,0.0,0.0,0.0,0.0,-0.6581,-0.564,-0.5242,-0.4849,-0.4632,-0.4519,0.0,0.0,0.0,0.0,0.0,-0.4577,-0.4018,-0.3685,-0.3574,-0.2903,-0.2348,-0.1905,-0.1787,-0.1403,-0.0937,-0.123,-0.1347,-0.135,0.0,0.0,0.0,0.0,0.0,0.0,0.0,0.0,0.0,0.0,0.0,0.0,0.0,0.0,0.0,0.0,0.0,0.0,0.0,0.0,0.0,0.0,0.0,0.0,0.0,0.0,0.0,0.0,0.0,0.0,0.0,0.0,0.0,0.0,0.0,0.0,0.0,0.0,0.0,0.0,0.0,-0.0947,-0.1021,0.0,0.0,0.0,0.0,0.0,0.0,0.0,0.0,0.0,0.0,0.0,0.0,0.0,-0.1336,-0.1336,-0.1364,-0.1378,-0.1379,-0.1409,-0.1424,-0.1424,-0.1424,-0.1424,-0.1423,-0.1415,0.0,-0.1337,-0.134,0.0,0.0,0.0,0.0,0.0,0.0,0.0,0.0,0.0,0.0,0.0,0.0,0.0,0.0,0.0,0.0,0.0,0.0,0.0,0.0,0.0,-0.6244,-0.5361,-0.4904,-0.4684,-0.4574,-0.4519,-0.4519,0.0,0.0,0.0,-0.4684,-0.4794,-0.4463,-0.4128,-0.3683,-0.3187,-0.2586,-0.1901,-0.1963,-0.1632,-0.0969,-0.111,-0.117,-0.1153,-0.1189,0.0,0.0,0.0,0.0,0.0,0.0,0.0,0.0,0.0,0.0,0.0,0.0,0.0,0.0,0.0,0.0,0.0,0.0,0.0,0.0,0.0,0.0,0.0,0.0,0.0,0.0,0.0,0.0,0.0,0.0,0.0,0.0,0.0,0.0,0.0,0.0,0.0,0.0,0.0,-0.0912,-0.0684,-0.1217,-0.1229,-0.1237,0.0,0.0,0.0,0.0,0.0,0.0,0.0,0.0,0.0,-0.1351,-0.1365,-0.138,-0.1397,-0.1426,-0.1441,-0.1441,-0.1472,-0.1486,-0.1486,-0.1486,-0.1486,-0.1486,-0.1486,-0.1472,-0.1446,-0.1429,-0.1423,-0.1424,0.0,0.0,0.0,0.0,-0.1448,-0.1448,0.0,0.0,0.0,0.0,0.0,0.0,0.0,0.0,0.0,0.0,0.0,0.0,-0.7299,-0.6054,-0.5117,-0.4736,-0.457,-0.4519,-0.4519,-0.4519,-0.4574,-0.4632,-0.4743,-0.4794,-0.4897,-0.4834,-0.4521,-0.3958,-0.3682,-0.3221,-0.2527,-0.2607,-0.234,-0.1725,-0.1448,-0.1238,-0.1002,-0.1031,-0.1044,-0.1046,0.0,0.0,0.0,0.0,0.0,0.0,0.0,0.0,0.0,0.0,0.0,0.0,0.0,0.0,0.0,0.0,0.0,0.0,0.0,0.0,0.0,0.0,0.0,0.0,0.0,0.0,0.0,0.0,0.0,0.0,0.0,0.0,0.0,0.0,0.0,0.0,0.0,-0.0706,-0.0627,-0.1257,-0.1343,-0.1269,0.0,0.0,0.0,0.0,0.0,0.0,-0.1444,-0.1373,-0.1392,-0.1412,-0.1421,-0.1436,-0.1458,-0.1489,-0.1504,-0.1504,-0.1535,-0.1553,-0.1561,-0.1561,-0.1561,-0.1561,-0.1561,-0.1556,-0.1546,-0.1508,-0.1492,-0.1495,-0.1517,-0.1526,-0.1526,-0.1526,-0.1526,-0.1526,0.0,0.0,0.0,0.0,0.0,0.0,0.0,0.0,0.0,0.0,0.0,-0.7898,-0.7838,-0.6341,-0.5277,-0.5281,-0.4791,-0.4519,-0.4519,-0.4632,-0.4632,-0.4519,-0.4736,-0.4897,-0.4897,-0.4997,-0.5024,-0.4857,-0.4833,-0.4667,-0.4478,-0.4279,-0.4059,-0.368,-0.2787,-0.1805,-0.1033,-0.1061,-0.1074,-0.1074,-0.1075,0.0,0.0,0.0,0.0,0.0,0.0,0.0,0.0,0.0,0.0,0.0,0.0,0.0,0.0,0.0,0.0,0.0,0.0,0.0,0.0,0.0,0.0,0.0,0.0,0.0,0.0,0.0,0.0,0.0,0.0,0.0,0.0,0.0,0.0,0.0,0.0,0.0,0.0,-0.1572,-0.1443,0.0,0.0,0.0,0.0,-0.1678,-0.1542,-0.1474,-0.1735,-0.1623,-0.1475,-0.1476,-0.1504,-0.152,-0.1521,-0.1551,-0.1567,-0.1567,-0.1598,-0.1627,-0.1655,-0.1655,-0.1655,-0.1655,-0.1655,-0.1639,-0.1608,-0.1549,-0.1523,-0.1524,-0.1525,-0.1526,-0.1526,-0.1526,-0.1526,-0.1526,0.0,0.0,0.0,0.0,0.0,0.0,0.0,0.0,-0.9484,-0.9484,-0.8577,-0.7779,-0.7359,-0.6111,-0.5171,-0.4791,-0.4684,-0.4632,-0.4632,-0.4739,-0.4849,-0.4904,-0.4901,-0.4894,-0.4894,-0.4955,-0.4963,-0.5037,-0.5128,-0.5016,-0.4549,-0.4671,-0.4398,-0.3728,-0.3545,-0.3149,-0.2651,-0.1593,-0.1093,-0.1076,-0.1076,-0.1076,0.0,0.0,0.0,0.0,0.0,0.0,0.0,0.0,0.0,0.0,0.0,0.0,0.0,0.0,0.0,0.0,0.0,0.0,0.0,0.0,0.0,0.0,0.0,0.0,0.0,0.0,0.0,0.0,0.0,0.0,0.0,0.0,0.0,0.0,0.0,0.0,0.0,-0.1396,-0.1325,0.0,-0.1611,-0.1473,-0.15,-0.1789,-0.1643,-0.1478,-0.157,-0.1498,-0.1519,-0.1538,-0.1549,-0.1575,-0.1613,-0.1624,-0.1639,-0.1657,-0.1668,-0.1679,-0.1689,-0.1689,-0.1689,-0.1689,-0.1689,-0.1683,-0.1671,-0.165,-0.1619,-0.1584,-0.1584,-0.1584,-0.1584,-0.1584,-0.1584,-0.1584,0.0,0.0,0.0,0.0,0.0,0.0,0.0,0.0,-0.9448,-0.9352,-0.852,-0.7688,-0.7198,-0.6239,-0.5391,-0.4904,-0.4959,-0.4963,-0.4794,-0.4901,-0.4959,-0.4963,-0.4905,-0.4929,-0.4926,-0.5086,-0.514,-0.5209,-0.541,-0.5375,-0.5089,-0.5249,-0.5097,-0.4694,-0.4469,-0.4299,-0.4045,-0.2602,-0.1971,-0.1839,-0.1635,-0.1491,-0.1411,0.0,0.0,0.0,0.0,0.0,0.0,0.0,0.0,0.0,0.0,0.0,0.0,0.0,0.0,0.0,0.0,0.0,0.0,0.0,0.0,0.0,0.0,0.0,0.0,0.0,0.0,0.0,0.0,0.0,0.0,0.0,0.0,0.0,0.0,0.0,-0.1328,-0.1443,-0.1371,-0.1389,-0.1683,-0.1539,-0.1566,-0.1868,-0.1715,-0.1541,-0.1638,-0.1551,-0.157,-0.1601,-0.1603,-0.1626,-0.1676,-0.1676,-0.1686,-0.1704,-0.1704,-0.171,-0.172,-0.172,-0.172,-0.172,-0.172,-0.1714,-0.1704,-0.1704,-0.1682,-0.1646,-0.1646,-0.1646,-0.1646,-0.1646,-0.1646,-0.1646,0.0,0.0,0.0,0.0,0.0,0.0,0.0,-0.9484,-0.9382,-0.9162,-0.8411,-0.781,-0.7513,-0.6724,-0.5996,-0.5622,-0.5567,-0.5399,-0.4952,-0.5014,-0.4963,-0.4698,-0.4851,-0.4882,-0.4893,-0.5336,-0.5505,-0.5449,-0.5674,-0.5964,-0.6336,-0.6119,-0.6204,-0.6578,-0.5559,-0.5027,-0.4991,-0.4157,-0.3676,-0.3438,-0.2732,-0.2343,-0.2085,0.0,0.0,0.0,0.0,0.0,0.0,0.0,0.0,0.0,0.0,0.0,0.0,0.0,0.0,0.0,0.0,0.0,0.0,0.0,0.0,0.0,0.0,0.0,0.0,0.0,0.0,0.0,0.0,0.0,0.0,0.0,0.0,0.0,-0.1685,-0.1434,-0.1362,-0.1652,-0.1509,-0.145,-0.148,-0.151,-0.1624,-0.1912,-0.1752,-0.1673,-0.187,-0.1703,-0.1633,-0.1662,-0.1664,-0.1677,-0.1705,-0.1705,-0.1706,-0.1707,-0.1707,-0.1722,-0.1751,-0.1751,-0.1751,-0.1751,-0.1751,-0.1734,-0.1707,-0.1707,-0.1707,-0.1707,-0.1705,-0.1704,-0.1704,-0.1704,-0.1704,-0.1704,0.0,0.0,0.0,0.0,0.0,0.0,0.0,-0.9484,-0.9382,-0.9162,-0.8411,-0.781,-0.7513,-0.6332,-0.5555,-0.5622,-0.5285,-0.523,-0.5555,-0.5289,-0.5016,-0.4858,-0.4949,-0.5135,-0.524,-0.5367,-0.559,-0.5847,-0.604,-0.6287,-0.6431,-0.6617,-0.6697,-0.6658,-0.6488,-0.6384,-0.6189,-0.5944,-0.5762,-0.5502,-0.3971,-0.3295,-0.3197,0.0,0.0,0.0,0.0,0.0,0.0,0.0,0.0,0.0,0.0,0.0,0.0,0.0,0.0,0.0,0.0,0.0,0.0,0.0,0.0,0.0,0.0,0.0,0.0,0.0,0.0,0.0,0.0,0.0,0.0,0.0,0.0,-0.1588,-0.1498,-0.1411,-0.143,-0.1575,-0.1496,-0.1608,-0.1833,-0.1651,-0.1666,-0.1988,-0.1823,-0.174,-0.174,-0.1665,-0.1684,-0.1692,-0.1692,-0.1707,-0.1737,-0.1737,-0.1748,-0.177,-0.177,-0.1774,-0.1782,-0.1782,-0.1782,-0.1782,-0.1782,-0.1778,-0.177,-0.177,-0.177,-0.1765,-0.1721,-0.1704,-0.1704,-0.1704,-0.2236,-0.2981,0.0,0.0,0.0,0.0,0.0,0.0,0.0,-0.9484,-0.9346,-0.8956,-0.8527,-0.8068,-0.7716,-0.6723,-0.6046,-0.5996,-0.5723,-0.5614,-0.5887,-0.5575,-0.5421,-0.5428,-0.5294,-0.5307,-0.5425,-0.5679,-0.5864,-0.6125,-0.6342,-0.6488,-0.6569,-0.6819,-0.6781,-0.6702,-0.6864,-0.6781,-0.6702,-0.6702,-0.6651,-0.6465,-0.5425,-0.4707,-0.4196,-0.3732,-0.3553,-0.3547,-0.342,-0.3401,-0.334,-0.297,0.0,0.0,0.0,0.0,0.0,0.0,0.0,0.0,0.0,0.0,0.0,0.0,0.0,0.0,0.0,0.0,0.0,0.0,0.0,0.0,0.0,0.0,0.0,0.0,-0.1921,-0.1662,-0.1491,-0.1481,-0.1491,-0.1539,-0.1545,-0.1655,-0.1786,-0.1702,-0.1718,-0.184,-0.1767,-0.168,-0.168,-0.1695,-0.171,-0.1722,-0.1723,-0.1737,-0.1768,-0.1768,-0.1784,-0.1814,-0.1814,-0.1821,-0.1833,-0.1833,-0.2176,-0.2632,-0.2632,-0.2974,-0.343,-0.343,-0.343,-0.3418,0.0,0.0,0.0,0.0,-0.3694,-0.4344,0.0,0.0,0.0,0.0,0.0,0.0,0.0,-0.9484,-0.9298,-0.8789,-0.8699,-0.8489,-0.7997,-0.7424,-0.6972,-0.6696,-0.6485,-0.6337,-0.6087,-0.5988,-0.6015,-0.6233,-0.5686,-0.5476,-0.5528,-0.6134,-0.643,-0.6312,-0.6668,-0.6809,-0.6725,-0.6742,-0.6749,-0.6749,-0.6749,-0.6742,-0.6725,-0.6725,-0.6725,-0.6725,-0.6709,-0.6058,-0.5098,-0.4296,-0.396,-0.3958,-0.3935,-0.3926,-0.3928,-0.3867,0.0,0.0,0.0,0.0,0.0,0.0,0.0,0.0,0.0,0.0,0.0,0.0,0.0,0.0,0.0,0.0,0.0,0.0,0.0,0.0,0.0,0.0,0.0,0.0,-0.2173,-0.1542,-0.1572,-0.1553,-0.1546,-0.1573,-0.1579,-0.1592,-0.162,-0.165,-0.1667,-0.1667,-0.1693,-0.171,-0.171,-0.1712,0.0,0.0,0.0,-0.177,-0.18,-0.18,-0.1815,-0.1846,-0.196,-0.2091,-0.2121,-0.2121,-0.2708,-0.3762,-0.3646,-0.4348,-0.5518,-0.5518,-0.5752,-0.5854,-0.4437,-0.3826,-0.3938,-0.5056,-0.5504,-0.5616,0.0,0.0,0.0,0.0,0.0,0.0,0.0,-0.9484,-0.9364,-0.9095,-0.8807,-0.8561,-0.8249,-0.7531,-0.7133,-0.7182,-0.6701,-0.6454,-0.6624,-0.6595,-0.6506,-0.6351,-0.5847,-0.5715,-0.6153,-0.695,-0.707,-0.6617,-0.7537,-0.7635,-0.6888,-0.7,-0.7054,-0.7054,-0.7054,-0.6993,-0.6885,-0.6885,-0.6885,-0.6875,-0.6749,-0.6565,-0.6296,-0.596,-0.5787,-0.5759,-0.5523,-0.5369,-0.5312,-0.4754,-0.4564,-0.451,-0.393,-0.3803,0.0,0.0,0.0,0.0,0.0,0.0,0.0,0.0,0.0,0.0,0.0,0.0,0.0,0.0,0.0,0.0,0.0,0.0,0.0,-0.2032,-0.1753,-0.1573,-0.1604,-0.1603,-0.1601,-0.1607,-0.163,-0.1647,-0.1653,-0.168,-0.1696,-0.1696,-0.1724,-0.1741,-0.1741,-0.1764,-0.178,-0.1786,-0.1787,-0.1801,-0.1832,-0.1832,-0.1847,-0.1877,-0.2928,0.0,-0.3411,-0.3411,-0.3528,-0.3763,-0.2708,-0.2942,-0.4231,-0.4231,-0.5401,-0.715,-0.5828,-0.5352,-0.535,-0.5584,-0.6392,-0.7203,0.0,0.0,0.0,0.0,0.0,0.0,0.0,-0.9484,-0.9382,-0.9162,-0.8837,-0.8579,-0.8321,-0.7554,-0.7192,-0.7408,-0.7139,-0.7235,-0.7873,-0.748,-0.7306,-0.764,-0.7125,-0.7093,-0.7621,-0.8191,-0.8108,-0.7476,-0.8064,-0.7891,-0.7037,-0.7105,-0.7139,-0.7139,-0.7139,-0.7061,-0.6929,-0.6929,-0.6929,-0.6922,-0.6848,-0.6858,-0.6888,-0.6593,-0.6481,-0.6451,-0.622,-0.6135,-0.6059,-0.5679,-0.5527,-0.5463,-0.514,-0.5082,-0.5082,0.0,0.0,0.0,0.0,0.0,0.0,0.0,0.0,0.0,0.0,0.0,0.0,0.0,0.0,-0.5334,0.0,0.0,-0.3964,-0.3908,-0.3552,-0.3199,-0.3363,-0.3372,-0.2965,-0.1742,-0.1653,-0.198,-0.2522,-0.2562,-0.2801,-0.3447,-0.2957,-0.2985,-0.3536,-0.3009,-0.3023,-0.358,-0.3723,-0.3754,-0.3672,-0.3125,-0.2814,-0.2859,-0.2859,-0.2871,-0.2893,-0.2893,-0.3612,-0.4807,-0.4209,-0.5049,-0.6844,-0.6844,-0.7562,-0.8641,-0.8042,-0.7729,-0.7624,-0.7624,-0.7974,-0.8442,0.0,0.0,0.0,0.0,0.0,0.0,0.0,-0.9612,-0.9527,-0.924,-0.8992,-0.8713,-0.8387,-0.7698,-0.7354,-0.7574,-0.7574,-0.7952,-0.8878,-0.8145,-0.8062,-0.8872,-0.8404,-0.8384,-0.8952,-0.9373,-0.9261,-0.8572,-0.8901,-0.8452,-0.7404,-0.7404,-0.7316,-0.7139,-0.7139,-0.7061,-0.6929,-0.6929,-0.6929,-0.6929,-0.6929,-0.7014,-0.7112,-0.6875,-0.677,-0.6722,-0.6536,-0.6471,-0.6451,-0.6308,-0.6338,-0.6338,-0.6338,-0.6338,-0.6338,-0.6338,-0.6338,0.0,0.0,0.0,0.0,0.0,0.0,0.0,0.0,0.0,-0.7227,-0.6388,-0.64,-0.6487,-0.6203,-0.5625,-0.5305,-0.5796,-0.5291,-0.4877,-0.5054,-0.5081,-0.4479,-0.2619,-0.2412,-0.2741,-0.3738,-0.3906,-0.4272,-0.5259,-0.4438,-0.4359,-0.5361,-0.447,-0.4367,-0.5388,-0.5572,-0.5516,-0.5321,-0.434,-0.3809,-0.3869,-0.3026,-0.2803,-0.3206,-0.3206,-0.4309,-0.6263,-0.6263,-0.749,-0.9454,-0.9697,-0.9822,-0.9822,-0.9822,-0.9676,-0.9466,-0.9466,-0.9466,-0.9466,0.0,0.0,0.0,0.0,0.0,0.0,0.0,0.0,-1.004,-0.95,-0.9411,-0.9247,-0.8697,-0.814,-0.7848,-0.7848,-0.7848,-0.8123,-0.8703,-0.8086,-0.8137,-0.905,-0.8413,-0.8439,-0.9214,-1.0095,-1.0248,-0.9716,-1.0611,-1.0106,-0.8368,-0.8368,-0.7929,-0.7139,-0.7139,-0.7061,-0.6929,-0.6929,-0.6929,-0.6929,-0.6929,-0.7014,-0.7136,-0.7102,-0.7014,-0.6865,-0.6576,-0.6471,-0.6451,-0.6308,-0.6338,-0.6338,-0.6338,-0.6338,-0.6338,-0.6338,-0.6338,-0.6288,-0.6413,-0.6647,-0.6824,-0.6705,-0.7,-0.7285,0.0,0.0,-0.7573,-0.7476,-0.7495,-0.7298,-0.633,-0.6232,-0.5914,-0.5109,-0.4989,-0.5054,-0.5064,-0.5241,-0.522,-0.498,-0.488,-0.4994,-0.511,-0.5186,-0.5234,-0.5347,-0.5244,-0.525,-0.5361,-0.525,-0.5286,-0.5593,-0.5606,-0.5112,-0.407,-0.3959,-0.3871,-0.3927,-0.4904,-0.6132,-0.7245,-0.7245,-0.7368,-0.7734,-0.7734,-0.7858,-0.8224,-0.9329,-0.9822,-0.9822,-0.9822,-0.9802,-0.9771,-0.9771,-0.9771,-0.9771,0.0,0.0,0.0,0.0,0.0,0.0,0.0,0.0,0.0,-0.9989,-0.9813,-0.961,-0.9214,-0.849,-0.8062,-0.8062,-0.8062,-0.8288,-0.882,-0.8498,-0.8714,-0.9719,-0.9555,-0.9728,-1.0548,-1.1112,-1.1111,-1.0519,-1.0995,-1.0626,-0.9318,-0.9318,-0.9144,-0.8707,-0.8707,-0.8698,-0.8535,-0.794,-0.7684,-0.7684,-0.7684,-0.7782,-0.7918,-0.8336,-0.8422,-0.8243,-0.7091,-0.6549,0.0,-0.6308,-0.6338,-0.6338,-0.6338,-0.6338,-0.6338,-0.6338,-0.6318,-0.6417,-0.6566,-0.6824,-0.7037,0.0,-0.7234,-0.7489,-0.7424,-0.757,-0.7723,-0.7723,-0.7841,-0.7746,-0.735,-0.7298,-0.7263,0.0,-0.689,-0.6975,-0.7223,-0.7289,-0.7265,-0.7393,-0.7408,-0.7078,-0.6416,-0.6342,-0.6702,-0.7371,-0.6813,-0.6702,-0.7371,-0.6873,-0.693,-0.7664,-0.7812,-0.7704,-0.7207,-0.6545,-0.6226,-0.6263,-0.6018,-0.6141,-0.6754,-0.6754,-0.7121,-0.798,-0.8714,-0.8961,-0.9083,-0.9576,-0.9822,-0.9822,-0.9822,-0.9822,-0.9822,-0.9822,-0.9822,-0.9822,0.0,0.0,0.0,0.0,0.0,0.0,0.0,0.0,0.0,0.0,-1.0287,-0.9834,-0.9234,-0.8551,-0.8115,-0.8115,-0.8115,-0.8312,-0.8774,-0.8755,-0.9088,-1.0073,-1.0248,-1.0671,-1.1401,-1.1679,-1.1617,-1.1211,-1.1383,-1.099,-1.0186,-1.0186,-1.0043,-0.9923,-0.9923,-0.9842,-0.971,-0.9024,-0.8768,-0.8764,-0.8628,-0.8691,-0.8793,-0.9194,-0.9331,-0.9179,-0.7816,-0.7207,-0.716,-0.7002,-0.6949,-0.6949,-0.6721,-0.6673,-0.6627,-0.6397,-0.6478,-0.6681,-0.6793,-0.7041,-0.7268,-0.7268,-0.7465,-0.7658,-0.7658,-0.777,-0.7875,-0.7875,-0.7963,-0.8038,-0.8038,-0.8038,-0.8092,-0.8245,-0.8303,-0.8418,-0.8676,-0.8747,-0.8815,-0.8923,-0.894,-0.8605,-0.7712,-0.7598,-0.7934,-0.8826,-0.8045,-0.7934,-0.883,-0.8279,-0.8369,-0.9215,-0.9473,-0.9506,-0.9184,-0.8303,-0.7858,-0.7856,-0.6877,-0.6632,-0.6999,-0.6999,-0.749,-0.8471,-0.9451,-0.9822,-0.9822,-0.9822,-0.9822,-0.9822,-0.9822,-0.9822,-0.9822,-0.9822,-0.9822,-0.9822,0.0,0.0,0.0,0.0,0.0,0.0,0.0,0.0,0.0,0.0,0.0,0.0,0.0,-0.8063,-0.7901,-0.7901,-0.7901,-0.8015,-0.8285,-0.8537,-0.8926,-0.9484,-0.9994,-1.058,-1.1111,-1.1401,-1.1594,-1.1852,-1.1858,-1.1502,-1.0904,-1.0904,-1.0508,-0.9923,-0.9923,-0.9918,-0.9913,-0.9826,-0.9826,-0.9808,-0.9526,-0.9452,-0.9438,-0.9234,-0.9034,-0.8932,-0.8848,-0.8844,-0.8811,-0.8693,-0.8627,-0.847,-0.771,-0.7516,-0.749,-0.6704,-0.6776,-0.7122,-0.7126,-0.7353,-0.7587,-0.7587,-0.7695,-0.7804,-0.7804,-0.7923,-0.8031,-0.8031,-0.8035,-0.8038,-0.8038,-0.8038,-0.8092,-0.8245,-0.8384,-0.853,-0.8686,-0.8838,-0.8933,-0.894,-0.894,-0.8937,0.0,-0.883,-0.8826,-0.894,-0.8826,-0.8826,-0.894,-0.9076,-0.9222,-0.9367,-0.9527,-0.9071,-0.7972,-0.7856,-0.7858,-0.7858,-0.7856,-0.8471,-0.9697,-0.9697,-0.9697,-0.97,-0.9819,-0.9822,-0.9822,-0.9822,-0.9822,-0.9822,-0.9822,-0.9822,-0.9822,-0.9822,-0.9822,-0.9822,0.0,0.0,0.0,0.0,0.0,0.0,0.0,0.0,0.0,0.0,0.0,0.0,0.0,0.0,0.0,0.0,-0.8368,-0.8327,-0.8329,-0.8369,-0.8741,-0.9454,-0.9652,-0.9988,-1.058,-1.1027,-1.1298,-1.1383,-1.1745,-1.1802,-1.156,-1.156,-1.1438,-1.1265,-1.1265,-1.1265,-1.1183,-1.0595,-1.0341,-1.0254,-1.0177,-1.0147,-1.0187,-1.0366,-1.0501,-1.0617,0.0,-0.9513,-0.8789,-0.8722,-0.8703,-0.8551,-0.7787,-0.7598,-0.7564,-0.708,-0.7021,-0.7183,-0.739,-0.759,-0.774,-0.774,-0.7851,-0.7963,-0.7963,-0.8004,-0.8038,-0.8038,-0.8038,-0.8038,-0.8038,-0.8038,-0.8092,-0.8245,-0.8391,-0.8533,-0.8689,-0.8842,-0.894,-0.894,-0.894,0.0,0.0,0.0,0.0,-0.894,-0.894,-0.8981,-0.9076,-0.9222,-0.9374,-0.953,-0.9673,-0.9529,-0.9204,-0.9207,-0.9207,-0.9207,-0.9207,-0.9329,-0.9822,-0.9822,-0.9822,-0.9822,-0.9822,-0.9822,-0.9822,-0.9822,-0.9822,-0.9822,-0.9822,-0.9822,-0.9822,-0.9822,-0.9822,-0.9822,0.0,0.0,0.0,0.0,0.0,0.0,0.0,0.0,0.0,0.0,0.0,0.0,0.0,0.0,0.0,0.0,0.0,-0.8545,-0.8404,-0.8348,-0.8519,-0.9034,-0.9334,-0.964,-1.0043,-1.0562,-1.0828,-1.0828,-1.1184,-1.1401,-1.1492,-1.1492,-1.154,-1.1636,-1.1739,-1.1781,-1.1702,-1.113,-1.0936,-1.0992,-1.0723,-1.0668,-1.0695,-1.0804,-1.1003,0.0,-1.0846,-1.0222,-0.9528,-0.9528,-0.9528,-0.9468,-0.8707,-0.8498,-0.8434,-0.7903,-0.7833,-0.7876,-0.7715,-0.778,-0.7892,-0.7892,-0.7967,-0.8038,-0.8038,-0.8038,-0.8038,-0.8038,-0.8038,-0.8038,-0.8038,-0.8038,-0.8092,-0.8245,-0.8391,-0.8533,-0.8689,-0.8842,-0.894,-0.894,-0.894,-0.894,0.0,0.0,0.0,-0.894,-0.894,-0.9001,-0.9147,-0.93,-0.9452,-0.9605,-0.9747,-0.9822,-0.9822,-0.9822,-0.9822,-0.9822,-0.9822,-0.9822,-0.9822,-0.9822,-0.9822,-0.9822,-0.9822,-0.9822,-0.9822,-0.9822,-0.9822,-0.9822,-0.9822,-0.9822,-0.9822,-0.9822,-0.9822,-0.9822,0.0,0.0,0.0,0.0,0.0,0.0,0.0,0.0,0.0,0.0,0.0,0.0,0.0,0.0,0.0,0.0,0.0,0.0,-0.8626,-0.8397,-0.8329,-0.8341,-0.9077,-0.95,-0.9524,-1.0025,-1.0297,-1.0309,-1.0321,-1.0453,-1.0701,-1.0701,-1.0834,-1.1081,-1.1353,-1.1467,-1.1467,-1.1467,-1.1612,-1.1775,-1.1009,-1.0852,-1.1015,-1.0508,-1.0472,-1.0701,-1.0701,-1.087,-1.1093,-1.1105,-1.1049,0.0,-1.044,-1.0182,-0.9975,-0.9118,-0.9153,-0.9148,-0.8201,-0.7929,-0.8038,-0.8038,-0.8038,-0.8038,-0.8038,-0.8038,-0.8038,-0.8038,-0.8038,-0.8038,0.0,0.0,-0.8089,-0.8235,-0.8377,-0.8523,-0.8676,-0.8828,-0.893,0.0,0.0,0.0,0.0,0.0,0.0,-0.894,0.0,-0.9005,-0.9157,-0.9303,-0.9456,-0.9615,-0.9751,-0.9822,-0.9822,-0.9822,-0.9822,-0.9822,-0.9822,-0.9822,-0.9822,-0.9822,-0.9822,-0.9822,-0.9822,-0.9822,-0.9822,-0.9822,-0.9822,-0.9822,-0.9822,-0.9822,-0.9822,-0.9822,-0.9822,-0.9822,0.0,0.0,0.0,0.0,0.0,0.0,0.0,0.0,0.0,0.0,0.0,0.0,0.0,0.0,0.0,0.0,0.0,0.0,-0.8626,-0.8538,-0.8619,-0.8824,-0.9042,-0.9296,-0.9729,-1.0079,-1.0161,-0.997,-1.0167,-1.0363,-1.0429,-1.0429,-1.0466,-1.0532,-1.0604,-1.0635,-1.0635,-1.0635,-1.0677,-1.0719,-1.0514,-1.0472,-1.049,-1.0164,-1.02,-1.0429,-1.0429,-1.0598,-1.0852,0.0,0.0,0.0,0.0,-1.0305,-1.009,-1.009,-0.9814,-0.9364,-0.9209,-0.8598,-0.8038,-0.8038,-0.8038,-0.8038,-0.8038,-0.8038,-0.8038,-0.8038,-0.8038,-0.8038,0.0,0.0,0.0,-0.8092,-0.8225,0.0,-0.852,-0.8672,0.0,-0.8923,0.0,-0.894,-0.894,-0.894,0.0,0.0,-0.894,-0.9049,-0.931,-0.9361,-0.95,-0.9758,-0.9802,-0.9822,-0.9822,-0.9822,-0.9822,-0.9822,-0.9822,-0.9822,-0.9822,-0.9822,-0.9822,-0.9822,-0.9822,-0.9822,-0.9822,-0.9822,-0.9822,-0.9822,-0.9822,-0.9822,-0.9822,-0.9822,-0.9822,-0.9822,0.0,0.0,0.0,0.0,0.0,0.0,0.0,0.0,0.0,0.0,0.0,0.0,0.0,0.0,0.0,0.0,0.0,0.0,0.0,-0.8778,-0.8645,-0.8802,-0.8925,-0.9147,-0.9421,-0.9713,-0.9816,-0.9668,-0.974,-0.9802,-0.9802,-0.9862,-0.9922,-0.9922,-1.0042,-1.0089,-1.0089,-1.0089,-1.0155,0.0,0.0,-0.9988,-1.0134,-0.9802,-0.9862,-1.0176,-1.0284,-1.0568,0.0,0.0,0.0,-1.1027,-1.1266,-1.142,-1.1531,-1.1426,0.0,-1.0056,-0.9678,-0.8825,-0.8038,-0.8038,-0.8038,-0.8038,-0.8038,-0.8038,-0.8038,-0.8038,-0.8038,0.0,-0.8038,0.0,0.0,0.0,0.0,0.0,-0.8462,-0.8615,-0.8767,0.0,-0.894,0.0,-0.894,-0.894,-0.894,0.0,-0.894,-0.9069,-0.9364,-0.9381,-0.9517,-0.9812,-0.9822,-0.9822,-0.9822,-0.9822,-0.9822,-0.9822,-0.9822,-0.9822,-0.9822,-0.9822,-0.9822,-0.9822,-0.9822,-0.9822,-0.9822,-0.9822,-0.9822,-0.9822,-0.9822,-0.9822,-0.9822,-0.9822,-0.9822,-0.9822,0.0,0.0,0.0,0.0,0.0,0.0,0.0,0.0,0.0,0.0,0.0,0.0,0.0,0.0,0.0,0.0,0.0,0.0,0.0,0.0,-0.8732,-0.8679,-0.8916,-0.9068,-0.9108,-0.9251,-0.935,-0.9389,-0.9149,-0.9077,-0.9083,-0.9298,-0.943,-0.9436,-0.9706,-0.982,-0.982,-0.982,-0.9952,-1.0119,-0.9664,-0.9622,-0.9796,0.0,-0.9622,-0.9862,-1.0224,0.0,0.0,0.0,-1.139,-1.1802,-1.2146,-1.2775,-1.3191,-1.2692,-1.1874,-1.0974,-1.0096,-0.892,-0.8038,-0.8038,-0.8038,-0.8038,-0.8038,-0.8038,-0.8038,-0.8038,0.0,-0.8038,-0.8038,-0.8038,-0.8038,-0.8038,0.0,-0.8289,-0.8435,-0.8584,-0.8737,-0.8889,-0.8927,-0.894,-0.894,-0.894,-0.894,-0.894,-0.894,-0.9059,-0.9337,-0.9351,-0.9486,-0.9785,-0.9812,-0.9822,-0.9822,-0.9822,-0.9822,-0.9822,-0.9822,-0.9822,-0.9822,-0.9822,-0.9822,-0.9822,-0.9822,-0.9822,-0.9822,-0.9822,-0.9822,-0.9822,-0.9822,-0.9822,-0.9822,-0.9822,-0.9822,-0.9822,0.0,0.0,0.0,0.0,0.0,0.0,0.0,0.0,0.0,0.0,-1.1178,-1.1281,0.0,0.0,0.0,0.0,0.0,0.0,0.0,0.0,0.0,-0.9106,-0.9155,-0.9247,-0.9494,-0.9216,-0.9199,-0.9389,-0.8958,-0.8747,-0.8753,-0.9016,-0.9142,-0.921,-0.9424,-0.955,-0.955,-0.955,-0.958,-0.961,-0.952,-0.9508,-0.9544,-0.9502,0.0,0.0,0.0,0.0,0.0,0.0,-1.0916,-1.0891,-1.1975,-1.2331,-1.2534,-1.3351,-1.2453,-1.117,-1.0979,-0.9509,-0.8038,-0.8038,-0.8038,-0.8038,-0.8038,-0.8038,0.0,0.0,-0.8038,-0.8038,-0.8038,-0.8038,-0.8038,-0.8038,0.0,0.0,0.0,0.0,-0.8577,0.0,0.0,0.0,0.0,0.0,0.0,0.0,-0.894,-0.9015,-0.9181,-0.9195,-0.9334,-0.9635,-0.9758,-0.9822,-0.9822,-0.9822,-0.9822,-0.9822,-0.9822,-0.9822,-0.9822,-0.9822,-0.9822,-0.9822,-0.9822,-0.9822,-0.9822,-0.9822,-0.9822,-0.9822,-0.9822,-0.9822,-0.9822,-0.9822,-0.9822,-0.9822,0.0,0.0,0.0,0.0,0.0,0.0,0.0,-1.0053,-1.0047,-1.0548,-1.0618,-1.08,-1.1303,-1.1043,-1.0697,0.0,0.0,0.0,0.0,0.0,0.0,0.0,0.0,0.0,-0.9099,-0.8883,-0.8847,-0.8991,0.0,-0.8477,-0.8483,-0.8741,-0.8938,-0.9132,-0.9208,-0.9346,-0.9484,-0.9484,-0.9484,-0.9484,-0.9484,-0.9484,-0.9484,0.0,0.0,0.0,0.0,0.0,0.0,0.0,-1.0838,-1.0746,-1.2046,-1.2621,-1.3032,-1.3896,-1.3132,-1.1853,-1.1365,-0.9998,-0.8726,-0.8137,-0.8038,-0.8038,-0.8038,0.0,0.0,0.0,-0.7919,-0.7919,-0.7919,0.0,0.0,0.0,0.0,0.0,0.0,0.0,0.0,0.0,0.0,0.0,0.0,0.0,-0.894,-0.894,-0.894,-0.9001,-0.9147,-0.9228,-0.934,-0.9486,-0.9635,-0.971,-0.971,-0.9785,-0.9822,-0.9822,-0.9822,-0.9822,-0.9822,-0.9822,-0.9822,-0.9822,-0.9822,-0.9822,-0.9822,-0.9822,-0.9822,-0.9822,-0.9822,-0.9822,-0.9822,-0.9822,-0.9822,-0.9822,0.0,0.0,0.0,0.0,0.0,0.0,0.0,-0.9862,-0.967,-1.0047,-1.0117,-1.0301,-1.08,-1.0926,-1.0885,0.0,0.0,0.0,0.0,0.0,0.0,0.0,0.0,0.0,0.0,0.0,0.0,0.0,-0.8318,0.0,0.0,0.0,0.0,0.0,-0.8956,-0.9136,-0.9394,-0.9394,-0.943,0.0,0.0,-0.9484,0.0,0.0,0.0,0.0,0.0,0.0,0.0,0.0,-1.0958,-1.0939,-1.22,-1.285,-1.3324,-1.398,-1.3471,-1.2436,-1.1463,-1.0391,-0.9312,-0.8233,-0.8038,-0.8031,-0.7997,-0.7896,0.0,0.0,-0.7767,-0.7777,-0.7804,0.0,0.0,0.0,0.0,0.0,0.0,0.0,0.0,0.0,0.0,0.0,0.0,0.0,0.0,-0.894,-0.894,-0.8988,-0.91,-0.9252,-0.9334,-0.9334,-0.9483,-0.9578,-0.9608,-0.972,-0.9774,-0.9774,-0.9774,-0.9758,-0.9727,-0.9727,-0.9727,-0.9727,-0.9727,-0.9744,-0.9774,-0.9774,-0.9791,-0.9822,-0.9822,-0.9822,-0.9822,-0.9822,-0.9822,-0.9822,0.0,0.0,0.0,0.0,0.0,0.0,0.0,-0.9862,-0.9548,-0.9548,-0.9548,-0.9798,-1.0301,-1.0737,-1.0975,0.0,0.0,0.0,0.0,0.0,0.0,0.0,0.0,0.0,0.0,0.0,0.0,0.0,0.0,0.0,0.0,0.0,0.0,0.0,0.0,-0.8861,-0.9168,-0.9168,0.0,0.0,0.0,0.0,0.0,0.0,0.0,0.0,0.0,0.0,0.0,0.0,0.0,-1.1498,-1.2104,-1.2261,-1.2442,-1.3572,0.0,0.0,-1.1463,-1.0391,-0.9312,-0.8233,-0.8038,-0.8004,-0.7865,0.0,0.0,-0.7645,-0.7617,-0.7658,-0.7787,-0.7824,-0.7879,-0.8018,-0.8038,-0.8045,0.0,0.0,0.0,0.0,0.0,0.0,0.0,0.0,0.0,-0.894,-0.894,-0.8944,-0.8957,-0.9096,-0.9174,-0.9174,-0.932,-0.9469,-0.9608,-0.9622,-0.9629,-0.9629,-0.9629,-0.9557,-0.9422,-0.9422,-0.9422,-0.9422,-0.9422,-0.95,-0.9629,-0.9629,-0.9703,-0.9822,-0.9822,-0.9822,-0.9822,-0.9822,-0.9822,-0.9822,0.0,0.0,0.0,0.0,0.0,0.0,-1.08,-1.0364,-0.9989,-0.9548,-0.967,-0.9798,-0.9798,-1.0364,-1.0674,-1.0618,0.0,0.0,0.0,0.0,0.0,0.0,0.0,0.0,0.0,0.0,-0.8008,-0.8162,-0.8008,0.0,0.0,0.0,0.0,0.0,0.0,0.0,-0.9126,-0.9126,0.0,0.0,0.0,0.0,0.0,0.0,0.0,0.0,0.0,0.0,0.0,0.0,0.0,0.0,-1.1775,-1.2023,0.0,0.0,-1.369,-1.3132,-1.1623,-1.0881,-1.0194,-0.8432,-0.797,-0.7885,-0.7824,0.0,-0.7529,-0.7472,-0.7461,-0.7509,-0.7655,-0.7753,-0.7862,-0.8014,-0.8038,-0.8038,0.0,0.0,0.0,0.0,0.0,0.0,0.0,0.0,-0.894,-0.894,-0.894,-0.894,-0.894,-0.8991,-0.9025,-0.9025,-0.9167,-0.9273,-0.9334,-0.9425,-0.9473,-0.9473,-0.9473,-0.9442,-0.9381,-0.9381,-0.9381,-0.9381,-0.9381,-0.9415,-0.9473,-0.9473,-0.9561,-0.9693,-0.9693,-0.9744,-0.9822,-0.9822,-0.9822,-0.9822,0.0,0.0,0.0,0.0,0.0,-1.1677,-1.1303,-1.0919,-1.0415,-0.9734,-0.9862,-0.9926,-0.967,-1.0047,-1.0301,-1.0244,-1.0105,0.0,0.0,0.0,0.0,0.0,0.0,0.0,0.0,0.0,-0.7955,-0.7901,-0.7901,-0.7901,0.0,0.0,0.0,0.0,0.0,0.0,0.0,0.0,0.0,0.0,0.0,0.0,0.0,0.0,0.0,0.0,0.0,0.0,0.0,0.0,0.0,0.0,0.0,0.0,0.0,0.0,-1.361,-1.3263,-1.1507,-1.0986,-1.0509,-0.8391,-0.7828,-0.7736,0.0,0.0,-0.736,-0.7312,-0.7302,-0.735,-0.7502,-0.7651,-0.7797,-0.7946,-0.8011,-0.8038,-0.8038,0.0,0.0,0.0,0.0,0.0,0.0,-0.894,-0.894,-0.894,-0.894,-0.894,-0.894,-0.894,-0.894,-0.894,-0.9035,-0.911,-0.9154,-0.9259,-0.9313,-0.9313,-0.9313,-0.9293,-0.9249,-0.9249,-0.9249,-0.9249,-0.9249,-0.9276,-0.9313,-0.9313,-0.9432,-0.9608,-0.9608,-0.9696,-0.9822,-0.9822,-0.9822,-0.9822,0.0,0.0,0.0,0.0,0.0,0.0,-1.1802,-1.1344,-1.0773,-1.011,-0.9983,-0.9983,-0.9983,-0.9983,-0.9983,-0.9983,-1.0174,0.0,0.0,0.0,0.0,0.0,0.0,0.0,0.0,0.0,-0.8115,-0.7901,-0.7901,-0.7901,-0.7901,-0.7901,-0.7901,-0.7907,0.0,0.0,0.0,0.0,0.0,0.0,0.0,0.0,0.0,0.0,0.0,0.0,0.0,0.0,0.0,0.0,0.0,0.0,0.0,0.0,0.0,0.0,-1.2916,-1.2738,-1.1054,-1.0648,-1.0093,-0.8067,-0.7604,-0.7563,0.0,0.0,-0.7329,-0.7173,-0.7143,-0.719,-0.7346,-0.7499,-0.7648,-0.779,-0.794,-0.8038,-0.8038,0.0,0.0,0.0,0.0,0.0,0.0,-0.894,-0.894,-0.894,-0.894,0.0,-0.894,-0.894,-0.894,-0.894,-0.894,-0.9008,-0.915,-0.9154,-0.9154,-0.9154,-0.9154,-0.9083,-0.8944,-0.8944,-0.8944,-0.8944,-0.8944,-0.9025,-0.9154,-0.9154,-0.9337,-0.9608,-0.9608,-0.9696,-0.9822,-0.9822,-0.9822,-0.9822,0.0,0.0,0.0,0.0,0.0,0.0,0.0,-1.1732,-1.1288,-1.0174,-1.0238,-1.0308,-1.0047,-1.011,-1.0238,-1.0238,-1.011,0.0,0.0,0.0,0.0,0.0,0.0,0.0,0.0,0.0,-0.7955,-0.7901,-0.7901,-0.7901,-0.7901,-0.7901,-0.7901,-0.7901,-0.7901,0.0,0.0,0.0,0.0,0.0,0.0,0.0,0.0,0.0,0.0,0.0,0.0,0.0,0.0,0.0,0.0,0.0,0.0,0.0,0.0,-1.1617,0.0,0.0,-1.1547,-1.0903,-1.0274,-0.8889,-0.7977,-0.7431,-0.7383,-0.7288,-0.72,-0.7149,-0.7139,-0.7187,-0.7343,-0.7495,-0.7645,-0.7787,-0.794,-0.8038,0.0,0.0,0.0,0.0,0.0,0.0,0.0,0.0,-0.894,-0.894,-0.894,-0.894,-0.894,-0.894,-0.894,-0.894,-0.894,-0.896,-0.9008,-0.9008,-0.9008,-0.9008,-0.9008,-0.8984,-0.894,-0.894,-0.894,-0.894,-0.894,-0.8964,-0.9008,-0.9008,-0.912,-0.9306,-0.9412,-0.9544,-0.969,-0.9785,-0.9822,-0.9822,0.0,0.0,0.0,0.0,0.0,0.0,0.0,-1.174,-1.1421,-1.0364,-1.0428,-1.0498,-1.0244,-1.0371,-1.0428,-1.0428,-1.0301,0.0,0.0,0.0,0.0,0.0,0.0,0.0,-0.8221,-0.8062,-0.7955,-0.7901,-0.7901,-0.7901,-0.7901,-0.7901,-0.7901,-0.7901,-0.7901,-0.8189,0.0,0.0,0.0,0.0,0.0,0.0,-0.9804,0.0,0.0,0.0,0.0,0.0,0.0,0.0,0.0,0.0,0.0,0.0,0.0,0.0,-1.1073,-1.1244,0.0,-1.0248,-0.9596,-0.8508,-0.78,0.0,0.0,-0.721,-0.7139,-0.7139,-0.7139,-0.717,-0.7265,-0.7458,-0.7628,-0.7719,-0.7902,-0.8038,0.0,0.0,0.0,0.0,0.0,0.0,0.0,-0.894,-0.894,-0.894,-0.894,-0.894,-0.894,-0.894,-0.894,-0.894,-0.894,-0.894,-0.894,-0.894,-0.894,-0.894,-0.894,-0.894,-0.894,-0.894,-0.894,-0.894,-0.894,-0.894,0.0,-0.894,-0.9022,-0.9161,-0.9259,-0.9422,-0.9618,-0.9707,-0.9774,-0.9822,0.0,0.0,0.0,0.0,0.0,0.0,0.0,-1.1483,-1.1303,-1.0681,-1.0624,-1.0624,-1.0624,-1.0624,-1.0624,-1.0624,0.0,0.0,0.0,0.0,0.0,0.0,0.0,0.0,-0.8228,-0.8168,-0.8062,-0.7901,-0.7901,-0.7901,-0.7901,-0.7901,-0.7901,-0.7901,-0.7919,-0.8275,0.0,0.0,0.0,0.0,0.0,0.0,0.0,0.0,0.0,0.0,0.0,0.0,0.0,0.0,0.0,0.0,0.0,0.0,0.0,0.0,0.0,0.0,0.0,-0.8983,0.0,0.0,0.0,0.0,0.0,-0.7139,0.0,-0.7139,-0.7139,-0.7139,-0.7139,-0.739,-0.76,-0.76,-0.7848,0.0,0.0,0.0,0.0,0.0,0.0,0.0,-0.894,-0.894,-0.894,-0.894,-0.894,-0.894,-0.894,-0.894,-0.894,-0.894,-0.894,-0.894,-0.894,-0.894,-0.894,-0.894,-0.894,-0.894,-0.894,-0.894,-0.894,-0.894,-0.894,-0.894,-0.894,-0.894,-0.9018,-0.9137,-0.915,-0.9334,-0.9595,-0.9605,-0.97,-0.9822,0.0,0.0,0.0,0.0,0.0,0.0,0.0,0.0,0.0,0.0,-1.0624,-1.0624,-1.0624,-1.0624,-1.0624,0.0,0.0,0.0,0.0,0.0,0.0,0.0,0.0,0.0,-0.8381,-0.8109,-0.7955,-0.7901,-0.7901,-0.7901,-0.7901,-0.7901,-0.7901,-0.7907,-0.8276,-0.8839,0.0,0.0,0.0,0.0,0.0,0.0,0.0,0.0,0.0,0.0,-1.0053,-1.0211,0.0,0.0,0.0,0.0,0.0,0.0,0.0,0.0,-0.8608,-0.7312,-0.809,0.0,-0.8283,-0.8158,-0.7669,-0.7139,0.0,-0.7139,-0.7139,0.0,0.0,0.0,-0.7139,-0.739,-0.76,-0.76,0.0,0.0,0.0,0.0,0.0,0.0,0.0,-0.894,-0.894,-0.894,-0.894,-0.894,-0.894,-0.894,-0.894,-0.894,-0.894,-0.894,-0.894,-0.894,-0.894,-0.894,-0.894,-0.894,-0.894,-0.894,-0.894,-0.894,-0.894,-0.894,-0.894,-0.894,-0.894,-0.894,-0.8957,-0.8998,-0.911,-0.9269,-0.9449,-0.9564,-0.97,-0.9822,0.0,0.0,0.0,0.0,0.0,0.0,0.0,0.0,0.0,0.0,0.0,-1.0624,-1.0624,-1.0624,0.0,0.0,0.0,0.0,0.0,0.0,0.0,0.0,0.0,-0.8837,-0.848,-0.8215,-0.8062,-0.8109,-0.8062,-0.8062,-0.8109,-0.8109,-0.8109,-0.8127,-0.8633,-0.9092,0.0,0.0,0.0,0.0,-1.011,0.0,0.0,0.0,0.0,0.0,-1.0238,-1.0403,0.0,-1.0604,-1.082,-1.1111,0.0,0.0,0.0,0.0,-0.7932,-0.6583,-0.7208,-0.7476,-0.7726,-0.78,-0.7492,-0.7139,-0.7139,0.0,0.0,0.0,0.0,0.0,0.0,0.0,0.0,0.0,0.0,0.0,0.0,0.0,0.0,0.0,0.0,-0.894,0.0,-0.894,-0.894,-0.894,-0.894,-0.894,-0.894,-0.894,-0.894,-0.894,-0.894,-0.894,-0.894,-0.894,-0.894,-0.894,-0.894,-0.894,-0.894,-0.894,-0.894,-0.894,-0.894,-0.894,-0.894,-0.894,-0.894,-0.8947,-0.9025,-0.9144,-0.9296,-0.9449,-0.9598,-0.9734,0.0,0.0,0.0,0.0,0.0,0.0,0.0,0.0,0.0,0.0,0.0,0.0,0.0,0.0,0.0,0.0,0.0,0.0,0.0,0.0,0.0,0.0,-0.9376,-0.9054,-0.8586,-0.8374,-0.8268,-0.8421,-0.8268,-0.8268,-0.8421,-0.8421,-0.8472,-0.8575,-0.9093,-0.9343,0.0,0.0,-1.011,0.0,-1.0308,0.0,0.0,0.0,0.0,0.0,0.0,0.0,0.0,-1.088,-1.0963,-1.1037,-1.1186,0.0,0.0,0.0,0.0,0.0,-0.662,-0.6797,-0.6936,-0.7099,-0.7139,-0.7139,0.0,0.0,0.0,0.0,0.0,0.0,0.0,0.0,0.0,0.0,0.0,0.0,0.0,0.0,0.0,0.0,0.0,0.0,-0.894,-0.894,-0.894,-0.894,-0.894,-0.894,-0.894,-0.894,-0.894,-0.894,-0.894,-0.894,-0.894,-0.894,-0.894,-0.894,-0.894,-0.894,-0.894,-0.894,-0.894,-0.894,-0.894,-0.894,-0.894,-0.894,-0.894,-0.894,-0.894,-0.9025,-0.9167,-0.93,-0.9459,-0.9632,0.0,0.0,0.0,0.0,0.0,0.0,0.0,0.0,0.0,0.0,0.0,0.0,0.0,0.0,0.0,0.0,0.0,0.0,0.0,0.0,0.0,-0.9706,-0.957,-0.918,-0.8586,-0.8421,-0.8374,-0.8421,-0.8374,-0.8374,-0.8421,-0.8421,-0.8738,-0.9336,-0.9669,-1.0004,-1.0365,-1.0458,-1.0498,-1.0498,-1.0561,0.0,0.0,0.0,0.0,0.0,0.0,0.0,0.0,-1.088,-1.0748,-1.0594,-1.0438,0.0,0.0,0.0,0.0,0.0,-0.6702,-0.6719,-0.68,-0.7071,-0.7139,-0.7139,0.0,0.0,0.0,0.0,0.0,0.0,0.0,0.0,0.0,0.0,0.0,0.0,0.0,0.0,0.0,-0.8645,0.0,-0.894,-0.894,-0.894,-0.894,-0.894,-0.894,-0.894,-0.894,-0.894,-0.894,-0.894,-0.894,-0.894,-0.894,-0.894,-0.894,-0.894,-0.894,-0.894,-0.894,-0.894,-0.894,-0.894,-0.894,-0.894,-0.894,-0.894,-0.894,-0.894,-0.894,-0.9025,-0.9157,-0.9178,-0.9367,-0.9632,0.0,0.0,0.0,0.0,0.0,0.0,0.0,0.0,0.0,0.0,0.0,0.0,0.0,0.0,0.0,0.0,0.0,0.0,0.0,0.0,-1.0232,-0.9706,-0.9628,-0.9349,-0.8705,-0.858,-0.8527,-0.8593,-0.8527,-0.8527,-0.8593,-0.8743,-0.902,-0.9352,-0.9801,-1.0133,-1.0327,-1.0494,-1.0624,-1.0624,0.0,0.0,0.0,0.0,0.0,0.0,0.0,0.0,0.0,0.0,-1.0652,-1.0438,-0.9981,0.0,0.0,0.0,0.0,0.0,-0.6764,-0.6723,-0.6753,-0.697,-0.7085,-0.7139,0.0,0.0,0.0,0.0,0.0,0.0,0.0,0.0,0.0,0.0,0.0,0.0,0.0,-0.8272,-0.8381,0.0,0.0,-0.894,-0.894,-0.894,-0.894,-0.894,-0.894,-0.894,-0.894,-0.894,-0.894,-0.894,-0.894,-0.894,-0.894,-0.894,-0.894,-0.894,-0.894,-0.894,-0.894,-0.894,-0.894,-0.894,-0.894,-0.894,-0.894,-0.894,-0.894,-0.894,-0.894,-0.8981,-0.9045,-0.9123,-0.9347,-0.9618,0.0,0.0,0.0,0.0,0.0,0.0,0.0,0.0,0.0,0.0,0.0,0.0,0.0,0.0,0.0,0.0,0.0,0.0,0.0,-1.0624,-1.0362,-0.9706,-0.9686,-0.9412,-0.8824,-0.8692,-0.8692,-0.8804,-0.8692,-0.8725,-0.8918,-0.9205,-0.9323,-0.9409,-0.9987,-1.0221,-1.0234,-1.0461,-1.0624,-1.0624,0.0,0.0,0.0,0.0,0.0,0.0,0.0,0.0,0.0,0.0,0.0,0.0,0.0,0.0,0.0,-0.7855,-0.7246,-0.6673,-0.6759,-0.6753,-0.6736,-0.6892,0.0,0.0,0.0,0.0,0.0,0.0,0.0,0.0,0.0,0.0,0.0,0.0,0.0,-0.7929,-0.8272,-0.8292,-0.8394,-0.8723,-0.8866,-0.894,-0.894,-0.894,-0.894,-0.894,-0.894,-0.894,-0.894,-0.894,-0.894,-0.894,-0.894,-0.894,-0.894,-0.894,-0.894,-0.894,-0.894,-0.894,-0.894,-0.894,-0.894,-0.894,-0.894,-0.894,-0.894,-0.894,-0.894,-0.894,-0.894,-0.894,-0.8957,-0.91,-0.93,-0.9507,0.0,0.0,0.0,0.0,0.0,0.0,0.0,0.0,0.0,0.0,0.0,0.0,0.0,0.0,0.0,0.0,0.0,0.0,0.0,-1.0624,-1.0362,-0.9706,-0.9686,-0.9412,-0.8824,-0.8804,-0.8804,-0.8804,-0.8804,-0.8945,-0.9157,-0.9512,-0.9793,-1.0067,-1.0388,-1.0591,-1.0598,-1.0618,-1.0624,-1.0624,-1.0624,0.0,0.0,0.0,0.0,0.0,0.0,0.0,0.0,0.0,0.0,0.0,0.0,0.0,-0.748,-0.7096,-0.6938,-0.6902,-0.6839,-0.6753,-0.6736,-0.6892,-0.7034,0.0,-0.7139,-0.7251,0.0,-0.7356,0.0,0.0,0.0,0.0,0.0,0.0,0.0,-0.7963,-0.8404,0.0,-0.8431,-0.8869,-0.893,-0.894,-0.894,-0.894,-0.894,-0.894,-0.894,-0.894,-0.894,-0.894,-0.894,-0.894,-0.894,-0.894,-0.894,-0.894,-0.894,-0.894,-0.894,-0.894,-0.894,-0.894,-0.894,-0.894,-0.894,-0.894,-0.894,-0.894,-0.894,-0.894,-0.894,-0.894,-0.8957,-0.91,-0.9167,-0.9205,0.0,0.0,0.0,0.0,0.0,0.0,0.0,0.0,0.0,0.0,0.0,0.0,0.0,0.0,0.0,0.0,0.0,0.0,0.0,-1.0388,-1.0107,-0.9699,-0.9506,-0.9218,-0.8818,-0.8804,-0.8804,-0.8804,-0.8804,-0.8958,-0.919,-0.9546,-0.984,-1.0127,-1.0428,-1.0624,-1.0624,-1.0624,-1.0624,-1.0624,-1.0624,-1.0624,0.0,0.0,0.0,0.0,0.0,0.0,0.0,0.0,-0.9085,-0.8623,-0.8012,-0.771,-0.748,-0.7326,-0.7096,-0.688,-0.6865,-0.6753,-0.6715,-0.6773,-0.7037,0.0,0.0,-0.7329,-0.7397,-0.7495,-0.7672,0.0,0.0,0.0,0.0,0.0,-0.8072,-0.8187,-0.8445,-0.8516,-0.8642,-0.8906,-0.894,-0.894,-0.894,-0.894,-0.894,-0.894,-0.894,-0.894,-0.894,-0.894,-0.894,-0.894,-0.894,-0.894,-0.894,-0.894,-0.894,-0.894,-0.894,-0.894,-0.894,-0.894,-0.894,-0.894,-0.894,-0.894,-0.894,-0.894,-0.894,-0.894,-0.894,-0.894,-0.8947,-0.8998,-0.9076,-0.9161,0.0,0.0,0.0,0.0,0.0,0.0,0.0,0.0,0.0,0.0,0.0,0.0,0.0,0.0,0.0,0.0,0.0,0.0,-1.0624,-1.0281,-0.9987,-0.9699,-0.9399,-0.905,-0.8811,-0.8804,-0.8804,-0.8804,-0.8898,-0.9092,-0.9385,-0.9679,-0.998,-1.0267,-1.053,-1.0624,-1.0624,-1.0624,-1.0624,-1.0624,-1.0624,-1.0624,0.0,0.0,0.0,0.0,0.0,0.0,0.0,0.0,-0.8546,-0.8246,-0.7638,-0.7484,-0.7484,-0.7407,-0.7173,-0.6861,-0.6788,-0.6791,-0.6702,0.0,0.0,0.0,-0.7434,-0.7478,-0.7539,-0.7645,-0.7784,0.0,0.0,0.0,0.0,0.0,-0.817,-0.8319,-0.8462,-0.8615,-0.8767,-0.892,-0.894,-0.894,-0.894,-0.894,-0.894,-0.894,-0.894,-0.894,-0.894,-0.894,-0.894,-0.894,-0.894,-0.894,-0.894,-0.894,-0.894,-0.894,-0.894,-0.894,-0.894,-0.894,-0.894,-0.894,-0.894,-0.894,-0.894,-0.894,-0.894,-0.894,-0.894,-0.894,-0.894,-0.894,-0.9001,-0.9086,0.0,0.0,0.0,0.0,0.0,0.0,0.0,0.0,0.0,0.0,0.0,0.0,0.0,0.0,0.0,0.0,0.0,0.0,-1.0624,-1.0281,-0.998,-0.9699,-0.9392,-0.9044,-0.8811,-0.8804,-0.8804,-0.8804,-0.9044,-0.9392,-0.9693,-0.998,-1.0274,-1.0561,-1.0624,-1.0624,-1.0624,-1.0624,-1.0624,-1.0624,-1.0624,-1.0624,-1.0624,0.0,0.0,0.0,0.0,0.0,0.0,0.0,-0.8169,-0.7484,-0.7484,-0.7484,-0.7484,-0.7257,-0.7022,-0.6865,-0.6637,-0.6631,-0.6702,0.0,0.0,0.0,-0.7563,-0.7709,-0.7811,-0.7814,0.0,-0.8038,-0.8038,0.0,0.0,-0.8038,-0.817,-0.8319,-0.8462,-0.8615,-0.8767,-0.892,-0.894,-0.894,-0.894,-0.894,-0.894,-0.894,-0.894,-0.894,-0.894,-0.894,-0.894,-0.894,-0.894,-0.894,-0.894,-0.894,-0.894,-0.894,-0.894,-0.894,-0.894,-0.894,-0.894,-0.894,-0.894,-0.894,-0.894,-0.894,-0.894,-0.8937,-0.8937,-0.8937,-0.894,-0.894,-0.894,-0.894,0.0,0.0,0.0,0.0,0.0,0.0,0.0,0.0,0.0,0.0,0.0,0.0,0.0,0.0,0.0,0.0,0.0,0.0,-1.0624,-0.971,-0.916,-0.9078,-0.8571,-0.8224,-0.815,-0.8586,-0.8804,-0.8804,-0.9044,-0.9104,-0.8915,-0.9734,-1.0021,-0.9843,-1.0364,-1.0624,-1.0624,-1.0624,-1.0624,-1.0624,-1.0624,-1.0681,-1.0797,0.0,0.0,0.0,0.0,0.0,0.0,0.0,0.0,0.0,-0.7334,-0.7257,-0.7257,-0.7022,-0.6868,-0.6714,-0.6637,-0.6631,0.0,0.0,0.0,0.0,0.0,-0.7709,0.0,0.0,-0.8007,-0.8038,-0.8038,-0.8038,0.0,-0.8038,-0.817,-0.8319,-0.8462,-0.8615,-0.8767,-0.892,-0.894,-0.894,-0.894,-0.894,-0.894,-0.894,-0.894,-0.894,-0.894,-0.894,-0.894,-0.894,-0.894,-0.894,-0.894,-0.894,-0.894,-0.894,-0.894,-0.894,-0.894,-0.894,-0.894,-0.894,-0.894,-0.894,-0.8937,-0.9805,-1.0131,-1.0241,-1.1004,-1.0895,-1.0131,-1.0131,-0.9588,-0.894,0.0,0.0,0.0,0.0,0.0,0.0,0.0,0.0,0.0,0.0,0.0,0.0,0.0,0.0,0.0,0.0,0.0,0.0,0.0,-0.9628,-0.9086,-0.8978,-0.8494,-0.8256,-0.8256,-0.8639,-0.8864,-0.8978,-0.8987,-0.8864,-0.8616,-0.948,-0.975,-0.9518,-1.0301,-1.0624,-1.0624,-1.0624,-1.0428,-1.018,-1.0232,-1.0242,-1.0068,0.0,0.0,0.0,0.0,0.0,0.0,0.0,0.0,0.0,-0.7334,-0.7257,-0.718,-0.6942,-0.6791,-0.6563,-0.6486,0.0,0.0,0.0,0.0,0.0,0.0,0.0,0.0,0.0,0.0,-0.8038,-0.8038,-0.8038,0.0,-0.8038,-0.817,-0.8299,-0.8387,-0.8577,-0.8743,-0.8835,-0.8903,-0.894,-0.894,-0.894,-0.894,-0.894,-0.894,-0.894,-0.894,-0.894,-0.894,-0.894,-0.894,-0.894,-0.894,-0.9372,-0.9588,-0.9588,-1.0025,-1.0245,-1.0245,-0.9375,-0.894,-0.8937,-0.9372,-0.9588,-0.9699,-1.0895,-1.1105,-1.0781,-1.1433,-1.1,-1.0025,-1.0025,-0.9482,-0.894,0.0,0.0,0.0,0.0,0.0,0.0,0.0,0.0,0.0,0.0,0.0,0.0,0.0,0.0,0.0,0.0,0.0,0.0,0.0,-0.9781,-0.9489,-0.9141,-0.885,-0.8752,-0.8804,-0.8804,-0.8945,-0.9183,-0.8889,-0.8681,-0.8658,-0.9283,-0.9582,-0.9518,-1.0301,-1.0624,-1.0624,-1.0561,-1.0117,-0.9514,-0.9628,-0.9349,-0.8874,-0.8938,0.0,0.0,0.0,0.0,0.0,0.0,0.0,0.0,-0.7484,-0.7334,-0.718,-0.6942,-0.6714,-0.6567,-0.6352,0.0,0.0,0.0,0.0,0.0,0.0,0.0,0.0,0.0,0.0,-0.8038,-0.8038,-0.8038,-0.8038,-0.8038,-0.8157,-0.8255,-0.8269,-0.8503,-0.8676,-0.8686,-0.8825,-0.8916,-0.8916,-0.893,-0.894,-0.894,-0.894,-0.894,-0.894,-0.894,-0.894,-0.894,-0.9047,-0.9044,-0.9044,-1.0241,-1.0891,-1.0891,-1.1873,-1.2417,-1.2309,-1.0135,-0.9265,-0.9265,-1.0351,-1.0891,-1.0891,-1.2087,-1.1982,-1.1,-1.1105,-1.046,-0.9375,-0.9265,-0.9154,-0.9047,0.0,0.0,0.0,0.0,0.0,0.0,0.0,0.0,0.0,0.0,0.0,0.0,0.0,0.0,0.0,0.0,0.0,0.0,0.0,-0.9413,-0.8895,-0.8565,-0.8292,-0.8309,-0.8804,-0.8804,-0.8945,-0.9183,-0.9361,-0.9322,-0.8986,-0.9944,-1.004,-0.9518,-1.0301,-1.0624,-1.0561,-0.9977,-0.9709,-0.9712,-0.9237,-0.914,-0.9262,-0.8665,-0.8527,0.0,0.0,0.0,0.0,0.0,0.0,0.0,-0.7334,-0.7257,-0.7103,-0.6791,-0.6641,-0.6588,0.0,0.0,0.0,0.0,0.0,0.0,0.0,0.0,0.0,-0.8038,-0.8038,-0.8038,-0.8038,-0.8038,-0.8038,-0.8038,-0.8069,-0.8133,-0.8252,-0.8326,-0.8408,-0.8516,-0.8665,-0.876,-0.876,-0.8869,-0.894,-0.894,-0.894,-0.894,-0.894,-0.894,-0.894,-0.894,-0.9805,-1.0347,-1.0347,-1.1437,-1.1982,-1.2091,-1.2309,-1.2417,-1.2413,-1.1873,-1.1655,-1.1655,-1.1873,-1.1982,-1.2091,-1.329,-1.3619,-1.3511,-1.4476,-1.4046,-1.297,-1.1987,-1.1114,-1.0131,0.0,0.0,0.0,0.0,0.0,0.0,0.0,0.0,0.0,0.0,0.0,0.0,0.0,0.0,0.0,0.0,0.0,0.0,0.0,0.0,-0.8583,-0.8597,-0.8444,-0.8474,-0.8804,-0.8945,-0.9158,-0.9452,-0.9746,-0.9601,-0.9132,-0.9781,-0.9843,-0.9518,-1.0301,-1.0428,-1.0047,-0.9792,-0.9526,-0.9338,-0.8752,-0.8694,-0.89,-0.8202,-0.8005,-0.8093,-0.7633,0.0,0.0,0.0,0.0,0.0,0.0,0.0,-0.7184,-0.6949,-0.6718,-0.6595,0.0,0.0,0.0,0.0,0.0,0.0,0.0,0.0,0.0,-0.8038,-0.8038,-0.8038,-0.8038,-0.8038,-0.8038,-0.8038,-0.8038,-0.8069,-0.8147,-0.8225,-0.8299,-0.8374,-0.8513,-0.8601,-0.8601,-0.874,-0.8828,-0.8828,-0.8896,-0.9154,-0.9699,-0.9805,-1.0025,-1.057,-1.1219,-1.1542,-1.1542,-1.2635,-1.329,-1.329,-1.383,-1.4046,-1.404,-1.296,-1.2417,-1.2413,-1.296,-1.329,-1.3398,-1.4487,-1.4708,-1.4277,-1.4815,-1.4374,-1.329,-1.2635,-1.1978,-1.1328,0.0,0.0,0.0,0.0,0.0,0.0,0.0,0.0,0.0,0.0,0.0,0.0,0.0,0.0,0.0,0.0,0.0,0.0,0.0,0.0,0.0,-0.8765,-0.8804,-0.8831,-0.8878,-0.9064,-0.9412,-0.976,-1.0,-0.9836,-0.9389,-0.9611,-0.9716,-0.9716,-1.0364,-1.0231,-0.967,-0.9814,-0.9545,-0.9073,-0.8667,-0.8484,-0.8379,-0.788,-0.7633,-0.7484,-0.7484,-0.7484,-0.7484,-0.7484,0.0,0.0,0.0,0.0,-0.7261,-0.7184,-0.6949,-0.6673,0.0,0.0,0.0,0.0,0.0,0.0,0.0,0.0,0.0,-0.8038,-0.8038,-0.8038,-0.8038,-0.8038,-0.8038,-0.8038,-0.8038,-0.8038,-0.8038,-0.815,-0.8231,-0.8231,-0.8564,-0.8755,-0.8755,-0.8895,-0.899,-0.899,-0.9135,-0.9658,-1.0631,-1.0874,-1.1437,-1.2417,-1.2635,-1.2743,-1.2743,-1.3943,-1.4487,-1.4493,-1.5458,-1.5891,-1.5785,-1.3932,-1.2955,-1.3068,-1.4051,-1.4487,-1.46,-1.5458,-1.5351,-1.4487,-1.4487,-1.3835,-1.296,-1.2743,-1.2743,-1.2526,0.0,0.0,0.0,0.0,0.0,0.0,0.0,0.0,0.0,0.0,0.0,0.0,0.0,0.0,0.0,0.0,0.0,0.0,0.0,0.0,0.0,-0.8752,-0.8804,-0.8925,-0.9117,-0.9163,-0.9455,-1.006,-1.01,-1.0186,-1.0375,-1.0415,-1.0428,-1.0428,-1.0561,-1.0555,-1.0448,-1.0136,-0.9988,-1.0014,-0.9592,-0.9084,-0.8661,-0.8537,-0.8093,-0.7484,-0.7484,-0.7484,-0.7484,-0.7484,-0.7484,0.0,0.0,0.0,-0.7407,-0.7257,-0.7022,-0.6824,0.0,0.0,0.0,0.0,0.0,0.0,0.0,0.0,-0.8038,0.0,-0.8038,-0.8038,-0.8038,-0.8038,-0.8038,-0.8038,-0.8038,-0.8038,-0.8038,-0.8058,-0.8069,-0.8069,-0.9004,-0.9611,-0.9611,-0.9764,-0.9863,-0.9863,-1.0134,-1.0349,-1.056,-1.1567,-1.22,-1.2417,-1.3398,-1.3948,-1.3948,-1.5137,-1.5678,-1.5678,-1.5785,-1.5891,-1.5891,-1.5565,-1.5452,-1.5452,-1.5565,-1.5678,-1.5672,-1.5891,-1.5785,-1.5678,-1.5678,-1.5565,-1.5345,-1.4272,-1.3948,-1.3835,0.0,0.0,0.0,0.0,0.0,0.0,0.0,0.0,0.0,0.0,0.0,0.0,0.0,0.0,0.0,0.0,0.0,0.0,0.0,0.0,0.0,-0.8752,-0.8965,-0.9057,-0.9183,-0.9502,-0.986,-1.0114,-1.0281,-1.0434,0.0,-1.0624,-1.0624,-1.0624,-1.0624,-1.0456,-1.0295,-1.0166,-1.0297,-1.0485,-0.9506,-0.9215,-0.9296,-0.8394,-0.7787,-0.7484,-0.7484,-0.7484,-0.7484,-0.7484,-0.7484,-0.7484,-0.7484,0.0,0.0,0.0,-0.7253,0.0,0.0,0.0,0.0,0.0,0.0,0.0,0.0,0.0,-0.7936,-0.8021,-0.8038,-0.8038,-0.8038,-0.8038,-0.8038,-0.8038,-0.8038,-0.8038,-0.8038,-0.8038,-0.8233,-0.8821,-0.9383,-0.9925,-1.0518,-1.0694,-1.0804,-1.0804,-1.0984,-1.1408,-1.204,-1.2765,-1.3524,-1.4172,-1.4843,-1.5137,-1.5137,-1.5672,-1.5891,-1.5891,-1.5891,-1.5891,-1.5891,-1.5891,-1.5891,-1.5891,-1.5891,-1.5891,-1.5891,-1.5891,-1.5891,-1.5891,-1.5891,-1.5891,-1.5891,-1.5351,-1.5137,-1.5024,0.0,0.0,0.0,0.0,0.0,0.0,0.0,0.0,0.0,0.0,0.0,0.0,0.0,0.0,0.0,0.0,0.0,0.0,0.0,0.0,0.0,-0.8864,-0.8971,-0.9154,-0.9402,-0.9715,-0.9964,-1.0227,-1.0454,0.0,-1.0624,-1.0624,-1.0624,0.0,-1.0624,-1.0458,-1.0274,0.0,0.0,0.0,-0.9952,-0.9599,-0.9518,-0.8461,-0.7863,-0.7484,-0.7484,-0.7484,-0.7484,-0.7484,-0.7484,-0.7484,-0.7484,-0.7484,0.0,0.0,0.0,0.0,0.0,0.0,0.0,0.0,0.0,0.0,0.0,0.0,-0.7855,0.0,-0.8038,-0.8038,-0.8038,-0.8038,-0.8038,-0.8038,-0.8038,-0.8038,-0.8038,-0.8233,-0.8726,-0.9509,-1.0096,-1.0681,-1.1463,-1.1712,-1.1705,-1.1705,-1.1894,-1.2317,-1.325,-1.3887,-1.455,-1.5396,-1.5656,-1.5795,-1.5795,-1.5855,-1.5891,-1.5891,-1.5891,-1.5891,-1.5891,-1.5891,-1.5891,-1.5891,-1.5891,-1.5891,-1.5891,-1.5891,-1.5891,-1.5891,-1.5891,-1.5891,-1.5891,-1.5891,-1.5891,-1.5785,0.0,0.0,0.0,0.0,0.0,0.0,0.0,0.0,0.0,0.0,0.0,0.0,-0.8628,-0.7942,-0.7734,-0.8347,-0.7115,-0.6495,-0.7085,-0.7897,-0.8589,-0.9163,-0.88,0.0,-1.0,-0.948,-0.9624,-1.0598,0.0,0.0,-1.0624,-1.0624,-1.0624,-1.0624,-1.0624,-1.0722,-1.0943,0.0,0.0,0.0,0.0,-1.0801,-0.8851,-0.9518,-0.8841,-0.7484,-0.7484,-0.7484,-0.7484,-0.7484,-0.7484,-0.7484,-0.7484,-0.7484,-0.7484,0.0,0.0,0.0,0.0,0.0,0.0,0.0,0.0,0.0,0.0,0.0,0.0,-0.8007,-0.8038,-0.8038,-0.8038,-0.8038,-0.8038,-0.8038,-0.8038,-0.8038,-0.8038,-0.892,-0.9509,-0.9608,-1.1365,-1.2533,-1.263,-1.264,-1.2651,-1.2651,-1.2865,-1.3093,-1.3098,-1.4358,-1.5023,-1.5125,-1.5384,-1.5517,-1.5517,-1.5765,-1.5891,-1.5891,-1.5891,-1.5891,-1.5891,-1.5891,-1.5891,-1.5891,-1.5891,-1.5891,-1.5891,-1.5891,-1.5891,-1.5891,-1.5891,-1.5891,-1.5891,-1.5891,-1.5891,-1.5891,0.0,0.0,0.0,0.0,0.0,0.0,0.0,0.0,0.0,0.0,0.0,0.0,0.0,-0.8727,-0.8429,-0.8082,-0.7807,-0.775,-0.8142,-0.882,-0.9348,-0.9526,-0.9564,-0.97,-1.0114,-1.0053,-1.026,-1.0624,-1.0624,-1.0624,-1.0624,-1.0624,-1.0661,-1.0835,-1.0835,-1.1002,-1.1289,-1.1583,0.0,0.0,0.0,0.0,0.0,0.0,0.0,0.0,0.0,0.0,-0.8169,-0.7638,-0.7484,-0.7484,-0.7484,-0.7484,-0.7504,-0.7626,0.0,0.0,0.0,0.0,0.0,0.0,0.0,0.0,0.0,-0.7567,-0.7716,-0.7862,-0.797,-0.8038,-0.8038,-0.8038,-0.8038,-0.8038,-0.8038,-0.8237,-0.8924,-0.9312,-1.0096,-1.1463,-1.2242,-1.2926,-1.3709,-1.3709,-1.3709,-1.3709,-1.379,-1.3842,-1.3842,-1.4505,-1.4859,-1.4859,-1.5113,-1.5246,-1.5246,-1.5342,-1.539,-1.539,-1.539,-1.5475,-1.5638,-1.5638,-1.5728,-1.5891,-1.5891,-1.5891,-1.5891,-1.5891,-1.5891,-1.5891,-1.5891,-1.5891,-1.5891,-1.5891,-1.5891,-1.5891,0.0,0.0,0.0,0.0,0.0,0.0,0.0,0.0,0.0,-0.8774,0.0,0.0,0.0,0.0,-0.8688,-0.7982,-0.8353,-0.8706,-0.8878,-0.9525,-0.9951,-0.9951,-0.9925,-1.0008,-1.0261,-1.0174,-1.0266,-1.0624,-1.0461,-1.0461,-1.0624,-1.0624,-1.0715,-1.0995,-1.1096,-1.1303,0.0,0.0,0.0,-1.1855,0.0,0.0,-1.0657,0.0,0.0,0.0,0.0,0.0,0.0,-0.8093,-0.7756,-0.7577,-0.7577,-0.7614,-0.7683,0.0,0.0,0.0,-0.8122,0.0,0.0,0.0,0.0,0.0,0.0,0.0,-0.767,-0.777,-0.7892,-0.8076,-0.8421,-0.8531,-0.8432,-0.8038,-0.8333,-0.8825,-0.9509,-0.9899,-1.0779,-1.2533,-1.3022,-1.3516,-1.4202,-1.4298,-1.4298,-1.4298,-1.4298,-1.4298,-1.4298,-1.4473,-1.4618,-1.4714,-1.4883,-1.5022,-1.5107,-1.5107,-1.5107,-1.5107,-1.5107,-1.5197,-1.5366,-1.5366,-1.5511,-1.5759,-1.5759,-1.5807,-1.5891,-1.5891,-1.5891,-1.5891,-1.5891,-1.5891,-1.5891,-1.5891,-1.5891,-1.5891,0.0,0.0,0.0,0.0,0.0,0.0,0.0,0.0,-0.9176,-0.9183,0.0,0.0,0.0,0.0,0.0,-0.8075,-0.8733,-0.9143,-0.9149,-0.996,-1.0437,-1.0437,-0.9825,-0.9843,-1.0561,-0.9649,-0.9643,-1.0624,-1.0274,-1.0274,-1.0624,-1.0631,-1.0728,-1.1015,-1.1309,-1.1603,-1.1884,0.0,-1.161,-1.1186,0.0,-1.1397,-1.0045,0.0,0.0,0.0,-0.9976,-0.9463,0.0,-0.8794,0.0,0.0,0.0,0.0,0.0,0.0,0.0,0.0,0.0,0.0,0.0,0.0,0.0,0.0,-0.7423,0.0,-0.7721,-0.774,-0.7804,-0.824,-0.9371,-0.9604,-0.9312,-0.8233,-0.892,-0.9706,-0.9706,-1.0583,-1.1658,-1.263,-1.3709,-1.4298,-1.4298,-1.4298,-1.4298,-1.4298,-1.4298,-1.4298,-1.4298,-1.4298,-1.4425,-1.4696,-1.4702,-1.4829,-1.5083,-1.5083,-1.5083,-1.5083,-1.5083,-1.5089,-1.5095,-1.5095,-1.524,-1.5487,-1.5493,-1.5644,-1.5879,-1.5885,-1.5891,-1.5891,-1.5891,-1.5891,-1.5891,-1.5891,-1.5891,-1.5891,0.0,0.0,0.0,0.0,0.0,-0.9153,-0.9051,-0.9032,-0.9106,0.0,0.0,0.0,-0.9633,-0.9552,-0.955,-0.9721,-0.9807,-0.9953,-1.017,-1.0388,-1.0566,-1.0566,-1.0382,-1.0364,-1.0624,-1.0349,-1.0349,-1.0624,-1.0481,-1.0481,-1.0624,-1.0775,-1.1029,-1.1316,-1.1617,-1.1904,-1.2184,-1.2184,0.0,-1.2003,-1.2224,-1.2003,0.0,0.0,0.0,0.0,0.0,-1.1045,-1.0971,0.0,-0.9657,-0.8824,0.0,0.0,0.0,0.0,0.0,0.0,-0.8491,0.0,0.0,0.0,0.0,0.0,0.0,0.0,-0.7485,-0.7475,-0.8317,-0.9064,-0.9401,-1.0775,-1.1463,-1.0489,-1.0587,-1.0974,-1.1755,-1.2145,-1.2635,-1.3709,-1.41,-1.4298,-1.4298,-1.4298,-1.4298,-1.4298,-1.4298,-1.4298,-1.4298,-1.4298,-1.4334,-1.4413,-1.4413,-1.4449,-1.4521,-1.4521,-1.4521,-1.4521,-1.4521,-1.463,-1.4823,-1.4823,-1.4968,-1.5228,-1.5421,-1.5541,-1.5626,-1.5813,-1.5891,-1.5891,-1.5891,-1.5891,-1.5891,-1.5891,-1.5891,-1.5891,0.0,0.0,0.0,0.0,0.0,-0.895,-0.8965,-0.9092,-0.9248,0.0,0.0,0.0,-1.012,-1.0265,-1.0416,-1.0656,-1.067,-1.0678,-1.0856,-1.087,-1.087,-1.0814,-1.0744,-1.0681,-1.0624,-1.0441,-1.0434,-1.0624,-1.0624,-1.0685,-1.0748,-1.1035,-1.1329,-1.1617,0.0,0.0,0.0,0.0,0.0,0.0,-1.2305,0.0,0.0,-1.2438,-1.2592,0.0,0.0,0.0,-1.1902,-1.149,-1.0751,0.0,0.0,0.0,0.0,0.0,0.0,0.0,0.0,0.0,0.0,0.0,0.0,0.0,-0.8372,-0.8271,-0.8274,-0.817,-0.8702,-0.9537,-1.0446,-1.1627,-1.2518,-1.2522,-1.2538,-1.2538,-1.2635,-1.2727,-1.3119,-1.4196,-1.4298,-1.4298,-1.4298,-1.4298,-1.4298,-1.4298,-1.4298,-1.4298,-1.4298,-1.4298,-1.4298,-1.4298,-1.4298,-1.4298,-1.4298,-1.4298,-1.4298,-1.4298,-1.4298,-1.4383,-1.4539,-1.4539,-1.469,-1.4956,-1.5221,-1.5396,-1.5517,-1.5783,-1.5891,-1.5891,-1.5891,-1.5891,-1.5891,-1.5891,-1.5891,-1.5891,0.0,0.0,-0.8851,-0.8851,-0.8878,-0.9045,-0.9245,-0.9459,-0.9673,0.0,-1.0161,-1.0411,-1.0678,-1.0767,-1.0933,-1.1122,-1.1247,-1.1303,-1.1303,-1.124,-1.1199,-1.1108,-1.0918,-1.0805,-1.0719,-1.0401,-1.0394,-1.0719,-1.0719,-1.0788,-1.1049,-1.1343,-1.1617,-1.187,0.0,0.0,0.0,0.0,0.0,-1.2305,-1.2305,-1.2318,0.0,0.0,-1.2869,-1.2879,-1.316,-1.2788,-1.2234,-1.2073,-1.1647,0.0,0.0,0.0,0.0,0.0,-1.0722,0.0,0.0,0.0,0.0,0.0,-1.1047,0.0,-0.9666,-0.9579,-0.963,-0.9285,-0.9337,-1.009,-1.1941,-1.2438,-1.2925,-1.4118,-1.428,-1.4004,-1.3022,-1.2926,-1.3221,-1.4202,-1.4298,-1.4298,-1.4298,-1.4298,-1.4298,-1.4298,-1.4298,-1.4298,-1.4298,-1.4298,-1.4298,-1.4298,-1.4298,-1.4298,-1.4298,-1.4298,-1.4298,-1.4298,-1.4298,-1.4298,-1.4298,-1.4298,-1.4431,-1.469,-1.498,-1.524,-1.5481,-1.5771,-1.5891,-1.5891,-1.5891,-1.5891,-1.5891,-1.5891,-1.5891,-1.5891,0.0,0.0,-0.9103,-0.9103,-0.9513,-0.9804,-0.9751,-0.9873,-1.0041,-1.0292,-1.0669,-1.0967,-1.1141,-1.1205,-1.124,-1.124,-1.1185,-1.1122,-1.1122,-1.0996,-1.0973,-1.1149,-1.1032,-1.1015,-1.1249,-1.1202,-1.1196,-1.1256,-1.1256,-1.1283,-1.1349,-1.1643,-1.1817,-1.1877,-1.2118,0.0,0.0,0.0,0.0,-1.2305,-1.2305,-1.2445,-1.2741,-1.2802,-1.3046,-1.3474,-1.3534,-1.3625,-1.3567,-1.2806,-1.2493,-1.2202,0.0,0.0,0.0,-1.1241,0.0,0.0,0.0,0.0,0.0,0.0,-1.1139,0.0,-1.0697,-1.0524,-1.0366,-1.0323,-1.1092,-1.1876,-1.2333,-1.3146,-1.3918,-1.416,-1.4254,-1.4202,-1.4004,-1.4004,-1.41,-1.4298,-1.4298,-1.4298,-1.4298,-1.4298,-1.4298,-1.4298,-1.4298,-1.4298,-1.4298,-1.4298,-1.4298,-1.4298,-1.4298,-1.4298,-1.4298,-1.4298,-1.4298,-1.4298,-1.4298,-1.4298,-1.4298,-1.4298,-1.4328,-1.4407,-1.4896,-1.5137,-1.5221,-1.5692,-1.5891,-1.5891,-1.5891,-1.5891,-1.5891,-1.5891,-1.5891,-1.5891,0.0,-0.9527,-0.9685,-0.9685,-0.9859,-1.0075,-1.0227,-1.0307,-1.0478,-1.0786,-1.1023,-1.124,-1.1435,-1.1509,-1.161,-1.1667,-1.1754,-1.1782,-1.1782,-1.1579,-1.1518,-1.1604,-1.141,-1.1344,-1.1423,-1.1423,-1.1423,-1.1423,-1.1577,-1.165,-1.1657,-1.1944,-1.2084,-1.2091,-1.2238,-1.2305,0.0,0.0,-1.2385,-1.2525,-1.2525,0.0,-1.2856,-1.308,-1.338,-1.3579,-1.3808,-1.3961,-1.4004,-1.3568,-1.3398,0.0,-1.2875,-1.2357,-1.21,0.0,-1.2357,-1.21,0.0,0.0,0.0,-1.2705,-1.2613,0.0,0.0,-1.174,-1.1655,-1.1483,-1.202,-1.2499,-1.2985,-1.3693,-1.421,-1.4161,-1.4413,-1.449,-1.4298,-1.4298,-1.4298,-1.4298,-1.4298,-1.4298,-1.4298,-1.4298,-1.4298,-1.4298,-1.4298,-1.4298,-1.4298,-1.4298,-1.4298,-1.4298,-1.4298,-1.4298,-1.4298,-1.4298,-1.4298,-1.4298,-1.4298,-1.4298,-1.4298,-1.4298,-1.4298,-1.4328,-1.4871,-1.5107,-1.5149,-1.5674,-1.5891,-1.5891,-1.5891,-1.5891,-1.5891,-1.5891,-1.5891,-1.5891,-0.9874,0.0,-1.0175,-1.0175,-1.0158,-1.0283,-1.0646,-1.0742,-1.0916,-1.1353,-1.1346,-1.1416,-1.1736,-1.179,-1.1869,-1.2058,-1.2298,-1.2451,-1.2383,-1.218,-1.2065,-1.1991,-1.1854,-1.1675,-1.1597,-1.159,-1.159,-1.159,-1.183,-1.1951,-1.1957,-1.2191,-1.2305,-1.2305,-1.2305,-1.2305,0.0,0.0,0.0,-1.2835,0.0,-1.2919,-1.2973,-1.346,-1.3632,-1.3854,-1.4148,-1.4215,-1.4168,-1.4168,-1.4135,-1.4088,-1.4088,-1.3568,0.0,0.0,0.0,0.0,0.0,0.0,0.0,0.0,-1.4088,-1.3913,0.0,0.0,0.0,-1.279,-1.2705,0.0,0.0,0.0,0.0,-1.4172,0.0,0.0,-1.422,-1.4262,-1.4298,-1.4298,-1.4298,-1.4298,-1.4298,-1.4298,-1.4298,-1.4298,-1.4298,-1.4298,-1.4298,-1.4298,-1.4298,-1.4298,-1.4298,-1.4298,-1.4298,-1.4298,-1.4298,-1.4298,-1.4298,-1.4298,-1.4298,-1.4298,-1.4298,-1.4322,-1.4817,-1.5065,-1.5143,-1.562,-1.5843,-1.5891,-1.5891,-1.5891,-1.5891,-1.5891,-1.5891,-1.5891,-0.9845,-0.9952,-1.0127,-1.0127,-1.0588,-1.0968,-1.1066,-1.1128,-1.1367,-1.1682,-1.1482,-1.1581,-1.235,-1.2123,0.0,0.0,-1.2226,-1.2173,-1.1969,-1.184,-1.1888,-1.2086,-1.1959,-1.2009,-1.2198,-1.2204,-1.2204,-1.2204,-1.2238,-1.2251,-1.2258,-1.2285,-1.2305,-1.2305,-1.2305,0.0,0.0,0.0,-1.2795,0.0,-1.3327,-1.354,0.0,-1.3621,-1.3968,-1.4456,-1.4756,-1.4696,-1.4469,-1.4469,-1.4302,-1.4088,0.0,-1.4004,-1.3997,-1.4088,0.0,0.0,0.0,0.0,0.0,-1.4088,-1.4088,-1.4088,-1.4004,0.0,-1.3913,-1.3913,0.0,-1.3926,-1.4044,0.0,0.0,-1.39,-1.4079,-1.4135,-1.3948,-1.4153,-1.4298,-1.4298,-1.4298,-1.4298,-1.4298,-1.4298,-1.4298,-1.4298,-1.4298,-1.4298,-1.4298,-1.4298,-1.4298,-1.4298,-1.4298,-1.4298,-1.4298,-1.4298,-1.4298,-1.4298,-1.4298,-1.4298,-1.4298,-1.4298,-1.4298,-1.4316,-1.463,-1.4896,-1.5131,-1.5421,-1.568,-1.5891,-1.5891,-1.5891,-1.5891,-1.5891,-1.5891,-1.5891,-1.054,-1.0656,0.0,-1.0925,-1.11,-1.1247,-1.1373,-1.1587,-1.1826,-1.2144,-1.2065,-1.2153,0.0,0.0,0.0,0.0,0.0,-1.2941,0.0,0.0,-1.2642,-1.2697,-1.2487,-1.2324,-1.2445,-1.2378,-1.2305,-1.2305,-1.2305,-1.2305,-1.2305,-1.2305,-1.2305,-1.2305,-1.2305,0.0,-1.2565,0.0,-1.2946,0.0,0.0,-1.3748,0.0,-1.3901,-1.4162,-1.4563,-1.4856,-1.4883,-1.4776,-1.4776,-1.4583,-1.4342,-1.4342,-1.4222,0.0,-1.4088,0.0,0.0,0.0,0.0,-1.4088,-1.4088,-1.4088,-1.4088,-1.4088,-1.4088,-1.4088,-1.4088,0.0,0.0,0.0,0.0,0.0,0.0,-1.4231,-1.4368,-1.4074,-1.419,-1.4218,-1.428,-1.4298,-1.4298,-1.4298,-1.4298,-1.4298,-1.4298,-1.4298,-1.4298,-1.4298,-1.4298,-1.4298,-1.4298,-1.4298,-1.4298,-1.4298,-1.4298,-1.4298,-1.4298,-1.4298,-1.4298,-1.4298,-1.4298,-1.4298,-1.431,-1.4594,-1.4865,-1.5125,-1.539,-1.565,-1.5891,-1.5891,-1.5891,-1.5891,-1.5891,-1.5891,-1.5891,-1.1059,0.0,0.0,0.0,-1.1445,-1.1531,-1.1809,-1.2021,-1.2284,-1.2614,-1.2577,0.0,-1.2767,-1.2921,0.0,0.0,-1.3288,-1.3346,0.0,0.0,-1.3046,-1.2973,-1.2753,-1.2599,-1.2526,-1.2378,-1.2305,-1.2305,-1.2305,-1.2305,-1.2305,-1.2305,-1.2345,-1.2425,0.0,-1.2592,-1.2879,0.0,-1.3247,-1.3654,-1.3734,-1.3941,-1.4215,-1.4295,-1.4509,-1.4796,-1.5097,-1.515,-1.5084,-1.5084,-1.4883,-1.4643,-1.4643,-1.4442,-1.4208,0.0,0.0,0.0,-1.4088,-1.4088,-1.4088,-1.4088,-1.4088,-1.4088,-1.4088,-1.4088,-1.4088,-1.4088,-1.4088,0.0,0.0,0.0,-1.4309,-1.4043,0.0,-1.4366,-1.4116,-1.4124,-1.4204,-1.4256,-1.4298,-1.4298,-1.4298,-1.4298,-1.4298,-1.4298,-1.4298,-1.4298,-1.4298,-1.4298,-1.4298,-1.4298,-1.4298,-1.4298,-1.4298,-1.4298,-1.4298,-1.4298,-1.4298,-1.4298,-1.4298,-1.4298,-1.4298,-1.431,-1.4515,-1.4751,-1.5022,-1.5282,-1.5547,-1.5789,-1.5861,-1.5891,-1.5891,-1.5891,-1.5891,-1.5891,-1.1059,-1.1122,0.0,0.0,0.0,-1.1934,-1.2371,-1.2497,0.0,0.0,0.0,0.0,0.0,0.0,0.0,0.0,0.0,-1.3046,-1.2673,0.0,-1.2746,-1.2378,-1.2526,-1.2526,0.0,-1.2305,-1.2305,-1.2305,-1.2305,-1.2305,-1.2305,-1.2305,-1.2458,-1.2808,-1.2808,-1.2906,-1.3213,-1.3494,-1.3546,-1.3667,-1.3955,-1.4249,-1.4536,-1.483,-1.5117,-1.5404,-1.5698,-1.5618,-1.5384,-1.5384,-1.519,-1.495,-1.495,-1.4743,-1.4502,-1.4502,-1.4309,-1.4088,-1.4088,-1.4088,-1.4088,-1.4088,-1.4088,-1.4088,-1.4088,-1.4088,-1.4088,-1.4088,-1.4088,-1.4088,-1.4088,-1.4095,-1.4017,-1.375,-1.3898,0.0,0.0,-1.3906,-1.4001,-1.4238,-1.4298,-1.4298,-1.4298,-1.4298,-1.4298,-1.4298,-1.4298,-1.4298,-1.4298,-1.4298,-1.4298,-1.4298,-1.4298,-1.4298,-1.4298,-1.4298,-1.4298,-1.4298,-1.4298,-1.4298,-1.4298,-1.4298,-1.4298,-1.4298,-1.4304,-1.4473,-1.4751,-1.501,-1.5276,-1.5535,-1.5795,-1.5891,-1.5891,-1.5891,-1.5891,-1.5891,0.0,0.0,0.0,0.0,0.0,0.0,0.0,-1.284,0.0,0.0,-1.3236,0.0,0.0,-1.4228,-1.4362,0.0,0.0,-1.4334,-1.3425,-1.3237,0.0,-1.2969,-1.2702,-1.2599,0.0,0.0,-1.2305,-1.2305,-1.2305,-1.2405,-1.2592,-1.2592,-1.2759,-1.3053,-1.3053,-1.322,0.0,0.0,0.0,0.0,0.0,-1.4669,-1.511,-1.5211,-1.5311,-1.5438,-1.5725,-1.5765,-1.5678,-1.5678,-1.5491,-1.5251,-1.5251,-1.505,-1.481,-1.481,-1.4743,-1.4669,-1.4669,-1.4669,-1.4669,-1.4669,-1.4669,-1.4669,-1.4669,-1.4669,-1.4669,-1.4669,-1.4669,-1.4669,-1.4669,-1.4669,-1.4603,-1.4316,-1.4282,-1.4254,0.0,-1.4059,-1.411,-1.4184,-1.4285,0.0,-1.4298,-1.4298,-1.4298,-1.4298,-1.4298,-1.4298,-1.4298,-1.4298,-1.4298,-1.4298,-1.4298,-1.4298,-1.4298,-1.4298,-1.4298,-1.4298,-1.4298,-1.4298,-1.4298,-1.4298,-1.4298,-1.4298,-1.4298,-1.4455,-1.4727,-1.4811,-1.5107,-1.5511,-1.5596,-1.5734,-1.5891,-1.5891,-1.5891,-1.5891,-1.2841,0.0,0.0,0.0,0.0,0.0,0.0,0.0,0.0,0.0,-1.4026,0.0,-1.4836,0.0,-1.5192,0.0,-1.5127,-1.4964,-1.3731,-1.4231,0.0,-1.3746,-1.3657,0.0,0.0,0.0,0.0,-1.2458,-1.2859,-1.3016,-1.2913,-1.3292,-1.3379,-1.3367,-1.3367,-1.3527,-1.3801,-1.3801,-1.3968,0.0,0.0,-1.5057,-1.5404,-1.5511,-1.5551,-1.5571,-1.5758,-1.5832,-1.5832,-1.5832,-1.5705,-1.5551,-1.5551,-1.5351,-1.5117,-1.5117,-1.5044,-1.4963,-1.4963,-1.4963,-1.4963,-1.4963,-1.4963,-1.4963,-1.4963,-1.4963,-1.4963,-1.4963,-1.4963,-1.4963,-1.4963,-1.4963,-1.4903,-1.471,-1.4676,-1.4588,0.0,-1.4302,-1.4345,-1.4334,-1.4339,0.0,0.0,-1.4394,-1.4298,-1.44,-1.4394,-1.4298,-1.4298,-1.4298,-1.4298,-1.4298,-1.4298,-1.4298,-1.4298,-1.4298,-1.4298,-1.4298,-1.4298,-1.4298,-1.4298,-1.4298,-1.4298,-1.4298,-1.4298,-1.4401,-1.4576,-1.4672,-1.4974,-1.5366,-1.5463,-1.5656,-1.5891,-1.5891,-1.5891,-1.5891,-1.3475,0.0,0.0,0.0,-1.2826,0.0,0.0,0.0,-1.3775,0.0,-1.5016,-1.561,-1.6362,-1.6071,-1.5758,-1.5559,-1.5697,-1.5235,-1.3773,-1.5613,0.0,0.0,-1.5189,-1.5083,-1.4208,0.0,0.0,0.0,-1.3903,-1.3988,-1.3233,-1.4073,-1.4237,-1.3661,-1.3661,0.0,-1.4166,-1.4088,-1.4262,-1.4596,-1.5164,-1.5404,-1.5444,-1.5725,-1.5832,-1.5832,-1.5832,-1.5832,-1.5832,-1.5832,-1.5832,-1.5832,-1.5832,-1.5645,-1.5418,-1.5418,-1.5224,-1.501,-1.501,-1.501,-1.501,-1.501,-1.501,-1.501,-1.501,-1.501,-1.501,-1.501,-1.501,-1.501,-1.501,-1.501,-1.5003,-1.499,-1.4977,-1.4867,-1.4687,-1.4591,-1.4605,-1.4699,-1.4458,0.0,0.0,-1.449,-1.449,-1.4688,-1.4496,-1.4298,-1.4298,-1.4298,-1.4298,-1.4298,-1.4298,-1.4298,-1.4298,-1.4298,-1.4298,-1.4298,-1.4298,-1.4298,-1.4298,-1.4298,-1.4298,-1.4298,-1.4298,-1.4298,-1.4316,-1.4588,-1.4853,-1.5113,-1.5378,-1.565,-1.5891,-1.5891,-1.5891,-1.5891,-1.3006,-1.3359,-1.3539,0.0,-1.3795,-1.4229,0.0,0.0,0.0,0.0,-1.5675,-1.6377,-1.7157,-1.7687,-1.7786,-1.7196,-1.7777,0.0,0.0,0.0,0.0,-1.611,-1.5996,-1.5734,-1.537,-1.4689,-1.4227,-1.4079,0.0,-1.3552,-1.3534,-1.4394,-1.4881,-1.4946,-1.4946,-1.4989,-1.4985,-1.4328,-1.4382,-1.4883,-1.5251,-1.5524,-1.5725,-1.5798,-1.5832,-1.5832,-1.5832,-1.5832,-1.5832,-1.5832,-1.5832,-1.5832,-1.5832,-1.5778,-1.5718,-1.5718,-1.5665,-1.5605,-1.5605,-1.5605,-1.5605,-1.5605,-1.5605,-1.5605,-1.5605,-1.5605,-1.5605,-1.5605,-1.5605,-1.5605,-1.5605,-1.5605,-1.5538,-1.5317,-1.5104,-1.4963,-1.4867,-1.4874,0.0,-1.4883,-1.483,-1.4852,-1.4956,-1.4981,-1.4885,-1.4987,-1.479,-1.4688,-1.4885,-1.4694,-1.4688,-1.4885,-1.4885,-1.4885,-1.4885,-1.4885,-1.4885,-1.4885,-1.4885,-1.4885,-1.4885,-1.4885,-1.4885,-1.4885,-1.4885,-1.479,-1.4598,-1.4672,-1.4765,-1.4841,-1.5107,-1.5487,-1.5891,-1.5891,-1.5891,-1.5891,-1.4537,0.0,0.0,-1.5401,0.0,0.0,-1.4832,-1.5122,0.0,-1.6294,-1.7003,0.0,-1.8715,-1.9109,-1.9127,-1.8845,-1.9308,0.0,-1.7971,0.0,0.0,-1.7688,-1.756,-1.7209,-1.6586,-1.6044,0.0,-1.5271,0.0,-1.5182,-1.496,-1.584,-1.594,-1.5394,0.0,-1.5151,-1.4838,-1.4613,-1.4736,-1.5268,-1.5927,-1.6334,0.0,-1.6487,-1.6487,-1.6393,-1.592,-1.5832,-1.5832,-1.5832,-1.5832,-1.5832,-1.5832,-1.5832,-1.5832,-1.5832,-1.5832,-1.5832,-1.5832,-1.5832,-1.5832,-1.5832,-1.5832,-1.5832,-1.5832,-1.5832,-1.5832,-1.5832,-1.5832,-1.5832,-1.5832,-1.5832,-1.5772,-1.5611,-1.5344,-1.5197,-1.5324,0.0,0.0,0.0,-1.5391,-1.5363,-1.5439,-1.5178,-1.5178,-1.5267,-1.5077,-1.4981,-1.5083,-1.4987,-1.4981,-1.5083,-1.5083,-1.5083,-1.5083,-1.5083,-1.5083,-1.5083,-1.5083,-1.5083,-1.5083,-1.5083,-1.5083,-1.5083,-1.5083,-1.4987,-1.4688,-1.4688,-1.4661,-1.4751,-1.5131,-1.5457,-1.5734,-1.5849,-1.5891,-1.5891,-1.6533,0.0,0.0,0.0,0.0,0.0,0.0,-1.6045,-1.6902,-1.7857,0.0,-1.9495,-2.0605,-2.0415,-2.0191,-2.0438,-2.0568,-2.0232,-1.9025,-2.04,-2.0606,-1.9256,-1.9399,-1.9027,-1.7926,-1.7673,-1.7254,0.0,-1.7435,-1.7432,-1.6698,-1.7594,-1.718,-1.5718,0.0,0.0,0.0,-1.5163,-1.5486,-1.5872,-1.7008,-1.7512,-1.7512,-1.7512,-1.7419,-1.7239,-1.6298,-1.5927,-1.5832,-1.5832,-1.5832,-1.5832,-1.5832,-1.5832,-1.5832,-1.5832,-1.5832,-1.5832,-1.5832,-1.5832,-1.5832,-1.5832,-1.5832,-1.5832,-1.5832,-1.5832,-1.5832,-1.5832,-1.5832,-1.5832,-1.5832,-1.5832,-1.5832,-1.5832,-1.5618,-1.5538,-1.5792,0.0,0.0,0.0,-1.5832,0.0,-1.5832,-1.5458,-1.5267,-1.5547,-1.5267,-1.5178,-1.5178,-1.5178,-1.5178,-1.5178,-1.5178,-1.5178,-1.5178,-1.5178,-1.5178,-1.5178,-1.5178,-1.5178,-1.5178,-1.5178,-1.5178,-1.5178,-1.5178,-1.4981,-1.479,-1.479,-1.4764,-1.4763,-1.5215,-1.5439,-1.5523,-1.5753,-1.5861,-1.5891,-1.5675,0.0,0.0,0.0,0.0,-1.7486,-1.7585,-1.7574,-1.792,-1.8971,-1.9771,-2.0683,-2.1562,-2.1637,-2.154,-2.1607,-2.1451,0.0,0.0,0.0,0.0,-2.0485,-2.0495,-2.0191,-1.948,-1.8801,-1.8147,-1.7734,-1.7155,-1.6862,-1.6698,-1.7594,-1.7836,-1.7513,0.0,0.0,-1.6722,-1.7062,-1.7424,-1.7846,-1.8378,-1.8519,-1.8519,-1.8519,-1.8056,-1.7232,-1.7138,-1.6487,-1.5832,-1.5832,-1.5832,-1.5832,-1.5832,-1.5832,-1.5832,-1.5832,-1.5832,-1.5832,-1.5832,-1.5832,-1.5832,-1.5832,-1.5832,-1.5832,-1.5832,-1.5832,-1.5832,-1.5832,-1.5832,-1.5832,-1.5832,-1.5832,-1.5832,-1.5832,-1.5785,-1.5772,-1.5818,0.0,0.0,0.0,0.0,-1.5832,-1.5832,-1.5737,-1.5737,-1.573,-1.5547,-1.5547,-1.5642,-1.5547,-1.5547,-1.5642,-1.5642,-1.5642,-1.5642,-1.5642,-1.5642,-1.5642,-1.5642,-1.5642,-1.5642,-1.5642,-1.5642,-1.5642,-1.5642,-1.5452,-1.4987,-1.4987,-1.4861,-1.4727,-1.4817,-1.5119,-1.5505,-1.5553,-1.5704,-1.5891,0.0,0.0,0.0,0.0,0.0,-1.8626,-1.9186,-1.9329,-1.9625,-2.0108,-2.0854,-2.1494,-2.2139,-2.2207,-2.2211,-2.2359,-2.2283,-2.2112,-2.2017,-2.1768,-2.1493,-2.1174,-2.0985,-2.0716,-2.0246,-1.9614,-1.9162,-1.8966,-1.8342,-1.8078,-1.8078,-1.8487,-1.8407,-1.8006,0.0,-1.7579,0.0,-1.7866,-1.8216,-1.864,-1.9265,-1.9613,-1.9521,-1.8972,-1.8788,-1.8696,-1.7037,-1.6581,-1.6487,-1.6015,-1.5832,-1.5832,-1.5832,-1.5832,-1.5832,-1.5832,-1.5832,-1.5832,-1.5832,-1.5832,-1.5832,-1.5832,-1.5832,-1.5832,-1.5832,-1.5832,-1.5832,-1.5832,-1.5832,-1.5832,-1.5832,-1.5832,-1.5832,-1.5832,-1.5832,-1.5832,-1.5832,-1.5832,-1.5832,0.0,0.0,0.0,-1.5832,-1.5832,-1.5832,-1.5832,-1.573,-1.573,-1.5825,-1.573,-1.573,-1.5832,-1.5832,-1.5832,-1.5832,-1.5832,-1.5832,-1.5832,-1.5832,-1.5832,-1.5832,-1.5832,-1.5832,-1.5832,-1.5832,-1.5547,-1.5083,-1.479,-1.4576,-1.4515,-1.466,-1.4871,-1.5125,-1.5396,-1.5578,-1.5704,0.0,-1.8797,0.0,0.0,-1.9325,-1.9837,-2.0397,-2.0809,-2.1159,-2.124,-2.1714,-2.2178,-2.2512,-2.2561,-2.2611,-2.2687,-2.2715,-2.253,-2.2353,-2.2097,-2.1859,-2.1525,-2.1332,-2.1053,-2.0649,-2.0338,-2.0136,-2.0053,-1.9641,-1.9439,-1.943,-1.9347,-1.894,-1.8386,-1.8087,-1.8115,-1.8398,-1.8764,-1.9101,-1.953,-2.0257,-2.0619,-2.0529,-1.9704,-1.9795,-1.9977,-1.7584,-1.7131,-1.7505,-1.6669,-1.6292,-1.6109,-1.6109,-1.6292,-1.6386,-1.592,-1.592,-1.6109,-1.5832,-1.5832,-1.5832,-1.5832,-1.5832,-1.5832,-1.5832,-1.5832,-1.5832,-1.5832,-1.5832,-1.5832,-1.5832,-1.5832,-1.5832,-1.5832,-1.5832,-1.5832,-1.5832,-1.5832,-1.5832,0.0,0.0,0.0,-1.5832,-1.5832,-1.5832,-1.5832,-1.5832,-1.5832,-1.5832,-1.5832,-1.5832,-1.5832,-1.5832,-1.5832,-1.5832,-1.5832,-1.5832,-1.5832,-1.5832,-1.5832,-1.5832,-1.5832,-1.5832,-1.5832,-1.5832,-1.5547,-1.5083,-1.4592,-1.4394,-1.4322,-1.4539,-1.4666,-1.4775,-1.524,-1.5451,-1.5535,0.0,0.0,0.0,-1.9534,-2.0177,-2.0865,-2.1059,-2.1428,-2.1883,-2.2308,-2.2432,-2.2532,-2.2785,-2.2746,-2.2668,-2.2432,-2.2264,-2.2185,-2.2097,-2.1919,-2.1722,-2.1676,-2.1676,-2.1484,-2.1062,-2.1016,-2.0824,-2.0466,-2.0063,-1.987,-1.9861,-1.9476,-1.9423,-1.9725,-2.0023,-2.0422,-2.0784,-2.082,-2.1083,-2.1463,-2.1553,-2.1553,-2.1553,-2.1454,-2.0997,-2.0249,-1.9977,-1.9338,-1.8611,-1.8511,-1.787,-1.7145,-1.7145,-1.7785,-1.8141,-1.6292,-1.6487,-1.6958,-1.6015,-1.5832,-1.5832,-1.5832,-1.5832,-1.5832,-1.5832,-1.5832,-1.5832,-1.5832,-1.5832,-1.5832,-1.5832,-1.5832,-1.5832,-1.5832,-1.5832,-1.5832,-1.5832,-1.5832,-1.5832,-1.5832,0.0,0.0,-1.5832,-1.5832,-1.5832,-1.5832,-1.5832,-1.5832,-1.5832,-1.5832,-1.5832,-1.5832,-1.5832,-1.5832,-1.5832,-1.5832,-1.5832,-1.5832,-1.5832,-1.5832,-1.5832,-1.5832,-1.5832,-1.5832,-1.5832,-1.5547,-1.5083,-1.479,-1.4496,-1.4298,-1.4328,-1.4491,-1.4751,-1.504,-1.5294,-1.5535,-1.9706,-1.9987,-2.0126,-2.0126,-2.055,-2.0932,-2.1344,-2.1627,-2.1921,-2.2428,-2.2457,-2.2427,-2.2511,-2.253,-2.2441,-2.2274,-2.2185,-2.2008,-2.183,-2.1741,-2.1741,-2.1741,-2.1741,-2.1658,-2.1493,-2.1236,-2.1034,-2.0869,-2.0475,-2.0283,-2.0283,-2.0108,-2.0118,-2.0301,-2.0695,-2.0961,-2.1126,-2.1383,-2.1585,-2.1741,-2.1741,-2.1741,-2.1642,-2.1087,-2.0997,-2.0997,-1.9795,-1.9521,-1.9704,-1.9704,-1.9063,-1.8241,-1.8241,-1.8519,-1.8603,-1.787,-1.7505,-1.7239,-1.677,-1.6298,-1.5832,-1.5832,-1.5832,-1.5832,-1.5832,-1.5832,-1.5832,-1.5832,-1.5832,-1.5832,-1.5832,-1.5832,-1.5832,-1.5832,-1.5832,-1.5832,-1.5832,-1.5832,-1.5832,-1.5832,0.0,-1.5832,0.0,-1.5832,-1.5832,-1.5832,-1.5832,-1.5832,-1.5832,-1.5832,-1.5832,-1.5832,-1.5832,-1.5832,-1.5832,-1.5832,-1.5832,-1.5832,-1.5832,-1.5832,-1.5832,-1.5832,-1.5832,-1.5825,-1.5635,-1.5547,-1.5261,-1.4879,-1.4592,-1.449,-1.4394,-1.4364,-1.4497,-1.4775,-1.504,-1.53,-2.0411,-2.0613,-2.0695,-2.0695,-2.0957,-2.1304,-2.1603,-2.1832,-2.2032,-2.2227,-2.2264,-2.2264,-2.2264,-2.2353,-2.2176,-2.2008,-2.2008,-2.1919,-2.1731,-2.1741,-2.1741,-2.1741,-2.1741,-2.1741,-2.1741,-2.1447,-2.1291,-2.1291,-2.0888,-2.0695,-2.0695,-2.0695,-2.0695,-2.0714,-2.1108,-2.1291,-2.131,-2.1612,-2.1741,-2.1741,-2.1741,-2.1741,-2.1642,-2.0997,-2.1087,-2.1553,-2.0175,-2.0076,-2.0709,-2.0709,-2.0257,-1.9621,-1.9338,-1.943,-1.953,-1.8972,-1.8519,-1.8149,-1.7785,-1.7225,-1.6662,-1.6662,-1.6662,-1.6567,-1.6298,-1.6204,-1.6204,-1.5832,-1.5832,-1.5832,-1.5832,-1.5832,-1.5832,-1.5832,-1.5832,-1.5832,-1.5832,-1.5832,-1.5832,-1.5832,-1.5832,-1.5832,-1.5832,-1.5832,-1.5832,-1.5832,-1.5832,-1.5832,-1.5832,-1.5832,-1.5832,-1.5832,-1.5832,-1.5832,-1.5832,-1.5832,-1.5832,-1.5832,-1.5832,-1.5832,-1.5832,-1.5832,-1.5832,-1.5825,-1.5635,-1.554,-1.5356,-1.4975,-1.4688,-1.4592,-1.4394,-1.4298,-1.4334,-1.4612,-1.4883,-1.5149,-2.0521,-2.0833,-2.1099,-2.1099,-2.1623,-2.2087,-2.2087,-2.2087,-2.2097,-2.2097,-2.183,-2.183,-2.2097,-2.2097,-2.2008,-2.1741,-2.1741,-2.1741,-2.1741,-2.1741,-2.1741,-2.1741,-2.1741,-2.1741,-2.1741,-2.1731,-2.1731,-2.1731,-2.131,-2.1099,-2.1099,-2.1099,-2.1099,-2.1117,-2.1539,-2.1731,-2.1731,-2.1741,-2.1741,-2.1741,-2.1741,-2.1741,-2.1741,-2.1651,-2.1731,-2.1741,-2.1642,-2.1642,-2.1651,-2.1651,-2.1642,-2.1463,-2.0529,-2.0907,-2.1275,-1.9347,-1.9521,-2.0068,-1.9063,-1.8788,-1.8788,-1.8788,-1.8788,-1.8519,-1.7512,-1.7232,-1.6951,-1.6015,-1.5832,-1.5832,-1.5832,-1.5832,-1.5832,-1.5832,-1.5832,-1.5832,-1.5832,-1.5832,-1.5832,-1.5832,-1.5832,-1.5832,-1.5832,-1.5832,-1.5832,-1.5832,-1.5832,-1.5832,-1.5832,-1.5832,-1.5832,-1.5832,-1.5832,-1.5832,-1.5832,-1.5832,-1.5832,-1.5832,-1.5832,-1.5832,-1.5832,-1.5832,-1.5832,-1.5832,-1.5832,-1.5547,-1.5083,-1.5083,-1.479,-1.4298,-1.4298,-1.4298,-1.4334,-1.4612,-1.4883,-1.5149,-2.1291,-2.1447,-2.1539,-2.1539,-2.1649,-2.183,-2.183,-2.183,-2.183,-2.183,-2.1731,-2.1731,-2.183,-2.183,-2.182,-2.1741,-2.1741,-2.1741,-2.1741,-2.1741,-2.1741,-2.1741,-2.1741,-2.1741,-2.1741,-2.1741,-2.1741,-2.1741,-2.1603,-2.1539,-2.1539,-2.1539,-2.1539,-2.1539,-2.1676,-2.1741,-2.1741,-2.1741,-2.1741,-2.1741,-2.1741,-2.1741,-2.1741,-2.1741,-2.1741,-2.1741,-2.1741,-2.1741,-2.1741,-2.1741,-2.1741,-2.1642,-2.1365,-2.1454,-2.1553,-2.0997,-2.0529,-2.0249,-1.9886,-1.9338,-1.8788,-1.8788,-1.8788,-1.8703,-1.8427,-1.7785,-1.7044,-1.6015,-1.5832,-1.5832,-1.5832,-1.5832,-1.5832,-1.5832,-1.5832,-1.5832,-1.5832,-1.5832,-1.5832,-1.5832,-1.5832,-1.5832,-1.5832,-1.5832,-1.5832,-1.5832,-1.5832,-1.5832,-1.5832,-1.5832,-1.5832,-1.5832,-1.5832,-1.5832,-1.5832,-1.5832,-1.5832,-1.5832,-1.5832,-1.5832,-1.5832,-1.5832,-1.5832,-1.5825,-1.5642,-1.554,-1.5356,-1.4981,-1.4688,-1.4592,-1.4394,-1.4298,-1.4304,-1.4395,-1.4721,-1.5119,-2.1686,-2.1741,-2.1741,-2.1741,-2.1741,-2.1741,-2.1741,-2.1741,-2.1741,-2.1741,-2.1741,-2.1741,-2.1741,-2.1741,-2.1741,-2.1741,-2.1741,-2.1741,-2.1741,-2.1741,-2.1741,-2.1741,-2.1741,-2.1741,-2.1741,-2.1741,-2.1741,-2.1741,-2.1741,-2.1741,-2.1741,-2.1741,-2.1741,-2.1741,-2.1741,-2.1741,-2.1741,-2.1741,-2.1741,-2.1741,-2.1741,-2.1741,-2.1741,-2.1741,-2.1741,-2.1741,-2.1741,-2.1741,-2.1741,-2.1741,-2.1741,-2.1741,-2.1741,-2.1741,-2.1741,-2.1741,-2.1275,-2.0808,-2.0808,-2.0357,-1.9894,-1.9894,-1.9894,-1.9803,-1.943,-1.8334,-1.7138,-1.648,-1.6015,-1.5832,-1.5832,-1.5832,-1.5832,-1.5832,-1.5832,-1.5832,-1.5832,-1.5832,-1.5832,-1.5832,-1.5832,-1.5832,-1.5832,-1.5832,-1.5832,-1.5832,-1.5832,-1.5832,-1.5832,-1.5832,-1.5832,-1.5832,-1.5832,-1.5832,-1.5832,-1.5832,-1.5832,-1.5832,-1.5832,-1.5832,-1.5832,-1.5832,-1.5832,-1.5825,-1.5635,-1.5452,-1.5356,-1.4879,-1.4688,-1.4496,-1.4394,-1.4298,-1.4298,-1.4298,-1.4642,-1.5107,-2.1741,-2.1741,-2.1741,-2.1741,-2.1741,-2.1741,-2.1741,-2.1741,-2.1741,-2.1741,-2.1741,-2.1741,-2.1741,-2.1741,-2.1741,-2.1741,-2.1741,-2.1741,-2.1741,-2.1741,-2.1741,-2.1741,-2.1741,-2.1741,-2.1741,-2.1741,-2.1741,-2.1741,-2.1741,-2.1741,-2.1741,-2.1741,-2.1741,-2.1741,-2.1741,-2.1741,-2.1741,-2.1741,-2.1741,-2.1741,-2.1741,-2.1741,-2.1741,-2.1741,-2.1741,-2.1741,-2.1741,-2.1741,-2.1741,-2.1741,-2.1741,-2.1741,-2.1741,-2.1741,-2.1741,-2.1741,-2.1741,-2.1741,-2.1741,-2.1741,-2.1741,-2.1741,-2.1741,-2.1463,-2.0529,-1.888,-1.7512,-1.7326,-1.6581,-1.5927,-1.5825,-1.5832,-1.5832,-1.5832,-1.5832,-1.5832,-1.5832,-1.5832,-1.5832,-1.5832,-1.5832,-1.5832,-1.5832,-1.5832,-1.5832,-1.5832,-1.5832,-1.5832,-1.5832,-1.5832,-1.5832,-1.5832,-1.5832,-1.5832,-1.5832,-1.5832,-1.5832,-1.5832,-1.5832,-1.5832,-1.5832,-1.5832,-1.5832,-1.5825,-1.554,-1.5356,-1.5083,-1.479,-1.4496,-1.4298,-1.4298,-1.4298,-1.4298,-1.4298,-1.4642,-1.5107,-2.1741,-2.1741,-2.1741,-2.1741,-2.1741,-2.1741,-2.1741,-2.1741,-2.1741,-2.1741,-2.1741,-2.1741,-2.1741,-2.1741,-2.1741,-2.1741,-2.1741,-2.1741,-2.1741,-2.1741,-2.1741,-2.1741,-2.1741,-2.1741,-2.1741,-2.1741,-2.1741,-2.1741,-2.1741,-2.1741,-2.1741,-2.1741,-2.1741,-2.1741,-2.1741,-2.1741,-2.1741,-2.1741,-2.1741,-2.1741,-2.1741,-2.1741,-2.1741,-2.1741,-2.1741,-2.1741,-2.1741,-2.1741,-2.1741,-2.1741,-2.1741,-2.1741,-2.1741,-2.1741,-2.1741,-2.1741,-2.1741,-2.1741,-2.1741,-2.1741,-2.1741,-2.1741,-2.1741,-2.1463,-2.0529,-1.9886,-1.9155,-1.7598,-1.7145,-1.6676,-1.592,-1.5832,-1.5832,-1.5832,-1.5832,-1.5832,-1.5832,-1.5832,-1.5832,-1.5832,-1.5832,-1.5832,-1.5832,-1.5832,-1.5832,-1.5832,-1.5832,-1.5832,-1.5832,-1.5832,-1.5832,-1.5832,-1.5832,-1.5832,-1.5832,-1.5832,-1.5832,-1.5832,-1.5832,-1.5832,-1.5832,-1.5832,-1.5832,-1.5737,-1.5363,-1.5178,-1.5083,-1.4592,-1.4394,-1.4298,-1.4298,-1.4298,-1.4298,-1.4298,-1.4642,-1.5107,-2.1741,-2.1741,-2.1741,-2.1741,-2.1741,-2.1741,-2.1741,-2.1741,-2.1741,-2.1741,-2.1741,-2.1741,-2.1741,-2.1741,-2.1741,-2.1741,-2.1741,-2.1741,-2.1741,-2.1741,-2.1741,-2.1741,-2.1741,-2.1741,-2.1741,-2.1741,-2.1741,-2.1741,-2.1741,-2.1741,-2.1741,-2.1741,-2.1741,-2.1741,-2.1741,-2.1741,-2.1741,-2.1741,-2.1741,-2.1741,-2.1741,-2.1741,-2.1741,-2.1741,-2.1741,-2.1741,-2.1741,-2.1741,-2.1741,-2.1741,-2.1741,-2.1741,-2.1741,-2.1741,-2.1741,-2.1741,-2.1741,-2.1741,-2.1741,-2.1741,-2.1741,-2.1741,-2.1741,-2.1553,-2.1087,-2.0257,-1.9338,-1.8241,-1.7225,-1.6487,-1.592,-1.5832,-1.5832,-1.5832,-1.5832,-1.5832,-1.5832,-1.5832,-1.5832,-1.5832,-1.5832,-1.5832,-1.5832,-1.5832,-1.5832,-1.5832,-1.5832,-1.5832,-1.5832,-1.5832,-1.5832,-1.5832,-1.5832,-1.5832,-1.5832,-1.5832,-1.5832,-1.5832,-1.5832,-1.5832,-1.5832,-1.5832,-1.5737,-1.5642,-1.5267,-1.4987,-1.4885,-1.4496,-1.4298,-1.4298,-1.4298,-1.4298,-1.4298,-1.4298,-1.4642,-1.5107,-2.1741,-2.1741,-2.1741,-2.1741,-2.1741,-2.1741,-2.1741,-2.1741,-2.1741,-2.1741,-2.1741,-2.1741,-2.1741,-2.1741,-2.1741,-2.1741,-2.1741,-2.1741,-2.1741,-2.1741,-2.1741,-2.1741,-2.1741,-2.1741,-2.1741,-2.1741,-2.1741,-2.1741,-2.1741,-2.1741,-2.1741,-2.1741,-2.1741,-2.1741,-2.1741,-2.1741,-2.1741,-2.1741,-2.1741,-2.1741,-2.1741,-2.1741,-2.1741,-2.1741,-2.1741,-2.1741,-2.1741,-2.1741,-2.1741,-2.1741,-2.1741,-2.1741,-2.1741,-2.1741,-2.1741,-2.1741,-2.1741,-2.1741,-2.1741,-2.1741,-2.1741,-2.1741,-2.1741,-2.1741,-2.1741,-2.0357,-1.8972,-1.8796,-1.7311,-1.6015,-1.5832,-1.5832,-1.5832,-1.5832,-1.5832,-1.5832,-1.5832,-1.5832,-1.5832,-1.5832,-1.5832,-1.5832,-1.5832,-1.5832,-1.5832,-1.5832,-1.5832,-1.5832,-1.5832,-1.5832,-1.5832,-1.5832,-1.5832,-1.5832,-1.5832,-1.5832,-1.5832,-1.5832,-1.5832,-1.5832,-1.5832,-1.5737,-1.5642,-1.5445,-1.5172,-1.4885,-1.4694,-1.4394,-1.4298,-1.4298,-1.4298,-1.4298,-1.4304,-1.4346,-1.4678,-1.5113,-2.1741,-2.1741,-2.1741,-2.1741,-2.1741,-2.1741,-2.1741,-2.1741,-2.1741,-2.1741,-2.1741,-2.1741,-2.1741,-2.1741,-2.1741,-2.1741,-2.1741,-2.1741,-2.1741,-2.1741,-2.1741,-2.1741,-2.1741,-2.1741,-2.1741,-2.1741,-2.1741,-2.1741,-2.1741,-2.1741,-2.1741,-2.1741,-2.1741,-2.1741,-2.1741,-2.1741,-2.1741,-2.1741,-2.1741,-2.1741,-2.1741,-2.1741,-2.1741,-2.1741,-2.1741,-2.1741,-2.1741,-2.1741,-2.1741,-2.1741,-2.1741,-2.1741,-2.1741,-2.1741,-2.1741,-2.1741,-2.1741,-2.1741,-2.1741,-2.1741,-2.1741,-2.1741,-2.1741,-2.1741,-2.1741,-2.0808,-1.9795,-1.8972,-1.787,-1.677,-1.592,-1.5832,-1.5832,-1.5832,-1.5832,-1.5832,-1.5832,-1.5832,-1.5832,-1.5832,-1.5832,-1.5832,-1.5832,-1.5832,-1.5832,-1.5832,-1.5832,-1.5832,-1.5832,-1.5832,-1.5832,-1.5832,-1.5832,-1.5832,-1.5832,-1.5832,-1.5832,-1.5832,-1.5832,-1.5832,-1.5825,-1.5635,-1.554,-1.5445,-1.4975,-1.479,-1.4694,-1.4394,-1.4298,-1.4298,-1.4298,-1.4298,-1.4328,-1.4564,-1.4841,-1.5143,-2.1741,-2.1741,-2.1741,-2.1741,-2.1741,-2.1741,-2.1741,-2.1741,-2.1741,-2.1741,-2.1741,-2.1741,-2.1741,-2.1741,-2.1741,-2.1741,-2.1741,-2.1741,-2.1741,-2.1741,-2.1741,-2.1741,-2.1741,-2.1741,-2.1741,-2.1741,-2.1741,-2.1741,-2.1741,-2.1741,-2.1741,-2.1741,-2.1741,-2.1741,-2.1741,-2.1741,-2.1741,-2.1741,-2.1741,-2.1741,-2.1741,-2.1741,-2.1741,-2.1741,-2.1741,-2.1741,-2.1741,-2.1741,-2.1741,-2.1741,-2.1741,-2.1741,-2.1741,-2.1741,-2.1741,-2.1741,-2.1741,-2.1741,-2.1741,-2.1741,-2.1741,-2.1741,-2.1741,-2.1741,-2.1741,-2.0538,-1.9338,-1.8888,-1.7591,-1.6393,-1.5927,-1.5832,-1.5832,-1.5832,-1.5832,-1.5832,-1.5832,-1.5832,-1.5832,-1.5832,-1.5832,-1.5832,-1.5832,-1.5832,-1.5832,-1.5832,-1.5832,-1.5832,-1.5832,-1.5832,-1.5832,-1.5832,-1.5832,-1.5832,-1.5832,-1.5832,-1.5832,-1.5832,-1.5832,-1.573,-1.5635,-1.554,-1.535,-1.507,-1.4783,-1.4592,-1.4496,-1.4394,-1.4298,-1.4298,-1.4298,-1.4298,-1.4334,-1.4612,-1.4883,-1.5149,-2.1741,-2.1741,-2.1741,-2.1741,-2.1741,-2.1741,-2.1741,-2.1741,-2.1741,-2.1741,-2.1741,-2.1741,-2.1741,-2.1741,-2.1741,-2.1741,-2.1741,-2.1741,-2.1741,-2.1741,-2.1741,-2.1741,-2.1741,-2.1741,-2.1741,-2.1741,-2.1741,-2.1741,-2.1741,-2.1741,-2.1741,-2.1741,-2.1741,-2.1741,-2.1741,-2.1741,-2.1741,-2.1741,-2.1741,-2.1741,-2.1741,-2.1741,-2.1741,-2.1741,-2.1741,-2.1741,-2.1741,-2.1741,-2.1741,-2.1741,-2.1741,-2.1741,-2.1741,-2.1741,-2.1741,-2.1741,-2.1741,-2.1741,-2.1741,-2.1553,-2.1463,-2.1642,-2.1365,-2.1087,-2.1365,-1.9894,-1.8427,-1.8427,-1.7037,-1.5832,-1.5832,-1.5832,-1.5832,-1.5832,-1.5832,-1.5832,-1.5832,-1.5832,-1.5832,-1.5832,-1.5832,-1.5832,-1.5832,-1.5832,-1.5832,-1.5832,-1.5832,-1.5832,-1.5832,-1.5832,-1.5737,-1.573,-1.5737,-1.5832,-1.5832,-1.5832,-1.5737,-1.573,-1.573,-1.5642,-1.5356,-1.535,-1.5064,-1.4688,-1.4592,-1.449,-1.4298,-1.4298,-1.4298,-1.4298,-1.4298,-1.4334,-1.4431,-1.4702,-1.4974,-1.5234,-2.1741,-2.1741,-2.1741,-2.1741,-2.1741,-2.1741,-2.1741,-2.1741,-2.1741,-2.1741,-2.1741,-2.1741,-2.1741,-2.1741,-2.1741,-2.1741,-2.1741,-2.1741,-2.1741,-2.1741,-2.1741,-2.1741,-2.1741,-2.1741,-2.1741,-2.1741,-2.1741,-2.1741,-2.1741,-2.1741,-2.1741,-2.1741,-2.1741,-2.1741,-2.1741,-2.1741,-2.1741,-2.1741,-2.1741,-2.1741,-2.1741,-2.1741,-2.1741,-2.1741,-2.1741,-2.1741,-2.1741,-2.1741,-2.1741,-2.1741,-2.1741,-2.1741,-2.1741,-2.1741,-2.1741,-2.1741,-2.1741,-2.1741,-2.1741,-2.1087,-2.0619,-2.1454,-2.0357,-1.9247,-2.0158,-1.888,-1.7419,-1.7419,-1.6581,-1.5832,-1.5832,-1.5832,-1.5832,-1.5832,-1.5832,-1.5832,-1.5832,-1.5832,-1.5832,-1.5832,-1.5832,-1.5832,-1.5832,-1.5832,-1.5832,-1.5832,-1.5832,-1.5832,-1.5832,-1.5832,-1.573,-1.554,-1.573,-1.5832,-1.5832,-1.5832,-1.573,-1.554,-1.554,-1.5356,-1.5083,-1.4885,-1.479,-1.4688,-1.44,-1.4298,-1.4298,-1.4298,-1.4298,-1.4298,-1.4298,-1.4455,-1.4714,-1.498,-1.5246,-1.5511,-2.1741,-2.1741,-2.1741,-2.1741,-2.1741,-2.1741,-2.1741,-2.1741,-2.1741,-2.1741,-2.1741,-2.1741,-2.1741,-2.1741,-2.1741,-2.1741,-2.1741,-2.1741,-2.1741,-2.1741,-2.1741,-2.1741,-2.1741,-2.1741,-2.1741,-2.1741,-2.1741,-2.1741,-2.1741,-2.1741,-2.1741,-2.1741,-2.1741,-2.1741,-2.1741,-2.1741,-2.1741,-2.1741,-2.1741,-2.1741,-2.1741,-2.1741,-2.1741,-2.1741,-2.1741,-2.1741,-2.1741,-2.1741,-2.1741,-2.1741,-2.1741,-2.1741,-2.1741,-2.1741,-2.1741,-2.1741,-2.1275,-2.0808,-2.0808,-2.0529,-2.0249,-1.9985,-1.9347,-1.888,-1.9247,-1.8334,-1.7326,-1.7326,-1.6487,-1.5832,-1.5832,-1.5832,-1.5832,-1.5832,-1.5832,-1.5832,-1.5832,-1.5832,-1.5832,-1.5832,-1.5832,-1.5832,-1.5832,-1.5832,-1.5832,-1.5832,-1.5832,-1.5832,-1.5832,-1.5832,-1.573,-1.554,-1.554,-1.5547,-1.5363,-1.5363,-1.5363,-1.5267,-1.5267,-1.5077,-1.4885,-1.479,-1.4592,-1.449,-1.4298,-1.4298,-1.4298,-1.4298,-1.4298,-1.4298,-1.4298,-1.4467,-1.4751,-1.501,-1.5276,-1.5535,-2.1741,-2.1741,-2.1741,-2.1741,-2.1741,-2.1741,-2.1741,-2.1741,-2.1741,-2.1741,-2.1741,-2.1741,-2.1741,-2.1741,-2.1741,-2.1741,-2.1741,-2.1741,-2.1741,-2.1741,-2.1741,-2.1741,-2.1741,-2.1741,-2.1741,-2.1741,-2.1741,-2.1741,-2.1741,-2.1741,-2.1741,-2.1741,-2.1741,-2.1741,-2.1741,-2.1741,-2.1741,-2.1741,-2.1741,-2.1741,-2.1741,-2.1741,-2.1741,-2.1741,-2.1741,-2.1741,-2.1741,-2.1741,-2.1741,-2.1741,-2.1741,-2.1741,-2.1741,-2.1463,-2.1275,-2.1275,-2.0628,-1.9795,-1.943,-1.9338,-1.9247,-1.888,-1.8334,-1.7963,-1.8241,-1.7505,-1.6864,-1.6864,-1.6298,-1.5832,-1.5832,-1.5832,-1.5832,-1.5832,-1.5832,-1.5832,-1.5832,-1.5832,-1.5832,-1.5832,-1.5832,-1.5832,-1.5832,-1.5832,-1.5832,-1.5832,-1.5832,-1.5832,-1.5832,-1.5832,-1.573,-1.554,-1.5452,-1.5267,-1.4987,-1.5083,-1.5083,-1.4981,-1.4981,-1.479,-1.4592,-1.4592,-1.4496,-1.4298,-1.4298,-1.4298,-1.4298,-1.4298,-1.4298,-1.4298,-1.4298,-1.4521,-1.4859,-1.504,-1.5324,-1.565,-2.1741,-2.1741,-2.1741,-2.1741,-2.1741,-2.1741,-2.1741,-2.1741,-2.1741,-2.1741,-2.1741,-2.1741,-2.1741,-2.1741,-2.1741,-2.1741,-2.1741,-2.1741,-2.1741,-2.1741,-2.1741,-2.1741,-2.1741,-2.1741,-2.1741,-2.1741,-2.1741,-2.1741,-2.1741,-2.1741,-2.1741,-2.1741,-2.1741,-2.1741,-2.1741,-2.1741,-2.1741,-2.1741,-2.1741,-2.1741,-2.1741,-2.1741,-2.1741,-2.1741,-2.1741,-2.1741,-2.1741,-2.1741,-2.1741,-2.1741,-2.1741,-2.1741,-2.1741,-2.1087,-2.0348,-2.0339,-1.9613,-1.8603,-1.7598,-1.7326,-1.7512,-1.8519,-1.7311,-1.6015,-1.7052,-1.6487,-1.5832,-1.5832,-1.5832,-1.5832,-1.5832,-1.5832,-1.5832,-1.5832,-1.5832,-1.5832,-1.5832,-1.5832,-1.5832,-1.5832,-1.5832,-1.5832,-1.5832,-1.5832,-1.5832,-1.5832,-1.5832,-1.5832,-1.5832,-1.5832,-1.573,-1.554,-1.5267,-1.4981,-1.4688,-1.4981,-1.4981,-1.4688,-1.4688,-1.4592,-1.4298,-1.4298,-1.4298,-1.4298,-1.4298,-1.4298,-1.4298,-1.4298,-1.4298,-1.4298,-1.4298,-1.463,-1.5107,-1.5107,-1.5439,-1.5891,-2.1741,-2.1741,-2.1741,-2.1741,-2.1741,-2.1741,-2.1741,-2.1741,-2.1741,-2.1741,-2.1741,-2.1741,-2.1741,-2.1741,-2.1741,-2.1741,-2.1741,-2.1741,-2.1741,-2.1741,-2.1741,-2.1741,-2.1741,-2.1741,-2.1741,-2.1741,-2.1741,-2.1741,-2.1741,-2.1741,-2.1741,-2.1741,-2.1741,-2.1741,-2.1741,-2.1741,-2.1741,-2.1741,-2.1741,-2.1741,-2.1741,-2.1741,-2.1741,-2.1741,-2.1741,-2.1741,-2.1741,-2.1741,-2.1741,-2.1741,-2.1741,-2.1741,-2.1741,-2.1553,-2.1177,-2.0529,-1.9613,-1.8603,-1.7598,-1.677,-1.6298,-1.6662,-1.6197,-1.5927,-1.6204,-1.6015,-1.5832,-1.5832,-1.5832,-1.5832,-1.5832,-1.5832,-1.5832,-1.5832,-1.5832,-1.5832,-1.5832,-1.5832,-1.5832,-1.5832,-1.5832,-1.5832,-1.5832,-1.5832,-1.5832,-1.5832,-1.5832,-1.573,-1.5635,-1.5635,-1.535,-1.4975,-1.4885,-1.4688,-1.4394,-1.4496,-1.4496,-1.4394,-1.4394,-1.4394,-1.4298,-1.4298,-1.4298,-1.4298,-1.4298,-1.4298,-1.4298,-1.4298,-1.4298,-1.4298,-1.4298,-1.463,-1.5107,-1.5107,-1.5439,-1.5891,-2.1741,-2.1741,-2.1741,-2.1741,-2.1741,-2.1741,-2.1741,-2.1741,-2.1741,-2.1741,-2.1741,-2.1741,-2.1741,-2.1741,-2.1741,-2.1741,-2.1741,-2.1741,-2.1741,-2.1741,-2.1741,-2.1741,-2.1741,-2.1741,-2.1741,-2.1741,-2.1741,-2.1741,-2.1741,-2.1741,-2.1741,-2.1741,-2.1741,-2.1741,-2.1741,-2.1741,-2.1741,-2.1741,-2.1741,-2.1741,-2.1741,-2.1741,-2.1741,-2.1741,-2.1741,-2.1741,-2.1741,-2.1741,-2.1741,-2.1741,-2.1741,-2.1741,-2.1741,-2.1463,-2.0997,-2.0439,-1.9338,-1.8056,-1.7512,-1.6574,-1.5832,-1.5832,-1.5832,-1.5832,-1.5832,-1.5832,-1.5832,-1.5832,-1.5832,-1.5832,-1.5832,-1.5832,-1.5832,-1.5832,-1.5832,-1.5832,-1.5832,-1.5832,-1.5832,-1.5832,-1.5832,-1.5832,-1.5832,-1.5832,-1.5737,-1.5737,-1.5635,-1.5547,-1.5356,-1.5356,-1.5166,-1.4885,-1.479,-1.4592,-1.449,-1.4394,-1.4298,-1.4298,-1.4298,-1.4298,-1.4298,-1.4298,-1.4298,-1.4298,-1.4298,-1.4298,-1.4298,-1.4298,-1.4298,-1.4298,-1.4298,-1.463,-1.5107,-1.5107,-1.5439,-1.5891,-2.1741,-2.1741,-2.1741,-2.1741,-2.1741,-2.1741,-2.1741,-2.1741,-2.1741,-2.1741,-2.1741,-2.1741,-2.1741,-2.1741,-2.1741,-2.1741,-2.1741,-2.1741,-2.1741,-2.1741,-2.1741,-2.1741,-2.1741,-2.1741,-2.1741,-2.1741,-2.1741,-2.1741,-2.1741,-2.1741,-2.1741,-2.1741,-2.1741,-2.1741,-2.1741,-2.1741,-2.1741,-2.1741,-2.1741,-2.1741,-2.1741,-2.1741,-2.1741,-2.1741,-2.1741,-2.1741,-2.1741,-2.1741,-2.1741,-2.1741,-2.1741,-2.1741,-2.1741,-2.1087,-2.0439,-2.0249,-1.888,-1.7419,-1.7232,-1.6487,-1.5832,-1.5832,-1.5832,-1.5832,-1.5832,-1.5832,-1.5832,-1.5832,-1.5832,-1.5832,-1.5832,-1.5832,-1.5832,-1.5832,-1.5832,-1.5832,-1.5832,-1.5832,-1.5832,-1.5832,-1.5832,-1.5832,-1.5832,-1.5737,-1.573,-1.554,-1.5445,-1.5356,-1.5083,-1.5083,-1.5083,-1.4987,-1.479,-1.4688,-1.4688,-1.4394,-1.4298,-1.4298,-1.4298,-1.4298,-1.4298,-1.4298,-1.4298,-1.4298,-1.4298,-1.4298,-1.4298,-1.4298,-1.4298,-1.4298,-1.4298,-1.463,-1.5107,-1.5107,-1.5439,-1.5891,-2.1741,-2.1741,-2.1741,-2.1741,-2.1741,-2.1741,-2.1741,-2.1741,-2.1741,-2.1741,-2.1741,-2.1741,-2.1741,-2.1741,-2.1741,-2.1741,-2.1741,-2.1741,-2.1741,-2.1741,-2.1741,-2.1741,-2.1741,-2.1741,-2.1741,-2.1741,-2.1741,-2.1741,-2.1741,-2.1741,-2.1741,-2.1741,-2.1741,-2.1741,-2.1741,-2.1741,-2.1741,-2.1741,-2.1741,-2.1741,-2.1741,-2.1741,-2.1741,-2.1741,-2.1741,-2.1741,-2.1741,-2.1741,-2.1741,-2.1741,-2.1741,-2.1741,-2.1741,-2.1553,-2.1087,-1.9521,-1.8788,-1.8149,-1.6574,-1.6015,-1.5832,-1.5832,-1.5832,-1.5832,-1.5832,-1.5832,-1.5832,-1.5832,-1.5832,-1.5832,-1.5832,-1.5832,-1.5832,-1.5832,-1.5832,-1.5832,-1.5832,-1.5832,-1.5832,-1.5832,-1.5832,-1.5832,-1.5832,-1.5642,-1.554,-1.554,-1.5267,-1.5077,-1.479,-1.479,-1.4688,-1.449,-1.4394,-1.4394,-1.4394,-1.4298,-1.4298,-1.4298,-1.4298,-1.4298,-1.4298,-1.4298,-1.4298,-1.4298,-1.4298,-1.4298,-1.4298,-1.4298,-1.4298,-1.4298,-1.4298,-1.463,-1.5107,-1.5107,-1.5439,-1.5891,-2.1741,-2.1741,-2.1741,-2.1741,-2.1741,-2.1741,-2.1741,-2.1741,-2.1741,-2.1741,-2.1741,-2.1741,-2.1741,-2.1741,-2.1741,-2.1741,-2.1741,-2.1741,-2.1741,-2.1741,-2.1741,-2.1741,-2.1741,-2.1741,-2.1741,-2.1741,-2.1741,-2.1741,-2.1741,-2.1741,-2.1741,-2.1741,-2.1741,-2.1741,-2.1741,-2.1741,-2.1741,-2.1741,-2.1741,-2.1741,-2.1741,-2.1741,-2.1741,-2.1741,-2.1741,-2.1741,-2.1741,-2.1741,-2.1741,-2.1741,-2.1741,-2.1741,-2.1741,-2.1365,-2.0808,-1.9795,-1.888,-1.787,-1.6763,-1.6204,-1.5832,-1.5832,-1.5832,-1.5832,-1.5832,-1.5832,-1.5832,-1.5832,-1.5832,-1.5832,-1.5832,-1.5832,-1.5832,-1.5832,-1.5832,-1.5832,-1.5832,-1.5832,-1.5832,-1.5832,-1.5737,-1.5642,-1.5458,-1.5356,-1.5261,-1.5166,-1.4981,-1.479,-1.449,-1.4496,-1.4394,-1.4298,-1.4298,-1.4298,-1.4298,-1.4298,-1.4298,-1.4298,-1.4298,-1.4298,-1.4298,-1.4298,-1.4298,-1.4298,-1.4298,-1.4298,-1.4298,-1.4298,-1.4298,-1.4298,-1.4298,-1.4552,-1.4938,-1.5065,-1.5439,-1.5891,-2.1741,-2.1741,-2.1741,-2.1741,-2.1741,-2.1741,-2.1741,-2.1741,-2.1741,-2.1741,-2.1741,-2.1741,-2.1741,-2.1741,-2.1741,-2.1741,-2.1741,-2.1741,-2.1741,-2.1741,-2.1741,-2.1741,-2.1741,-2.1741,-2.1741,-2.1741,-2.1741,-2.1741,-2.1741,-2.1741,-2.1741,-2.1741,-2.1741,-2.1741,-2.1741,-2.1741,-2.1741,-2.1741,-2.1741,-2.1741,-2.1741,-2.1741,-2.1741,-2.1741,-2.1741,-2.1741,-2.1741,-2.1741,-2.1741,-2.1741,-2.1553,-2.1454,-2.1454,-2.0808,-1.9977,-1.9795,-1.8611,-1.7239,-1.7044,-1.6393,-1.5832,-1.5832,-1.5832,-1.5832,-1.5832,-1.5832,-1.5832,-1.5832,-1.5832,-1.5832,-1.5832,-1.5832,-1.5832,-1.5832,-1.5832,-1.5832,-1.5832,-1.5737,-1.5737,-1.5737,-1.5547,-1.5356,-1.5083,-1.5083,-1.4981,-1.4694,-1.4688,-1.4496,-1.4298,-1.4298,-1.4298,-1.4298,-1.4298,-1.4298,-1.4298,-1.4298,-1.4298,-1.4298,-1.4298,-1.4298,-1.4298,-1.4298,-1.4298,-1.4298,-1.4298,-1.4298,-1.4298,-1.4298,-1.4298,-1.4298,-1.4298,-1.4467,-1.4751,-1.5065,-1.5451,-1.5831,-2.1741,-2.1741,-2.1741,-2.1741,-2.1741,-2.1741,-2.1741,-2.1741,-2.1741,-2.1741,-2.1741,-2.1741,-2.1741,-2.1741,-2.1741,-2.1741,-2.1741,-2.1741,-2.1741,-2.1741,-2.1741,-2.1741,-2.1741,-2.1741,-2.1741,-2.1741,-2.1741,-2.1741,-2.1741,-2.1741,-2.1741,-2.1741,-2.1741,-2.1741,-2.1741,-2.1741,-2.1741,-2.1741,-2.1741,-2.1741,-2.1741,-2.1741,-2.1741,-2.1741,-2.1741,-2.1741,-2.1741,-2.1741,-2.1741,-2.1741,-2.1177,-2.0529,-2.0529,-1.9795,-1.8796,-1.7971,-1.7512,-1.7145,-1.6204,-1.592,-1.5832,-1.5832,-1.5832,-1.5832,-1.5832,-1.5832,-1.5832,-1.5832,-1.5832,-1.5832,-1.5832,-1.5832,-1.5832,-1.5832,-1.5832,-1.5832,-1.5832,-1.5635,-1.554,-1.554,-1.5267,-1.5178,-1.5083,-1.4885,-1.479,-1.4688,-1.449,-1.4298,-1.4298,-1.4298,-1.4298,-1.4298,-1.4298,-1.4298,-1.4298,-1.4298,-1.4298,-1.4298,-1.4298,-1.4298,-1.4298,-1.4298,-1.4298,-1.4298,-1.4298,-1.4298,-1.4298,-1.4298,-1.4298,-1.4298,-1.4298,-1.4467,-1.4775,-1.5264,-1.5493,-1.5584,-2.1741,-2.1741,-2.1741,-2.1741,-2.1741,-2.1741,-2.1741,-2.1741,-2.1741,-2.1741,-2.1741,-2.1741,-2.1741,-2.1741,-2.1741,-2.1741,-2.1741,-2.1741,-2.1741,-2.1741,-2.1741,-2.1741,-2.1741,-2.1741,-2.1741,-2.1741,-2.1741,-2.1741,-2.1741,-2.1741,-2.1741,-2.1741,-2.1741,-2.1741,-2.1741,-2.1741,-2.1741,-2.1741,-2.1741,-2.1741,-2.1741,-2.1741,-2.1741,-2.1741,-2.1741,-2.1642,-2.1087,-2.0907,-2.0808,-2.0266,-1.9795,-1.943,-1.943,-1.8788,-1.7878,-1.7419,-1.6857,-1.6393,-1.592,-1.5832,-1.5832,-1.5832,-1.5832,-1.5832,-1.5832,-1.5832,-1.5832,-1.5832,-1.5832,-1.5832,-1.5832,-1.5832,-1.5832,-1.5832,-1.5832,-1.573,-1.5635,-1.554,-1.535,-1.5064,-1.4981,-1.479,-1.4688,-1.4592,-1.4496,-1.4496,-1.4394,-1.4298,-1.4298,-1.4298,-1.4298,-1.4298,-1.4298,-1.4298,-1.4298,-1.4298,-1.4298,-1.4298,-1.4298,-1.4298,-1.4298,-1.4298,-1.4298,-1.4298,-1.4298,-1.4298,-1.4298,-1.4298,-1.4298,-1.4298,-1.4298,-1.4467,-1.4745,-1.498,-1.5155,-1.5318]},{"header":{"parameterUnit":"m.s-1","parameterCategory":1,"la1":30.6,"la2":28.766,"lo1":-90.7593,"lo2":-88.6598,"dy":0.0162,"dx":0.0183,"nx":116,"ny":114,"refTime":"2023-06-04T12:00:00:Z","depth":0,"parameterNumber":3,"parameterNumberName":"V-component_of_WINDS"},"data":[0.0,0.0,0.0,0.0,0.0,0.0,0.0,0.0,0.0,0.0,0.0,0.0,0.0,0.0,0.0,0.0,0.0,0.0,0.0,0.0,0.0,0.0,0.0,0.0,0.0,0.0,0.0,0.0,0.0,0.0,0.0,0.0,0.0,0.0,0.0,0.0,0.0,0.0,0.0,0.0,0.0,0.0,0.0,0.0,0.0,0.0,0.0,0.0,0.0,0.0,0.0,0.0,0.0,0.0,0.0,0.0,0.0,0.0,0.0,0.0,0.0,0.0,0.0,0.0,0.0,0.0,0.0,0.0,0.0,0.0,0.0,0.0,0.0,0.0,0.0,0.0,0.0,0.0,0.0,0.0,0.0,0.0,0.0,0.0,0.0,0.0,0.0,0.0,0.0,0.0,0.0,0.0,0.0,0.0,0.0,0.0,0.0,0.0,0.0,0.0,0.0,0.0,0.0,0.0,0.0,0.0,0.0,0.0,0.0,0.0,0.0,0.0,0.0,0.0,0.0,0.0,0.0,0.0,0.0,0.0,0.0,0.0,0.0,0.0,0.0,0.0,0.0,0.0,0.0,0.0,0.0,0.0,0.0,0.0,0.0,0.0,0.0,0.0,0.0,0.0,0.0,0.0,0.0,0.0,0.0,0.0,0.0,0.0,0.0,0.0,0.0,0.0,0.0,0.0,0.0,0.0,0.0,0.0,0.0,0.0,0.0,0.0,0.0,0.0,0.0,0.0,0.0,0.0,0.0,0.0,0.0,0.0,0.0,0.0,0.0,0.0,0.0,0.0,0.0,0.0,0.0,0.0,0.0,0.0,0.0,0.0,0.0,0.0,0.0,0.0,0.0,0.0,0.0,0.0,0.0,0.0,0.0,0.0,0.0,0.0,0.0,0.0,0.0,0.0,0.0,0.0,0.0,0.0,0.0,0.0,0.0,0.0,0.0,0.0,0.0,0.0,0.0,0.0,0.0,0.0,0.0,0.0,0.0,0.0,0.0,0.0,0.0,0.0,0.0,0.0,0.0,0.0,0.0,0.0,0.0,0.0,0.0,0.0,0.0,0.0,0.0,0.0,0.0,0.0,0.0,0.0,0.0,0.0,0.0,0.0,0.0,0.0,0.0,0.0,0.0,0.0,0.0,0.0,0.0,0.0,0.0,0.0,0.0,0.0,0.0,0.0,0.0,0.0,0.0,0.0,0.0,0.0,0.0,0.0,0.0,0.0,0.0,0.0,0.0,0.0,0.0,0.0,0.0,0.0,0.0,0.0,0.0,0.0,0.0,0.0,0.0,0.0,0.0,0.0,0.0,0.0,0.0,0.0,0.0,0.0,0.0,0.0,0.0,0.0,0.0,0.0,0.0,0.0,0.0,0.0,0.0,0.0,0.0,0.0,0.0,0.0,0.0,0.0,0.0,0.0,0.0,0.0,0.0,0.0,0.0,0.0,0.0,0.0,0.0,0.0,0.0,0.0,0.0,0.0,0.0,0.0,0.0,0.0,0.0,0.0,0.0,0.0,0.0,0.0,0.0,0.0,0.0,0.0,0.0,0.0,0.0,0.0,0.0,0.0,0.0,0.0,0.0,0.0,0.0,0.0,0.0,0.0,0.0,0.0,0.0,0.0,0.0,0.0,0.0,0.0,0.0,0.0,0.0,0.0,0.0,0.0,0.0,0.0,0.0,0.0,0.0,0.0,0.0,0.0,0.0,0.0,0.0,0.0,0.0,0.0,0.0,0.0,0.0,0.0,0.0,0.0,0.0,0.0,0.0,0.0,0.0,0.0,0.0,0.0,0.0,0.0,0.0,0.0,0.0,0.0,0.0,0.0,0.0,0.0,0.0,0.0,0.0,0.0,0.0,0.0,0.0,0.0,0.0,0.0,0.0,0.0,0.0,0.0,0.0,0.0,0.0,0.0,0.0,0.0,0.0,0.0,0.0,0.0,0.0,0.0,0.0,0.0,0.0,0.0,0.0,0.0,0.0,0.0,0.0,0.0,0.0,0.0,0.0,0.0,0.0,0.0,0.0,0.0,0.0,0.0,0.0,0.0,0.0,0.0,0.0,0.0,0.0,0.0,0.0,0.0,0.0,0.0,0.0,0.0,0.0,0.0,0.0,0.0,0.0,0.0,0.0,0.0,0.0,0.0,0.0,0.0,0.0,0.0,0.0,0.0,0.0,0.0,0.0,0.0,0.0,0.0,0.0,0.0,0.0,0.0,0.0,0.0,0.0,0.0,0.0,0.0,0.0,0.0,0.0,0.0,0.0,0.0,0.0,0.0,0.0,0.0,0.0,0.0,0.0,0.0,0.0,0.0,0.0,0.0,0.0,0.0,0.0,0.0,0.0,0.0,0.0,0.0,0.0,0.0,0.0,0.0,0.0,0.0,0.0,0.0,0.0,0.0,0.0,0.0,0.0,0.0,0.0,0.0,0.0,0.0,0.0,0.0,0.0,0.0,0.0,0.0,0.0,0.0,0.0,0.0,0.0,0.0,0.0,0.0,0.0,0.0,0.0,0.0,0.0,0.0,0.0,0.0,0.0,0.0,0.0,0.0,0.0,0.0,0.0,0.0,0.0,0.0,0.0,0.0,0.0,0.0,0.0,0.0,0.0,0.0,0.0,0.0,0.0,0.0,0.0,0.0,0.0,0.0,0.0,0.0,0.0,0.0,0.0,0.0,0.0,0.0,0.0,0.0,0.0,0.0,0.0,0.0,0.0,0.0,0.0,0.0,0.0,0.0,0.0,0.0,0.0,0.0,0.0,0.0,0.0,0.0,0.0,0.0,0.0,0.0,0.0,0.0,0.0,0.0,0.0,0.0,0.0,0.0,0.0,0.0,0.0,0.0,0.0,0.0,0.0,0.0,0.0,0.0,0.0,0.0,0.0,0.0,0.0,0.0,0.0,0.0,0.0,0.0,0.0,0.0,0.0,0.0,0.0,0.0,0.0,0.0,0.0,0.0,0.0,0.0,0.0,0.0,0.0,0.0,0.0,0.0,0.0,0.0,0.0,0.0,0.0,0.0,0.0,0.0,0.0,0.0,0.0,0.0,0.0,0.0,0.0,0.0,0.0,0.0,0.0,0.0,0.0,0.0,0.0,0.0,0.0,0.0,0.0,0.0,0.0,0.0,0.0,0.0,0.0,0.0,0.0,0.0,0.0,0.0,0.0,0.0,0.0,0.0,0.0,0.0,0.0,0.0,0.0,0.0,0.0,0.0,0.0,0.0,0.0,0.0,0.0,0.0,0.0,0.0,0.0,0.0,0.0,0.0,0.0,0.0,0.0,0.0,0.0,0.0,0.0,0.0,0.0,0.0,0.0,0.0,0.0,0.0,0.0,0.0,0.0,0.0,0.0,0.0,0.0,0.0,0.0,0.0,0.0,0.0,0.0,0.0,0.0,0.0,0.0,0.0,0.0,0.0,0.0,0.0,0.0,0.0,0.0,0.0,0.0,0.0,0.0,0.0,0.0,0.0,0.0,0.0,0.0,0.0,0.0,0.0,0.0,0.0,0.0,0.0,0.0,0.0,0.0,0.0,0.0,0.0,0.0,0.0,0.0,0.0,0.0,0.0,0.0,0.0,0.0,0.0,0.0,0.0,0.0,0.0,0.0,0.0,0.0,0.0,0.0,0.0,0.0,0.0,0.0,0.0,0.0,0.0,0.0,0.0,0.0,0.0,0.0,0.0,0.0,0.0,0.0,0.0,0.0,0.0,0.0,0.0,0.0,0.0,0.0,0.0,0.0,0.0,0.0,0.0,0.0,0.0,0.0,0.0,0.0,0.0,0.0,0.0,0.0,0.0,0.0,0.0,0.0,0.0,0.0,0.0,0.0,0.0,0.0,0.0,0.0,0.0,0.0,0.0,0.0,0.0,0.0,0.0,0.0,0.0,0.0,0.0,0.0,0.0,0.0,0.0,0.0,0.0,0.0,0.0,0.0,0.0,0.0,0.0,0.0,0.0,0.0,0.0,0.0,0.0,0.0,0.0,0.0,0.0,0.0,0.0,0.0,0.0,0.0,0.0,0.0,0.0,0.0,0.0,0.0,0.0,0.0,0.0,0.0,0.0,0.0,0.0,0.0,0.0,0.0,0.0,0.0,0.0,0.0,0.0,0.0,0.0,0.0,0.0,0.0,0.0,0.0,0.0,0.0,0.0,0.0,0.0,0.0,0.0,0.0,0.0,0.0,0.0,0.0,0.0,0.0,0.0,0.0,0.0,0.0,0.0,0.0,0.0,0.0,0.0,0.0,0.0,0.0,0.0,0.0,0.0,0.0,0.0,0.0,0.0,0.0,0.0,0.0,0.0,0.0,0.0,0.0,0.0,0.0,0.0,0.0,0.0,0.0,0.0,0.0,0.0,0.0,0.0,0.0,0.0,0.0,0.0,0.0,0.0,0.0,0.0,0.0,0.0,0.0,0.0,0.0,0.0,0.0,0.0,0.0,0.0,0.0,0.0,0.0,0.0,0.0,0.0,0.0,0.0,0.0,0.0,0.0,0.0,0.0,0.0,0.0,0.0,0.0,0.0,0.0,0.0,0.0,0.0,0.0,0.0,0.0,0.0,0.0,0.0,0.0,0.0,0.0,0.0,0.0,0.0,0.0,0.0,0.0,0.0,0.0,0.0,0.0,0.0,0.0,0.0,0.0,0.0,0.0,0.0,0.0,0.0,0.0,0.0,0.0,0.0,0.0,0.0,0.0,0.0,0.0,0.0,0.0,0.0,0.0,0.0,0.0,0.0,0.0,0.0,0.0,0.0,0.0,0.0,0.0,0.0,0.0,0.0,0.0,0.0,0.0,0.0,0.0,0.0,0.0,0.0,0.0,0.0,0.0,0.0,0.0,0.0,0.0,0.0,0.0,0.0,0.0,0.0,0.0,0.0,0.0,0.0,0.0,0.0,0.0,0.0,0.0,0.0,0.0,0.0,0.0,0.0,0.0,0.0,0.0,0.0,0.0,0.0,0.0,0.0,0.0,0.0,0.0,0.0,0.0,0.0,0.0,0.0,0.0,0.0,0.0,0.0,0.0,0.0,0.0,0.0,0.0,0.0,0.0,0.0,0.0,0.0,0.0,0.0,0.0,0.0,0.0,0.0,0.0,0.0,0.0,0.0,0.0,0.0,0.0,0.0,0.0,0.0,0.0,0.0,0.0,0.0,0.0,0.0,0.0,0.0,0.0,0.0,0.0,0.0,0.0,0.0,0.0,0.0,0.0,0.0,0.0,0.0,0.0,0.0,0.0,0.0,0.0,0.0,0.0,0.0,0.0,0.0,0.0,0.0,0.0,0.0,0.0,0.0,0.0,0.0,0.0,0.0,0.0,0.0,0.0,0.0,0.0,0.0,0.0,0.0,0.0,0.0,0.0,0.0,0.0,0.0,0.0,0.0,0.0,0.0,0.0,0.0,0.0,0.0,0.0,0.0,0.0,0.0,0.0,0.0,0.0,0.0,0.0,0.0,0.0,0.0,0.0,0.0,0.0,0.0,0.0,0.0,0.0,0.0,0.0,0.0,0.0,0.0,0.0,0.0,0.0,0.0,0.0,0.0,0.0,0.0,0.0,0.0,0.0,0.0,0.0,0.0,0.0,0.0,0.0,0.0,0.0,0.0,0.0,0.0,0.0,0.0,0.0,0.0,0.0,0.0,0.0,0.0,0.0,0.0,0.0,0.0,0.0,0.0,0.0,0.0,0.0,0.0,0.0,0.0,0.0,0.0,0.0,0.0,0.0,0.0,0.0,0.0,0.0,0.0,0.0,0.0,0.0,0.0,0.0,0.0,0.0,0.0,0.0,0.0,0.0,0.0,0.0,0.0,0.0,0.0,0.0,0.0,0.0,0.0,0.0,0.0,0.0,0.0,0.0,0.0,0.0,0.0,0.0,0.0,0.0,0.0,0.0,0.0,0.0,0.0,0.0,0.0,0.0,0.0,0.0,0.0,0.0,0.0,0.0,0.0,0.0,0.0,0.0,0.0,0.0,0.0,0.0,0.0,0.0,0.0,0.0,0.0,0.0,0.0,0.0,0.0,0.0,0.0,0.0,0.0,0.0,0.0,0.0,0.0,0.0,0.0,0.0,0.0,0.0,0.0,0.0,0.0,0.0,0.0,0.0,0.0,-3.5935,-3.5934,0.0,0.0,0.0,0.0,0.0,0.0,0.0,0.0,0.0,0.0,0.0,0.0,0.0,0.0,0.0,0.0,0.0,0.0,0.0,0.0,0.0,0.0,0.0,0.0,0.0,0.0,0.0,0.0,0.0,0.0,0.0,0.0,0.0,0.0,0.0,0.0,0.0,0.0,-2.5636,-2.5671,-2.5703,-2.5701,-2.5698,-2.5698,0.0,0.0,0.0,0.0,0.0,0.0,0.0,0.0,0.0,0.0,0.0,0.0,0.0,0.0,0.0,0.0,0.0,0.0,0.0,0.0,0.0,0.0,0.0,0.0,0.0,0.0,0.0,0.0,0.0,0.0,0.0,0.0,0.0,0.0,0.0,0.0,0.0,0.0,0.0,0.0,0.0,0.0,0.0,0.0,0.0,0.0,0.0,0.0,0.0,0.0,0.0,0.0,0.0,0.0,0.0,0.0,0.0,0.0,0.0,0.0,0.0,0.0,0.0,0.0,0.0,0.0,0.0,0.0,0.0,0.0,-3.6339,-3.5966,0.0,0.0,0.0,0.0,0.0,0.0,0.0,0.0,0.0,0.0,0.0,0.0,0.0,0.0,0.0,0.0,0.0,0.0,0.0,0.0,0.0,0.0,0.0,-2.6692,-2.6025,-2.533,-2.5293,-2.5303,0.0,0.0,0.0,0.0,0.0,0.0,0.0,-2.5398,-2.5446,-2.5581,-2.558,-2.5625,-2.5693,-2.5849,-2.5913,-2.5922,-2.5939,0.0,0.0,0.0,0.0,0.0,0.0,0.0,0.0,0.0,0.0,0.0,0.0,0.0,0.0,0.0,0.0,0.0,0.0,0.0,0.0,0.0,0.0,0.0,0.0,0.0,0.0,0.0,0.0,0.0,0.0,0.0,0.0,0.0,0.0,0.0,0.0,0.0,0.0,0.0,0.0,0.0,0.0,0.0,0.0,0.0,0.0,0.0,0.0,0.0,0.0,0.0,0.0,0.0,0.0,0.0,0.0,0.0,0.0,0.0,0.0,0.0,0.0,0.0,-3.8609,-3.9041,-3.9041,-3.9041,-3.9041,-3.8963,-3.7516,-3.6716,-3.6501,-3.7223,0.0,0.0,0.0,0.0,0.0,0.0,0.0,0.0,0.0,0.0,0.0,0.0,0.0,0.0,0.0,0.0,0.0,0.0,0.0,0.0,0.0,-2.6641,-2.5977,-2.5203,-2.5241,-2.5302,-2.5303,0.0,0.0,0.0,0.0,0.0,-2.5312,-2.5367,-2.5418,-2.5434,-2.548,-2.5556,-2.5632,-2.6385,-2.678,-2.682,-2.6827,-2.6822,-2.688,0.0,0.0,0.0,0.0,0.0,0.0,0.0,0.0,0.0,0.0,0.0,0.0,0.0,0.0,0.0,0.0,0.0,0.0,0.0,0.0,0.0,0.0,0.0,0.0,0.0,0.0,0.0,0.0,0.0,0.0,0.0,0.0,0.0,0.0,0.0,0.0,0.0,0.0,0.0,0.0,0.0,-3.3385,-3.3402,0.0,0.0,0.0,0.0,0.0,0.0,0.0,0.0,0.0,0.0,0.0,0.0,0.0,-3.8258,-3.8258,-3.9058,-3.9468,-3.9488,-4.0346,-4.0776,-4.0776,-4.0776,-4.0776,-4.0756,-4.0522,0.0,-3.8277,-3.8375,0.0,0.0,0.0,0.0,0.0,0.0,0.0,0.0,0.0,0.0,0.0,0.0,0.0,0.0,0.0,0.0,0.0,0.0,0.0,0.0,0.0,-2.626,-2.5497,-2.5231,-2.5273,-2.5293,-2.5303,-2.5303,0.0,0.0,0.0,-2.5273,-2.5252,-2.5313,-2.535,-2.5398,-2.5957,-2.626,-2.6357,-2.7214,-2.7667,-2.7756,-2.824,-2.8198,-2.7789,-2.8667,0.0,0.0,0.0,0.0,0.0,0.0,0.0,0.0,0.0,0.0,0.0,0.0,0.0,0.0,0.0,0.0,0.0,0.0,0.0,0.0,0.0,0.0,0.0,0.0,0.0,0.0,0.0,0.0,0.0,0.0,0.0,0.0,0.0,0.0,0.0,0.0,0.0,0.0,0.0,-3.4832,-3.4817,-3.4861,-3.5193,-3.5428,0.0,0.0,0.0,0.0,0.0,0.0,0.0,0.0,0.0,-3.8687,-3.9078,-3.9507,-3.9995,-4.0834,-4.1264,-4.1264,-4.2142,-4.2552,-4.2552,-4.2552,-4.2552,-4.2552,-4.2552,-4.2142,-4.142,-4.0932,-4.0737,-4.0776,0.0,0.0,0.0,0.0,-4.1459,-4.1459,0.0,0.0,0.0,0.0,0.0,0.0,0.0,0.0,0.0,0.0,0.0,0.0,-2.7242,-2.5964,-2.5149,-2.5243,-2.5274,-2.5303,-2.5303,-2.5303,-2.5293,-2.5302,-2.5282,-2.5252,-2.5192,-2.5463,-2.564,-2.5713,-2.6621,-2.7212,-2.7501,-2.8376,-2.8929,-2.9246,-3.0141,-2.9838,-2.8693,-2.9533,-2.9904,-2.9962,0.0,0.0,0.0,0.0,0.0,0.0,0.0,0.0,0.0,0.0,0.0,0.0,0.0,0.0,0.0,0.0,0.0,0.0,0.0,0.0,0.0,0.0,0.0,0.0,0.0,0.0,0.0,0.0,0.0,0.0,0.0,0.0,0.0,0.0,0.0,0.0,0.0,-3.595,-3.5932,-3.5994,-3.6205,-3.6325,0.0,0.0,0.0,0.0,0.0,0.0,-3.8918,-3.9331,-3.9858,-4.0444,-4.0678,-4.1108,-4.1752,-4.263,-4.3079,-4.3079,-4.3957,-4.4484,-4.4699,-4.4699,-4.4699,-4.4699,-4.4699,-4.4563,-4.427,-4.3177,-4.2728,-4.2806,-4.345,-4.3704,-4.3704,-4.3704,-4.3704,-4.3704,0.0,0.0,0.0,0.0,0.0,0.0,0.0,0.0,0.0,0.0,0.0,-2.7095,-2.7112,-2.5915,-2.5096,-2.5115,-2.5233,-2.5303,-2.5303,-2.5302,-2.5302,-2.5303,-2.5243,-2.5192,-2.5192,-2.6009,-2.6461,-2.6532,-2.7409,-2.827,-2.9091,-2.9969,-3.0828,-3.1681,-3.2674,-3.1785,-2.9591,-3.0392,-3.0743,-3.0743,-3.0782,0.0,0.0,0.0,0.0,0.0,0.0,0.0,0.0,0.0,0.0,0.0,0.0,0.0,0.0,0.0,0.0,0.0,0.0,0.0,0.0,0.0,0.0,0.0,0.0,0.0,0.0,0.0,0.0,0.0,0.0,0.0,0.0,0.0,0.0,0.0,0.0,0.0,0.0,-3.6001,-3.6729,0.0,0.0,0.0,0.0,-3.844,-3.9247,-3.9738,-3.9747,-4.1316,-4.224,-4.2279,-4.3079,-4.3528,-4.3567,-4.4426,-4.4875,-4.4875,-4.5753,-4.6593,-4.7393,-4.7393,-4.7393,-4.7393,-4.7393,-4.6924,-4.6046,-4.4348,-4.3626,-4.3645,-4.3684,-4.3704,-4.3704,-4.3704,-4.3704,-4.3704,0.0,0.0,0.0,0.0,0.0,0.0,0.0,0.0,-2.9407,-2.9407,-2.8054,-2.7129,-2.7226,-2.595,-2.5138,-2.5233,-2.5273,-2.5302,-2.5302,-2.5262,-2.5241,-2.5231,-2.5212,-2.5472,-2.6088,-2.6414,-2.7108,-2.8206,-2.9083,-2.9974,-3.0897,-3.1728,-3.2319,-3.2718,-3.3033,-3.27,-3.1902,-3.1718,-3.1309,-3.0801,-3.0801,-3.0801,0.0,0.0,0.0,0.0,0.0,0.0,0.0,0.0,0.0,0.0,0.0,0.0,0.0,0.0,0.0,0.0,0.0,0.0,0.0,0.0,0.0,0.0,0.0,0.0,0.0,0.0,0.0,0.0,0.0,0.0,0.0,0.0,0.0,0.0,0.0,0.0,0.0,-3.7611,-3.7946,0.0,-3.8853,-3.9699,-4.0421,-4.0976,-4.1823,-4.2318,-4.2315,-4.2903,-4.3489,-4.4055,-4.4367,-4.509,-4.6202,-4.6515,-4.6924,-4.7451,-4.7764,-4.8076,-4.8369,-4.8369,-4.8369,-4.8369,-4.8369,-4.8193,-4.7861,-4.7237,-4.6358,-4.5363,-4.5363,-4.5363,-4.5363,-4.5363,-4.5363,-4.5363,0.0,0.0,0.0,0.0,0.0,0.0,0.0,0.0,-2.9295,-2.8998,-2.7867,-2.7033,-2.6865,-2.5739,-2.5091,-2.5231,-2.522,-2.5239,-2.5252,-2.5212,-2.522,-2.5239,-2.5529,-2.5962,-2.6579,-2.7443,-2.8426,-2.9544,-3.0679,-3.1696,-3.2593,-3.3141,-3.36,-3.3935,-3.3945,-3.379,-3.3546,-3.3062,-3.2225,-3.1176,-3.1207,-3.1038,-3.0768,0.0,0.0,0.0,0.0,0.0,0.0,0.0,0.0,0.0,0.0,0.0,0.0,0.0,0.0,0.0,0.0,0.0,0.0,0.0,0.0,0.0,0.0,0.0,0.0,0.0,0.0,0.0,0.0,0.0,0.0,0.0,0.0,0.0,0.0,0.0,-3.8043,-3.8899,-3.9253,-3.978,-4.059,-4.1475,-4.2217,-4.2791,-4.3658,-4.4133,-4.4149,-4.4426,-4.4972,-4.5851,-4.589,-4.6554,-4.7998,-4.7998,-4.8271,-4.8798,-4.8798,-4.8954,-4.9247,-4.9247,-4.9247,-4.9247,-4.9247,-4.9072,-4.8798,-4.8798,-4.8154,-4.7139,-4.7139,-4.7139,-4.7139,-4.7139,-4.7139,-4.7139,0.0,0.0,0.0,0.0,0.0,0.0,0.0,-2.9407,-2.9091,-2.8197,-2.7512,-2.6795,-2.5986,-2.5314,-2.4974,-2.5101,-2.5113,-2.513,-2.5182,-2.5209,-2.5239,-2.5349,-2.6175,-2.6666,-2.6724,-2.9144,-3.0444,-3.0513,-3.2179,-3.3397,-3.4183,-3.4263,-3.4743,-3.5489,-3.5604,-3.5209,-3.4425,-3.4477,-3.3569,-3.2043,-3.2032,-3.1534,-3.0789,0.0,0.0,0.0,0.0,0.0,0.0,0.0,0.0,0.0,0.0,0.0,0.0,0.0,0.0,0.0,0.0,0.0,0.0,0.0,0.0,0.0,0.0,0.0,0.0,0.0,0.0,0.0,0.0,0.0,0.0,0.0,0.0,0.0,-3.8596,-3.8645,-3.9,-3.9829,-4.0675,-4.1518,-4.2396,-4.3235,-4.3759,-4.3786,-4.4594,-4.5086,-4.5078,-4.5906,-4.6768,-4.7608,-4.7647,-4.8017,-4.8837,-4.8837,-4.8857,-4.8876,-4.8876,-4.9325,-5.0145,-5.0145,-5.0145,-5.0145,-5.0145,-4.9657,-4.8876,-4.8876,-4.8876,-4.8876,-4.8818,-4.8798,-4.8798,-4.8798,-4.8798,-4.8798,0.0,0.0,0.0,0.0,0.0,0.0,0.0,-2.9407,-2.9091,-2.8197,-2.7512,-2.6795,-2.5986,-2.5394,-2.5056,-2.5101,-2.5134,-2.5145,-2.5056,-2.5153,-2.5508,-2.6214,-2.7031,-2.8049,-2.934,-3.0052,-3.1302,-3.316,-3.4257,-3.5205,-3.6012,-3.6594,-3.7036,-3.7281,-3.7271,-3.7151,-3.6986,-3.7006,-3.6382,-3.5237,-3.3555,-3.2725,-3.246,0.0,0.0,0.0,0.0,0.0,0.0,0.0,0.0,0.0,0.0,0.0,0.0,0.0,0.0,0.0,0.0,0.0,0.0,0.0,0.0,0.0,0.0,0.0,0.0,0.0,0.0,0.0,0.0,0.0,0.0,0.0,0.0,-4.0418,-4.0382,-4.0405,-4.0952,-4.2451,-4.2845,-4.3329,-4.42,-4.4501,-4.4891,-4.5542,-4.639,-4.6882,-4.6882,-4.7666,-4.8213,-4.8466,-4.8466,-4.8876,-4.9735,-4.9735,-5.0067,-5.0692,-5.0692,-5.0809,-5.1043,-5.1043,-5.1043,-5.1043,-5.1043,-5.0906,-5.0692,-5.0692,-5.0692,-5.0555,-4.9286,-4.8798,-4.8798,-4.8798,-4.8777,-4.8737,0.0,0.0,0.0,0.0,0.0,0.0,0.0,-2.9407,-2.8979,-2.7771,-2.7252,-2.6596,-2.5437,-2.5091,-2.4942,-2.4974,-2.5038,-2.5063,-2.5,-2.5411,-2.6063,-2.6979,-2.8219,-2.9348,-3.0379,-3.1802,-3.3256,-3.4737,-3.5968,-3.6796,-3.7257,-3.7709,-3.7973,-3.8007,-3.7959,-3.7973,-3.8007,-3.8007,-3.7719,-3.7137,-3.5763,-3.4583,-3.3567,-3.2757,-3.2443,-3.2384,-3.1868,-3.1693,-3.1778,-3.2325,0.0,0.0,0.0,0.0,0.0,0.0,0.0,0.0,0.0,0.0,0.0,0.0,0.0,0.0,0.0,0.0,0.0,0.0,0.0,0.0,0.0,0.0,0.0,0.0,-4.1909,-4.2311,-4.2689,-4.2415,-4.2708,-4.4075,-4.4231,-4.4598,-4.5453,-4.5867,-4.6296,-4.6819,-4.7623,-4.8096,-4.8096,-4.8545,-4.8974,-4.9325,-4.9345,-4.9755,-5.0633,-5.0633,-5.1082,-5.1941,-5.1941,-5.2136,-5.2487,-5.2487,-5.2455,-5.2414,-5.2414,-5.2376,-5.2329,-5.2329,-5.2329,-5.2154,0.0,0.0,0.0,0.0,-4.9707,-4.9654,0.0,0.0,0.0,0.0,0.0,0.0,0.0,-2.9407,-2.8831,-2.7251,-2.6972,-2.6321,-2.4797,-2.4669,-2.4719,-2.4775,-2.4851,-2.495,-2.5113,-2.5939,-2.6854,-2.7826,-2.9595,-3.0667,-3.0956,-3.3922,-3.5556,-3.5795,-3.7339,-3.8127,-3.8142,-3.8238,-3.8277,-3.8277,-3.8277,-3.8238,-3.8142,-3.8142,-3.8142,-3.8142,-3.8046,-3.6691,-3.4627,-3.3771,-3.3458,-3.3438,-3.3244,-3.3167,-3.3186,-3.3292,0.0,0.0,0.0,0.0,0.0,0.0,0.0,0.0,0.0,0.0,0.0,0.0,0.0,0.0,0.0,0.0,0.0,0.0,0.0,0.0,0.0,0.0,0.0,0.0,-4.3266,-4.4153,-4.5012,-4.4484,-4.427,-4.5051,-4.5226,-4.5597,-4.6378,-4.7237,-4.7744,-4.7744,-4.8486,-4.8954,-4.8954,-4.9032,0.0,0.0,0.0,-5.0672,-5.1531,-5.155,-5.198,-5.2858,-5.2835,-5.3221,-5.3982,-5.3982,-5.3916,-5.3794,-5.3822,-5.375,-5.3623,-5.3623,-5.3598,-5.345,-5.2018,-5.1479,-5.1471,-5.1334,-5.1287,-5.1275,0.0,0.0,0.0,0.0,0.0,0.0,0.0,-2.9407,-2.9035,-2.7993,-2.7306,-2.6544,-2.5578,-2.5024,-2.4673,-2.4639,-2.4794,-2.5182,-2.5844,-2.6698,-2.7904,-2.956,-3.0797,-3.241,-3.4455,-3.494,-3.5952,-3.7526,-3.8328,-3.8827,-3.9065,-3.97,-4.0008,-4.0008,-4.0008,-3.9662,-3.9046,-3.9046,-3.9046,-3.8988,-3.8277,-3.7714,-3.7126,-3.5618,-3.5053,-3.4879,-3.3453,-3.2964,-3.3072,-3.3828,-3.409,-3.4255,-3.5172,-3.5441,0.0,0.0,0.0,0.0,0.0,0.0,0.0,0.0,0.0,0.0,0.0,0.0,0.0,0.0,0.0,0.0,0.0,0.0,0.0,-4.4328,-4.4614,-4.5051,-4.5929,-4.589,-4.5851,-4.6027,-4.6671,-4.7159,-4.7334,-4.8096,-4.8564,-4.8564,-4.9364,-4.9852,-4.9852,-5.0516,-5.0965,-5.1141,-5.116,-5.157,-5.2448,-5.2448,-5.2897,-5.3756,-5.3631,0.0,-5.3837,-5.3837,-5.383,-5.3814,-5.3916,-5.3884,-5.3759,-5.3759,-5.3635,-5.341,-5.3217,-5.3149,-5.313,-5.3125,-5.3014,-5.293,0.0,0.0,0.0,0.0,0.0,0.0,0.0,-2.9407,-2.9091,-2.8197,-2.7399,-2.66,-2.5801,-2.5099,-2.4676,-2.4613,-2.4692,-2.5233,-2.6369,-2.697,-2.825,-3.0362,-3.1489,-3.3016,-3.51,-3.5834,-3.6953,-3.846,-3.9199,-3.9672,-3.9912,-4.0296,-4.0489,-4.0489,-4.0489,-4.0046,-3.9296,-3.9296,-3.9296,-3.9258,-3.8834,-3.8892,-3.9065,-3.7392,-3.6757,-3.6584,-3.5276,-3.4795,-3.4808,-3.4873,-3.4897,-3.4986,-3.545,-3.5596,-3.5596,0.0,0.0,0.0,0.0,0.0,0.0,0.0,0.0,0.0,0.0,0.0,0.0,0.0,0.0,-4.2676,0.0,0.0,-4.4197,-4.4673,-4.5134,-4.5748,-4.6637,-4.6753,-4.6801,-4.694,-4.7334,-4.7732,-4.8117,-4.8878,-4.9334,-4.9294,-5.0147,-5.0615,-5.056,-5.1025,-5.1258,-5.1203,-5.1624,-5.2052,-5.2508,-5.2994,-5.3696,-5.4554,-5.4554,-5.4788,-5.5198,-5.5198,-5.5116,-5.4946,-5.5015,-5.4944,-5.475,-5.475,-5.4675,-5.4554,-5.4626,-5.4138,-5.3404,-5.3404,-5.3353,-5.33,0.0,0.0,0.0,0.0,0.0,0.0,0.0,-2.9365,-2.9105,-2.8439,-2.7472,-2.6618,-2.6005,-2.5178,-2.4629,-2.4582,-2.4582,-2.5221,-2.6728,-2.7063,-2.8349,-3.0941,-3.192,-3.3317,-3.5248,-3.6572,-3.7848,-3.9071,-3.9738,-4.0195,-4.0441,-4.0441,-4.0457,-4.0489,-4.0489,-4.0046,-3.9296,-3.9296,-3.9296,-3.9296,-3.9296,-3.9777,-4.0335,-3.8988,-3.8392,-3.8123,-3.7065,-3.6699,-3.6584,-3.5776,-3.5493,-3.5493,-3.5493,-3.5493,-3.5493,-3.5493,-3.5493,0.0,0.0,0.0,0.0,0.0,0.0,0.0,0.0,0.0,-4.2059,-4.2116,-4.2825,-4.3405,-4.3446,-4.4214,-4.4824,-4.4783,-4.5553,-4.6404,-4.7093,-4.7345,-4.7602,-4.7975,-4.8025,-4.8262,-4.8861,-4.9632,-5.0091,-5.0037,-5.0724,-5.1103,-5.1008,-5.1094,-5.1201,-5.126,-5.1928,-5.2484,-5.2838,-5.3653,-5.4476,-5.5333,-5.5425,-5.5808,-5.6452,-5.6452,-5.632,-5.6057,-5.6057,-5.5946,-5.5747,-5.5705,-5.5703,-5.5703,-5.5703,-5.4876,-5.3683,-5.3683,-5.3683,-5.3683,0.0,0.0,0.0,0.0,0.0,0.0,0.0,0.0,-2.916,-2.9237,-2.7724,-2.6665,-2.6767,-2.5428,-2.4517,-2.4517,-2.4517,-2.5187,-2.6786,-2.708,-2.8612,-3.1824,-3.2241,-3.3847,-3.6955,-3.7027,-3.7917,-3.9707,-3.9599,-3.9791,-4.0233,-4.0233,-4.0321,-4.0489,-4.0489,-4.0046,-3.9296,-3.9296,-3.9296,-3.9296,-3.9296,-3.9777,-4.0469,-4.0277,-3.9777,-3.8931,-3.7296,-3.6699,-3.6584,-3.5776,-3.5493,-3.5493,-3.5493,-3.5493,-3.5493,-3.5493,-3.5493,-3.5661,-3.6372,-3.77,-3.87,-3.8027,-3.97,-4.1316,0.0,0.0,-4.2951,-4.2948,-4.3618,-4.4206,-4.4336,-4.5059,-4.5693,-4.5731,-4.6491,-4.7093,-4.719,-4.7858,-4.8646,-4.9457,-4.9545,-4.9593,-4.966,-5.0398,-5.0864,-5.0872,-5.0961,-5.102,-5.1008,-5.102,-5.1369,-5.2123,-5.2239,-5.3094,-5.4771,-5.4896,-5.5353,-5.6152,-5.6055,-5.5993,-5.5978,-5.5978,-5.5962,-5.5913,-5.5913,-5.5915,-5.5863,-5.5748,-5.5703,-5.5703,-5.5703,-5.5588,-5.5415,-5.5415,-5.5415,-5.5415,0.0,0.0,0.0,0.0,0.0,0.0,0.0,0.0,0.0,-2.9218,-2.8101,-2.7138,-2.6759,-2.5375,-2.4447,-2.4447,-2.4447,-2.5134,-2.6747,-2.6954,-2.8502,-3.179,-3.2002,-3.3377,-3.6189,-3.6633,-3.751,-3.8916,-3.9312,-3.9656,-3.9963,-3.9963,-4.0003,-4.0101,-4.0101,-3.9643,-3.8899,-3.9025,-3.9076,-3.9076,-3.9076,-3.9574,-4.0264,-3.9641,-3.9203,-3.8782,-3.7798,-3.7142,0.0,-3.5776,-3.5493,-3.5493,-3.5493,-3.5493,-3.5493,-3.5493,-3.5834,-3.6392,-3.7238,-3.87,-3.9912,0.0,-4.1027,-4.247,-4.2104,-4.2931,-4.3797,-4.3797,-4.447,-4.5081,-4.5128,-4.5433,-4.5854,0.0,-4.68,-4.738,-4.833,-4.8775,-4.9351,-5.022,-5.0317,-5.0364,-5.0433,-5.0738,-5.0908,-5.0835,-5.0894,-5.0908,-5.0835,-5.1339,-5.1765,-5.2056,-5.3061,-5.3964,-5.4742,-5.5297,-5.5727,-5.6057,-5.6084,-5.6071,-5.602,-5.602,-5.5975,-5.5898,-5.5808,-5.5789,-5.5769,-5.5726,-5.5703,-5.5703,-5.5703,-5.5703,-5.5703,-5.5703,-5.5703,-5.5703,0.0,0.0,0.0,0.0,0.0,0.0,0.0,0.0,0.0,0.0,-2.8264,-2.739,-2.6442,-2.519,-2.443,-2.443,-2.443,-2.5023,-2.6413,-2.6748,-2.818,-3.1002,-3.1541,-3.2841,-3.5089,-3.5943,-3.6845,-3.7847,-3.8428,-3.8968,-3.9388,-3.9388,-3.9545,-3.9797,-3.9797,-3.9475,-3.8944,-3.9089,-3.9147,-3.9128,-3.8918,-3.9204,-3.9662,-3.8668,-3.8133,-3.7868,-3.7575,-3.7079,-3.6412,-3.5607,-3.5339,-3.5339,-3.5403,-3.5571,-3.5758,-3.582,-3.6738,-3.7892,-3.8527,-3.9931,-4.1219,-4.1219,-4.2335,-4.3431,-4.3431,-4.4066,-4.4662,-4.4662,-4.5163,-4.5586,-4.5586,-4.5586,-4.5893,-4.6759,-4.7086,-4.774,-4.9202,-4.9606,-4.999,-5.0606,-5.0702,-5.074,-5.0844,-5.0841,-5.081,-5.0702,-5.0793,-5.081,-5.0721,-5.1546,-5.2105,-5.226,-5.3722,-5.4608,-5.4881,-5.5555,-5.5915,-5.5896,-5.6005,-5.6035,-5.599,-5.599,-5.5946,-5.5845,-5.5728,-5.5703,-5.5703,-5.5703,-5.5703,-5.5703,-5.5703,-5.5703,-5.5703,-5.5703,-5.5703,-5.5703,0.0,0.0,0.0,0.0,0.0,0.0,0.0,0.0,0.0,0.0,0.0,0.0,0.0,-2.5001,-2.45,-2.45,-2.45,-2.4853,-2.5689,-2.647,-2.7678,-2.9407,-3.0987,-3.2562,-3.4197,-3.5089,-3.595,-3.6749,-3.6768,-3.7331,-3.8343,-3.8343,-3.8878,-3.9797,-3.9797,-3.9778,-3.9759,-3.9781,-3.9781,-3.9705,-3.8929,-3.8626,-3.8569,-3.7734,-3.6919,-3.6159,-3.616,-3.6141,-3.6008,-3.5192,-3.4927,-3.4945,-3.5141,-3.5742,-3.6405,-3.6618,-3.843,-4.0392,-4.0412,-4.17,-4.3028,-4.3028,-4.3643,-4.4259,-4.4259,-4.4932,-4.5547,-4.5547,-4.5566,-4.5586,-4.5586,-4.5586,-4.5893,-4.6759,-4.7548,-4.8375,-4.926,-5.0125,-5.0664,-5.0702,-5.0702,-5.0683,0.0,-5.0721,-5.0702,-5.0702,-5.0702,-5.0702,-5.0702,-5.1471,-5.2299,-5.3126,-5.403,-5.494,-5.584,-5.5896,-5.5915,-5.5915,-5.5896,-5.5845,-5.5705,-5.5705,-5.5705,-5.5724,-5.5684,-5.5703,-5.5703,-5.5703,-5.5703,-5.5703,-5.5703,-5.5703,-5.5703,-5.5703,-5.5703,-5.5703,0.0,0.0,0.0,0.0,0.0,0.0,0.0,0.0,0.0,0.0,0.0,0.0,0.0,0.0,0.0,0.0,-2.4303,-2.4709,-2.5634,-2.5949,-2.7102,-2.9314,-2.9927,-3.0968,-3.2562,-3.3937,-3.4773,-3.5033,-3.6147,-3.6868,-3.7231,-3.7231,-3.7412,-3.7729,-3.7729,-3.7729,-3.7753,-3.7882,-3.7932,-3.7935,-3.7653,-3.754,-3.7367,-3.5856,-3.545,-3.5558,0.0,-3.4595,-3.5249,-3.4984,-3.4908,-3.4945,-3.5124,-3.5744,-3.6769,-3.8674,-3.9815,-4.0739,-4.1912,-4.3047,-4.3893,-4.3893,-4.4528,-4.5163,-4.5163,-4.5393,-4.5586,-4.5586,-4.5586,-4.5586,-4.5586,-4.5586,-4.5893,-4.6759,-4.7586,-4.8394,-4.9279,-5.0144,-5.0702,-5.0702,-5.0702,0.0,0.0,0.0,0.0,-5.0702,-5.0702,-5.0933,-5.1471,-5.2299,-5.3164,-5.4049,-5.4857,-5.5457,-5.5749,-5.5768,-5.5768,-5.5768,-5.5768,-5.5748,-5.5703,-5.5703,-5.5703,-5.5703,-5.5703,-5.5703,-5.5703,-5.5703,-5.5703,-5.5703,-5.5703,-5.5703,-5.5703,-5.5703,-5.5703,-5.5703,0.0,0.0,0.0,0.0,0.0,0.0,0.0,0.0,0.0,0.0,0.0,0.0,0.0,0.0,0.0,0.0,0.0,-2.4469,-2.5116,-2.5504,-2.6414,-2.8013,-2.8942,-2.989,-3.0909,-3.2507,-3.3324,-3.3324,-3.442,-3.5089,-3.5367,-3.5367,-3.5516,-3.5813,-3.6129,-3.6259,-3.6285,-3.6403,-3.6625,-3.6812,-3.5914,-3.5726,-3.582,-3.4008,-3.3863,0.0,-3.338,-3.3698,-3.4651,-3.4651,-3.4651,-3.4728,-3.5249,-3.6444,-3.8041,-4.0187,-4.1255,-4.1982,-4.3203,-4.4124,-4.4759,-4.4759,-4.5182,-4.5586,-4.5586,-4.5586,-4.5586,-4.5586,-4.5586,-4.5586,-4.5586,-4.5586,-4.5893,-4.6759,-4.7586,-4.8394,-4.9279,-5.0144,-5.0702,-5.0702,-5.0702,-5.0702,0.0,0.0,0.0,-5.0702,-5.0702,-5.1048,-5.1875,-5.2741,-5.3606,-5.4472,-5.528,-5.5703,-5.5703,-5.5703,-5.5703,-5.5703,-5.5703,-5.5703,-5.5703,-5.5703,-5.5703,-5.5703,-5.5703,-5.5703,-5.5703,-5.5703,-5.5703,-5.5703,-5.5703,-5.5703,-5.5703,-5.5703,-5.5703,-5.5703,0.0,0.0,0.0,0.0,0.0,0.0,0.0,0.0,0.0,0.0,0.0,0.0,0.0,0.0,0.0,0.0,0.0,0.0,-2.4192,-2.5097,-2.5634,-2.5671,-2.7937,-2.9237,-2.9312,-3.0854,-3.1689,-3.1727,-3.1764,-3.2172,-3.2934,-3.2934,-3.3343,-3.4104,-3.494,-3.5293,-3.5293,-3.5293,-3.5739,-3.624,-3.3881,-3.3398,-3.39,-3.234,-3.2228,-3.2934,-3.2934,-3.3454,-3.4141,-3.4179,-3.4258,0.0,-3.5529,-3.7672,-4.0006,-4.113,-4.2602,-4.398,-4.4246,-4.497,-4.5586,-4.5586,-4.5586,-4.5586,-4.5586,-4.5586,-4.5586,-4.5586,-4.5586,-4.5586,0.0,0.0,-4.5874,-4.6701,-4.7509,-4.8336,-4.9202,-5.0067,-5.0644,0.0,0.0,0.0,0.0,0.0,0.0,-5.0702,0.0,-5.1068,-5.1933,-5.276,-5.3626,-5.453,-5.5299,-5.5703,-5.5703,-5.5703,-5.5703,-5.5703,-5.5703,-5.5703,-5.5703,-5.5703,-5.5703,-5.5703,-5.5703,-5.5703,-5.5703,-5.5703,-5.5703,-5.5703,-5.5703,-5.5703,-5.5703,-5.5703,-5.5703,-5.5703,0.0,0.0,0.0,0.0,0.0,0.0,0.0,0.0,0.0,0.0,0.0,0.0,0.0,0.0,0.0,0.0,0.0,0.0,-2.4192,-2.445,-2.4856,-2.5447,-2.6074,-2.6999,-2.8255,-2.927,-3.015,-3.0913,-3.1526,-3.1894,-3.2098,-3.2098,-3.221,-3.2414,-3.2637,-3.273,-3.273,-3.273,-3.286,-3.299,-3.2358,-3.2228,-3.2284,-3.1281,-3.1392,-3.2098,-3.2098,-3.2618,-3.3398,0.0,0.0,0.0,0.0,-3.8124,-4.0097,-4.1627,-4.2936,-4.4055,-4.4766,-4.5285,-4.5586,-4.5586,-4.5586,-4.5586,-4.5586,-4.5586,-4.5586,-4.5586,-4.5586,-4.5586,0.0,0.0,0.0,-4.5893,-4.6644,0.0,-4.8317,-4.9183,0.0,-5.0606,0.0,-5.0702,-5.0702,-5.0702,0.0,0.0,-5.0702,-5.1318,-5.2799,-5.3087,-5.3876,-5.5338,-5.5588,-5.5703,-5.5703,-5.5703,-5.5703,-5.5703,-5.5703,-5.5703,-5.5703,-5.5703,-5.5703,-5.5703,-5.5703,-5.5703,-5.5703,-5.5703,-5.5703,-5.5703,-5.5703,-5.5703,-5.5703,-5.5703,-5.5703,-5.5703,0.0,0.0,0.0,0.0,0.0,0.0,0.0,0.0,0.0,0.0,0.0,0.0,0.0,0.0,0.0,0.0,0.0,0.0,0.0,-2.4116,-2.4413,-2.4855,-2.5205,-2.5831,-2.679,-2.7619,-2.8307,-2.8894,-2.9755,-3.0166,-3.0166,-3.0578,-3.0764,-3.0764,-3.1136,-3.1284,-3.1284,-3.1284,-3.1489,0.0,0.0,-3.0968,-3.1188,-3.0392,-3.0578,-3.1318,-3.1652,-3.2525,0.0,0.0,0.0,-3.6352,-3.7137,-3.8865,-4.0885,-4.2272,0.0,-4.4443,-4.5046,-4.54,-4.5586,-4.5586,-4.5586,-4.5586,-4.5586,-4.5586,-4.5586,-4.5586,-4.5586,0.0,-4.5586,0.0,0.0,0.0,0.0,0.0,-4.799,-4.8856,-4.9721,0.0,-5.0702,0.0,-5.0702,-5.0702,-5.0702,0.0,-5.0702,-5.1433,-5.3106,-5.3203,-5.3972,-5.5645,-5.5703,-5.5703,-5.5703,-5.5703,-5.5703,-5.5703,-5.5703,-5.5703,-5.5703,-5.5703,-5.5703,-5.5703,-5.5703,-5.5703,-5.5703,-5.5703,-5.5703,-5.5703,-5.5703,-5.5703,-5.5703,-5.5703,-5.5703,-5.5703,0.0,0.0,0.0,0.0,0.0,0.0,0.0,0.0,0.0,0.0,0.0,0.0,0.0,0.0,0.0,0.0,0.0,0.0,0.0,0.0,-2.4154,-2.4173,-2.4834,-2.5257,-2.5368,-2.6125,-2.6587,-2.6698,-2.7544,-2.7937,-2.7956,-2.8831,-2.924,-2.9258,-3.0095,-3.0448,-3.0448,-3.0448,-3.0857,-3.1377,-2.9965,-2.9834,-3.0373,0.0,-2.9834,-3.0578,-3.1467,0.0,0.0,0.0,-3.5318,-3.6868,-3.766,-3.9612,-4.1837,-4.2847,-4.3931,-4.4849,-4.5074,-4.5362,-4.5586,-4.5586,-4.5586,-4.5586,-4.5586,-4.5586,-4.5586,-4.5586,0.0,-4.5586,-4.5586,-4.5586,-4.5586,-4.5586,0.0,-4.7009,-4.7836,-4.8682,-4.9548,-5.0414,-5.0625,-5.0702,-5.0702,-5.0702,-5.0702,-5.0702,-5.0702,-5.1375,-5.2953,-5.3029,-5.3799,-5.5491,-5.5645,-5.5703,-5.5703,-5.5703,-5.5703,-5.5703,-5.5703,-5.5703,-5.5703,-5.5703,-5.5703,-5.5703,-5.5703,-5.5703,-5.5703,-5.5703,-5.5703,-5.5703,-5.5703,-5.5703,-5.5703,-5.5703,-5.5703,-5.5703,0.0,0.0,0.0,0.0,0.0,0.0,0.0,0.0,0.0,0.0,-2.8743,-2.8639,0.0,0.0,0.0,0.0,0.0,0.0,0.0,0.0,0.0,-2.4036,-2.4164,-2.4567,-2.5226,-2.5495,-2.5978,-2.6698,-2.6969,-2.712,-2.7139,-2.7957,-2.8347,-2.8346,-2.9221,-2.9611,-2.9611,-2.9611,-2.9704,-2.9797,-2.9518,-2.9481,-2.9593,-2.9463,0.0,0.0,0.0,0.0,0.0,0.0,-3.5427,-3.7066,-3.7694,-3.9712,-4.1977,-4.2667,-4.3791,-4.48,-4.4868,-4.5222,-4.5586,-4.5586,-4.5586,-4.5586,-4.5586,-4.5586,0.0,0.0,-4.5586,-4.5586,-4.5586,-4.5586,-4.5586,-4.5586,0.0,0.0,0.0,0.0,-4.8644,0.0,0.0,0.0,0.0,0.0,0.0,0.0,-5.0702,-5.1125,-5.2068,-5.2145,-5.2933,-5.4645,-5.5338,-5.5703,-5.5703,-5.5703,-5.5703,-5.5703,-5.5703,-5.5703,-5.5703,-5.5703,-5.5703,-5.5703,-5.5703,-5.5703,-5.5703,-5.5703,-5.5703,-5.5703,-5.5703,-5.5703,-5.5703,-5.5703,-5.5703,-5.5703,0.0,0.0,0.0,0.0,0.0,0.0,0.0,-2.9197,-2.9178,-2.898,-2.8975,-2.8887,-2.8694,-2.8397,-2.8049,0.0,0.0,0.0,0.0,0.0,0.0,0.0,0.0,0.0,-2.4664,-2.4743,-2.4984,-2.5389,0.0,-2.6284,-2.6303,-2.7102,-2.7715,-2.8104,-2.8552,-2.8979,-2.9407,-2.9407,-2.9407,-2.9407,-2.9407,-2.9407,-2.9407,0.0,0.0,0.0,0.0,0.0,0.0,0.0,-3.545,-3.7169,-3.8204,-4.003,-4.1969,-4.3088,-4.398,-4.4624,-4.4751,-4.5096,-4.5419,-4.5568,-4.5586,-4.5586,-4.5586,0.0,0.0,0.0,-4.4913,-4.4913,-4.4913,0.0,0.0,0.0,0.0,0.0,0.0,0.0,0.0,0.0,0.0,0.0,0.0,0.0,-5.0702,-5.0702,-5.0702,-5.1048,-5.1875,-5.2337,-5.2972,-5.3799,-5.4645,-5.5068,-5.5068,-5.5491,-5.5703,-5.5703,-5.5703,-5.5703,-5.5703,-5.5703,-5.5703,-5.5703,-5.5703,-5.5703,-5.5703,-5.5703,-5.5703,-5.5703,-5.5703,-5.5703,-5.5703,-5.5703,-5.5703,-5.5703,0.0,0.0,0.0,0.0,0.0,0.0,0.0,-2.9262,-2.9326,-2.9178,-2.9175,-2.9089,-2.8887,-2.8839,-2.8542,0.0,0.0,0.0,0.0,0.0,0.0,0.0,0.0,0.0,0.0,0.0,0.0,0.0,-2.5041,0.0,0.0,0.0,0.0,0.0,-2.7771,-2.8329,-2.9128,-2.9128,-2.924,0.0,0.0,-2.9407,0.0,0.0,0.0,0.0,0.0,0.0,0.0,0.0,-3.5291,-3.6929,-3.8401,-4.0142,-4.1938,-4.3348,-4.4061,-4.4465,-4.4726,-4.5007,-4.5263,-4.5531,-4.5586,-4.5547,-4.5355,-4.4778,0.0,0.0,-4.4047,-4.4105,-4.4259,0.0,0.0,0.0,0.0,0.0,0.0,0.0,0.0,0.0,0.0,0.0,0.0,0.0,0.0,-5.0702,-5.0702,-5.0971,-5.1606,-5.2472,-5.2933,-5.2933,-5.378,-5.4318,-5.4491,-5.5126,-5.5434,-5.5434,-5.5434,-5.5338,-5.5164,-5.5164,-5.5164,-5.5164,-5.5164,-5.5261,-5.5434,-5.5434,-5.553,-5.5703,-5.5703,-5.5703,-5.5703,-5.5703,-5.5703,-5.5703,0.0,0.0,0.0,0.0,0.0,0.0,0.0,-2.9262,-2.9386,-2.9386,-2.9386,-2.9283,-2.9089,-2.891,-2.8779,0.0,0.0,0.0,0.0,0.0,0.0,0.0,0.0,0.0,0.0,0.0,0.0,0.0,0.0,0.0,0.0,0.0,0.0,0.0,0.0,-2.7474,-2.8216,-2.8216,0.0,0.0,0.0,0.0,0.0,0.0,0.0,0.0,0.0,0.0,0.0,0.0,0.0,-3.5919,-3.753,-3.9794,-4.2004,-4.272,0.0,0.0,-4.4726,-4.5007,-4.5263,-4.5531,-4.5586,-4.5393,-4.4605,0.0,0.0,-4.3355,-4.3201,-4.3431,-4.4162,-4.4374,-4.4682,-4.547,-4.5586,-4.5624,0.0,0.0,0.0,0.0,0.0,0.0,0.0,0.0,0.0,-5.0702,-5.0702,-5.0721,-5.0798,-5.1587,-5.2029,-5.2029,-5.2856,-5.3703,-5.4491,-5.4568,-5.4607,-5.4607,-5.4607,-5.4203,-5.3433,-5.3433,-5.3433,-5.3433,-5.3433,-5.3876,-5.4607,-5.4607,-5.503,-5.5703,-5.5703,-5.5703,-5.5703,-5.5703,-5.5703,-5.5703,0.0,0.0,0.0,0.0,0.0,0.0,-2.8887,-2.9067,-2.9218,-2.9386,-2.9326,-2.9283,-2.9283,-2.9067,-2.8934,-2.8975,0.0,0.0,0.0,0.0,0.0,0.0,0.0,0.0,0.0,0.0,-2.4465,-2.4393,-2.4465,0.0,0.0,0.0,0.0,0.0,0.0,0.0,-2.8086,-2.8086,0.0,0.0,0.0,0.0,0.0,0.0,0.0,0.0,0.0,0.0,0.0,0.0,0.0,0.0,-3.624,-3.7843,0.0,0.0,-4.3092,-4.3633,-4.4543,-4.4891,-4.5052,-4.5495,-4.5201,-4.472,-4.4374,0.0,-4.2701,-4.2374,-4.2316,-4.2585,-4.3412,-4.397,-4.4586,-4.5451,-4.5586,-4.5586,0.0,0.0,0.0,0.0,0.0,0.0,0.0,0.0,-5.0702,-5.0702,-5.0702,-5.0702,-5.0702,-5.0991,-5.1183,-5.1183,-5.1991,-5.2587,-5.2933,-5.3453,-5.3722,-5.3722,-5.3722,-5.3549,-5.3203,-5.3203,-5.3203,-5.3203,-5.3203,-5.3395,-5.3722,-5.3722,-5.4222,-5.4972,-5.4972,-5.5261,-5.5703,-5.5703,-5.5703,-5.5703,0.0,0.0,0.0,0.0,0.0,-2.8543,-2.8694,-2.8821,-2.9007,-2.9304,-2.9262,-2.924,-2.9326,-2.9178,-2.9089,-2.913,-2.8537,0.0,0.0,0.0,0.0,0.0,0.0,0.0,0.0,0.0,-2.4482,-2.45,-2.45,-2.45,0.0,0.0,0.0,0.0,0.0,0.0,0.0,0.0,0.0,0.0,0.0,0.0,0.0,0.0,0.0,0.0,0.0,0.0,0.0,0.0,0.0,0.0,0.0,0.0,0.0,0.0,-4.1887,-4.2387,-4.3706,-4.4061,-4.4197,-4.4727,-4.4393,-4.3874,0.0,0.0,-4.1739,-4.147,-4.1412,-4.1681,-4.2547,-4.3393,-4.422,-4.5066,-4.5432,-4.5586,-4.5586,0.0,0.0,0.0,0.0,0.0,0.0,-5.0702,-5.0702,-5.0702,-5.0702,-5.0702,-5.0702,-5.0702,-5.0702,-5.0702,-5.1241,-5.1664,-5.1914,-5.251,-5.2818,-5.2818,-5.2818,-5.2702,-5.2452,-5.2452,-5.2452,-5.2452,-5.2452,-5.2606,-5.2818,-5.2818,-5.3491,-5.4491,-5.4491,-5.4991,-5.5703,-5.5703,-5.5703,-5.5703,0.0,0.0,0.0,0.0,0.0,0.0,-2.8492,-2.8615,-2.8814,-2.9156,-2.92,-2.92,-2.92,-2.92,-2.92,-2.92,-2.9134,0.0,0.0,0.0,0.0,0.0,0.0,0.0,0.0,0.0,-2.443,-2.45,-2.45,-2.45,-2.45,-2.45,-2.45,-2.4518,0.0,0.0,0.0,0.0,0.0,0.0,0.0,0.0,0.0,0.0,0.0,0.0,0.0,0.0,0.0,0.0,0.0,0.0,0.0,0.0,0.0,0.0,-3.9751,-4.071,-4.1987,-4.2314,-4.2449,-4.3,-4.3124,-4.2893,0.0,0.0,-4.1566,-4.0681,-4.0508,-4.0777,-4.1662,-4.2527,-4.3374,-4.4182,-4.5028,-4.5586,-4.5586,0.0,0.0,0.0,0.0,0.0,0.0,-5.0702,-5.0702,-5.0702,-5.0702,0.0,-5.0702,-5.0702,-5.0702,-5.0702,-5.0702,-5.1087,-5.1895,-5.1914,-5.1914,-5.1914,-5.1914,-5.151,-5.0721,-5.0721,-5.0721,-5.0721,-5.0721,-5.1183,-5.1914,-5.1914,-5.2953,-5.4491,-5.4491,-5.4991,-5.5703,-5.5703,-5.5703,-5.5703,0.0,0.0,0.0,0.0,0.0,0.0,0.0,-2.85,-2.8658,-2.9134,-2.9112,-2.9108,-2.9178,-2.9156,-2.9112,-2.9112,-2.9156,0.0,0.0,0.0,0.0,0.0,0.0,0.0,0.0,0.0,-2.4482,-2.45,-2.45,-2.45,-2.45,-2.45,-2.45,-2.45,-2.45,0.0,0.0,0.0,0.0,0.0,0.0,0.0,0.0,0.0,0.0,0.0,0.0,0.0,0.0,0.0,0.0,0.0,0.0,0.0,0.0,-3.6291,0.0,0.0,-4.0942,-4.1784,-4.2386,-4.2738,-4.252,-4.2143,-4.1873,-4.1335,-4.0835,-4.0546,-4.0489,-4.0758,-4.1643,-4.2508,-4.3355,-4.4162,-4.5028,-4.5586,0.0,0.0,0.0,0.0,0.0,0.0,0.0,0.0,-5.0702,-5.0702,-5.0702,-5.0702,-5.0702,-5.0702,-5.0702,-5.0702,-5.0702,-5.0818,-5.1087,-5.1087,-5.1087,-5.1087,-5.1087,-5.0952,-5.0702,-5.0702,-5.0702,-5.0702,-5.0702,-5.0837,-5.1087,-5.1087,-5.1722,-5.2779,-5.3376,-5.4126,-5.4953,-5.5491,-5.5703,-5.5703,0.0,0.0,0.0,0.0,0.0,0.0,0.0,-2.8518,-2.8626,-2.9067,-2.9044,-2.904,-2.913,-2.9085,-2.9044,-2.9044,-2.9089,0.0,0.0,0.0,0.0,0.0,0.0,0.0,-2.4394,-2.4447,-2.4482,-2.45,-2.45,-2.45,-2.45,-2.45,-2.45,-2.45,-2.45,-2.5392,0.0,0.0,0.0,0.0,0.0,0.0,-2.9302,0.0,0.0,0.0,0.0,0.0,0.0,0.0,0.0,0.0,0.0,0.0,0.0,0.0,-3.6502,-3.8265,0.0,-4.0722,-4.1563,-4.1819,-4.1579,0.0,0.0,-4.0893,-4.0489,-4.0489,-4.0489,-4.0662,-4.12,-4.2297,-4.3258,-4.3778,-4.4816,-4.5586,0.0,0.0,0.0,0.0,0.0,0.0,0.0,-5.0702,-5.0702,-5.0702,-5.0702,-5.0702,-5.0702,-5.0702,-5.0702,-5.0702,-5.0702,-5.0702,-5.0702,-5.0702,-5.0702,-5.0702,-5.0702,-5.0702,-5.0702,-5.0702,-5.0702,-5.0702,-5.0702,-5.0702,0.0,-5.0702,-5.1164,-5.1952,-5.251,-5.3433,-5.4549,-5.5049,-5.5434,-5.5703,0.0,0.0,0.0,0.0,0.0,0.0,0.0,-2.8601,-2.8694,-2.8952,-2.8994,-2.8994,-2.8994,-2.8994,-2.8994,-2.8994,0.0,0.0,0.0,0.0,0.0,0.0,0.0,0.0,-2.4413,-2.4412,-2.4447,-2.45,-2.45,-2.45,-2.45,-2.45,-2.45,-2.45,-2.4555,-2.5467,0.0,0.0,0.0,0.0,0.0,0.0,0.0,0.0,0.0,0.0,0.0,0.0,0.0,0.0,0.0,0.0,0.0,0.0,0.0,0.0,0.0,0.0,0.0,-3.9299,0.0,0.0,0.0,0.0,0.0,-4.0489,0.0,-4.0489,-4.0489,-4.0489,-4.0489,-4.1912,-4.3104,-4.3104,-4.4509,0.0,0.0,0.0,0.0,0.0,0.0,0.0,-5.0702,-5.0702,-5.0702,-5.0702,-5.0702,-5.0702,-5.0702,-5.0702,-5.0702,-5.0702,-5.0702,-5.0702,-5.0702,-5.0702,-5.0702,-5.0702,-5.0702,-5.0702,-5.0702,-5.0702,-5.0702,-5.0702,-5.0702,-5.0702,-5.0702,-5.0702,-5.1144,-5.1818,-5.1895,-5.2933,-5.4414,-5.4472,-5.5011,-5.5703,0.0,0.0,0.0,0.0,0.0,0.0,0.0,0.0,0.0,0.0,-2.8994,-2.8994,-2.8994,-2.8994,-2.8994,0.0,0.0,0.0,0.0,0.0,0.0,0.0,0.0,0.0,-2.434,-2.4411,-2.4482,-2.45,-2.45,-2.45,-2.45,-2.45,-2.45,-2.4518,-2.5096,-2.6226,0.0,0.0,0.0,0.0,0.0,0.0,0.0,0.0,0.0,0.0,-2.9197,-3.0298,0.0,0.0,0.0,0.0,0.0,0.0,0.0,0.0,-3.5515,-3.676,-3.7656,0.0,-3.9392,-4.0096,-4.0392,-4.0489,0.0,-4.0489,-4.0489,0.0,0.0,0.0,-4.0489,-4.1912,-4.3104,-4.3104,0.0,0.0,0.0,0.0,0.0,0.0,0.0,-5.0702,-5.0702,-5.0702,-5.0702,-5.0702,-5.0702,-5.0702,-5.0702,-5.0702,-5.0702,-5.0702,-5.0702,-5.0702,-5.0702,-5.0702,-5.0702,-5.0702,-5.0702,-5.0702,-5.0702,-5.0702,-5.0702,-5.0702,-5.0702,-5.0702,-5.0702,-5.0702,-5.0798,-5.1029,-5.1664,-5.2568,-5.3587,-5.4241,-5.5011,-5.5703,0.0,0.0,0.0,0.0,0.0,0.0,0.0,0.0,0.0,0.0,0.0,-2.8994,-2.8994,-2.8994,0.0,0.0,0.0,0.0,0.0,0.0,0.0,0.0,0.0,-2.5484,-2.4284,-2.4375,-2.4447,-2.4411,-2.4447,-2.4447,-2.4411,-2.4411,-2.4411,-2.4467,-2.5616,-2.6594,0.0,0.0,0.0,0.0,-2.9156,0.0,0.0,0.0,0.0,0.0,-2.9112,-3.0212,0.0,-3.1691,-3.2813,-3.4197,0.0,0.0,0.0,0.0,-3.5412,-3.6402,-3.7517,-3.846,-3.9287,-4.0128,-4.0425,-4.0489,-4.0489,0.0,0.0,0.0,0.0,0.0,0.0,0.0,0.0,0.0,0.0,0.0,0.0,0.0,0.0,0.0,0.0,-5.0702,0.0,-5.0702,-5.0702,-5.0702,-5.0702,-5.0702,-5.0702,-5.0702,-5.0702,-5.0702,-5.0702,-5.0702,-5.0702,-5.0702,-5.0702,-5.0702,-5.0702,-5.0702,-5.0702,-5.0702,-5.0702,-5.0702,-5.0702,-5.0702,-5.0702,-5.0702,-5.0702,-5.0741,-5.1183,-5.1856,-5.2722,-5.3587,-5.4434,-5.5203,0.0,0.0,0.0,0.0,0.0,0.0,0.0,0.0,0.0,0.0,0.0,0.0,0.0,0.0,0.0,0.0,0.0,0.0,0.0,0.0,0.0,0.0,-2.6661,-2.5926,-2.4247,-2.4321,-2.4358,-2.4284,-2.4358,-2.4358,-2.4284,-2.4284,-2.4432,-2.4727,-2.6222,-2.6942,0.0,0.0,-2.9156,0.0,-2.9108,0.0,0.0,0.0,0.0,0.0,0.0,0.0,0.0,-3.1597,-3.2765,-3.4221,-3.4173,0.0,0.0,0.0,0.0,0.0,-3.7546,-3.8546,-3.9335,-4.0258,-4.0489,-4.0489,0.0,0.0,0.0,0.0,0.0,0.0,0.0,0.0,0.0,0.0,0.0,0.0,0.0,0.0,0.0,0.0,0.0,0.0,-5.0702,-5.0702,-5.0702,-5.0702,-5.0702,-5.0702,-5.0702,-5.0702,-5.0702,-5.0702,-5.0702,-5.0702,-5.0702,-5.0702,-5.0702,-5.0702,-5.0702,-5.0702,-5.0702,-5.0702,-5.0702,-5.0702,-5.0702,-5.0702,-5.0702,-5.0702,-5.0702,-5.0702,-5.0702,-5.1183,-5.1991,-5.2741,-5.3645,-5.4626,0.0,0.0,0.0,0.0,0.0,0.0,0.0,0.0,0.0,0.0,0.0,0.0,0.0,0.0,0.0,0.0,0.0,0.0,0.0,0.0,0.0,-2.6667,-2.6654,-2.5923,-2.4247,-2.4284,-2.4321,-2.4284,-2.4321,-2.4321,-2.4284,-2.4284,-2.5022,-2.6364,-2.7303,-2.8055,-2.8672,-2.8929,-2.904,-2.904,-2.9017,0.0,0.0,0.0,0.0,0.0,0.0,0.0,0.0,-3.1597,-3.2836,-3.4381,-3.4409,0.0,0.0,0.0,0.0,0.0,-3.7531,-3.8104,-3.8565,-4.0104,-4.0489,-4.0489,0.0,0.0,0.0,0.0,0.0,0.0,0.0,0.0,0.0,0.0,0.0,0.0,0.0,0.0,0.0,-4.9029,0.0,-5.0702,-5.0702,-5.0702,-5.0702,-5.0702,-5.0702,-5.0702,-5.0702,-5.0702,-5.0702,-5.0702,-5.0702,-5.0702,-5.0702,-5.0702,-5.0702,-5.0702,-5.0702,-5.0702,-5.0702,-5.0702,-5.0702,-5.0702,-5.0702,-5.0702,-5.0702,-5.0702,-5.0702,-5.0702,-5.0702,-5.1183,-5.1933,-5.2049,-5.3126,-5.4626,0.0,0.0,0.0,0.0,0.0,0.0,0.0,0.0,0.0,0.0,0.0,0.0,0.0,0.0,0.0,0.0,0.0,0.0,0.0,0.0,-2.8305,-2.6667,-2.6633,-2.5862,-2.4246,-2.4229,-2.4247,-2.4266,-2.4247,-2.4247,-2.4266,-2.4689,-2.5295,-2.6048,-2.7298,-2.8029,-2.8374,-2.8833,-2.8994,-2.8994,0.0,0.0,0.0,0.0,0.0,0.0,0.0,0.0,0.0,0.0,-3.3278,-3.4409,-3.4524,0.0,0.0,0.0,0.0,0.0,-3.6944,-3.7647,-3.8296,-3.9527,-4.0181,-4.0489,0.0,0.0,0.0,0.0,0.0,0.0,0.0,0.0,0.0,0.0,0.0,0.0,0.0,-4.6913,-4.7528,0.0,0.0,-5.0702,-5.0702,-5.0702,-5.0702,-5.0702,-5.0702,-5.0702,-5.0702,-5.0702,-5.0702,-5.0702,-5.0702,-5.0702,-5.0702,-5.0702,-5.0702,-5.0702,-5.0702,-5.0702,-5.0702,-5.0702,-5.0702,-5.0702,-5.0702,-5.0702,-5.0702,-5.0702,-5.0702,-5.0702,-5.0702,-5.0933,-5.1298,-5.1741,-5.301,-5.4549,0.0,0.0,0.0,0.0,0.0,0.0,0.0,0.0,0.0,0.0,0.0,0.0,0.0,0.0,0.0,0.0,0.0,0.0,0.0,-2.8994,-2.8278,-2.6667,-2.6612,-2.586,-2.4245,-2.4209,-2.4209,-2.419,-2.4209,-2.4301,-2.4502,-2.5291,-2.5788,-2.6027,-2.7438,-2.8081,-2.8117,-2.8741,-2.8994,-2.8994,0.0,0.0,0.0,0.0,0.0,0.0,0.0,0.0,0.0,0.0,0.0,0.0,0.0,0.0,0.0,-3.5069,-3.5219,-3.5571,-3.6469,-3.7343,-3.82,-3.9084,0.0,0.0,0.0,0.0,0.0,0.0,0.0,0.0,0.0,0.0,0.0,0.0,0.0,-4.497,-4.6913,-4.7028,-4.7605,-4.9471,-5.0279,-5.0702,-5.0702,-5.0702,-5.0702,-5.0702,-5.0702,-5.0702,-5.0702,-5.0702,-5.0702,-5.0702,-5.0702,-5.0702,-5.0702,-5.0702,-5.0702,-5.0702,-5.0702,-5.0702,-5.0702,-5.0702,-5.0702,-5.0702,-5.0702,-5.0702,-5.0702,-5.0702,-5.0702,-5.0702,-5.0702,-5.0702,-5.0798,-5.1606,-5.2741,-5.3914,0.0,0.0,0.0,0.0,0.0,0.0,0.0,0.0,0.0,0.0,0.0,0.0,0.0,0.0,0.0,0.0,0.0,0.0,0.0,-2.8994,-2.8278,-2.6667,-2.6612,-2.586,-2.4245,-2.419,-2.419,-2.419,-2.419,-2.4575,-2.5329,-2.6135,-2.6906,-2.7658,-2.8539,-2.8902,-2.892,-2.8975,-2.8994,-2.8994,-2.8994,0.0,0.0,0.0,0.0,0.0,0.0,0.0,0.0,0.0,0.0,0.0,0.0,0.0,-3.519,-3.527,-3.5281,-3.5507,-3.6454,-3.7343,-3.82,-3.9084,-3.9892,0.0,-4.0489,-4.1123,0.0,-4.172,0.0,0.0,0.0,0.0,0.0,0.0,0.0,-4.5163,-4.7663,0.0,-4.7817,-5.0298,-5.0644,-5.0702,-5.0702,-5.0702,-5.0702,-5.0702,-5.0702,-5.0702,-5.0702,-5.0702,-5.0702,-5.0702,-5.0702,-5.0702,-5.0702,-5.0702,-5.0702,-5.0702,-5.0702,-5.0702,-5.0702,-5.0702,-5.0702,-5.0702,-5.0702,-5.0702,-5.0702,-5.0702,-5.0702,-5.0702,-5.0702,-5.0702,-5.0798,-5.1606,-5.1991,-5.2202,0.0,0.0,0.0,0.0,0.0,0.0,0.0,0.0,0.0,0.0,0.0,0.0,0.0,0.0,0.0,0.0,0.0,0.0,0.0,-2.8539,-2.7769,-2.6649,-2.6117,-2.5328,-2.4226,-2.419,-2.419,-2.419,-2.419,-2.4612,-2.5421,-2.6227,-2.7034,-2.7824,-2.865,-2.8994,-2.8994,-2.8994,-2.8994,-2.8994,-2.8994,-2.8994,0.0,0.0,0.0,0.0,0.0,0.0,0.0,0.0,-3.4508,-3.4908,-3.5053,-3.5141,-3.519,-3.5223,-3.527,-3.5392,-3.5733,-3.6887,-3.8084,-3.8411,-3.9912,0.0,0.0,-4.1566,-4.195,-4.2508,-4.3508,0.0,0.0,0.0,0.0,0.0,-4.5778,-4.6432,-4.7894,-4.8298,-4.9009,-5.051,-5.0702,-5.0702,-5.0702,-5.0702,-5.0702,-5.0702,-5.0702,-5.0702,-5.0702,-5.0702,-5.0702,-5.0702,-5.0702,-5.0702,-5.0702,-5.0702,-5.0702,-5.0702,-5.0702,-5.0702,-5.0702,-5.0702,-5.0702,-5.0702,-5.0702,-5.0702,-5.0702,-5.0702,-5.0702,-5.0702,-5.0702,-5.0702,-5.0741,-5.1029,-5.1471,-5.1952,0.0,0.0,0.0,0.0,0.0,0.0,0.0,0.0,0.0,0.0,0.0,0.0,0.0,0.0,0.0,0.0,0.0,0.0,-2.8994,-2.8246,-2.7438,-2.6649,-2.5823,-2.5035,-2.4208,-2.419,-2.419,-2.419,-2.4447,-2.4979,-2.5786,-2.6594,-2.742,-2.8209,-2.8737,-2.8994,-2.8994,-2.8994,-2.8994,-2.8994,-2.8994,-2.8994,0.0,0.0,0.0,0.0,0.0,0.0,0.0,0.0,-3.4926,-3.5019,-3.5176,-3.5209,-3.5209,-3.5226,-3.5254,-3.5296,-3.533,-3.6642,-3.8007,0.0,0.0,0.0,-4.2162,-4.2412,-4.2758,-4.3355,-4.4143,0.0,0.0,0.0,0.0,0.0,-4.6336,-4.7182,-4.799,-4.8856,-4.9721,-5.0587,-5.0702,-5.0702,-5.0702,-5.0702,-5.0702,-5.0702,-5.0702,-5.0702,-5.0702,-5.0702,-5.0702,-5.0702,-5.0702,-5.0702,-5.0702,-5.0702,-5.0702,-5.0702,-5.0702,-5.0702,-5.0702,-5.0702,-5.0702,-5.0702,-5.0702,-5.0702,-5.0702,-5.0702,-5.0702,-5.0702,-5.0702,-5.0702,-5.0702,-5.0702,-5.1048,-5.1529,0.0,0.0,0.0,0.0,0.0,0.0,0.0,0.0,0.0,0.0,0.0,0.0,0.0,0.0,0.0,0.0,0.0,0.0,-2.8994,-2.8246,-2.742,-2.6649,-2.5805,-2.5017,-2.4208,-2.419,-2.419,-2.419,-2.5017,-2.5805,-2.6631,-2.742,-2.8227,-2.9017,-2.8994,-2.8994,-2.8994,-2.8994,-2.8994,-2.8994,-2.8994,-2.8994,-2.8994,0.0,0.0,0.0,0.0,0.0,0.0,0.0,-3.5037,-3.5209,-3.5209,-3.5209,-3.5209,-3.5277,-3.5304,-3.5315,-3.5379,-3.6671,-3.8007,0.0,0.0,0.0,-4.2893,-4.372,-4.4297,-4.4316,0.0,-4.5586,-4.5586,0.0,0.0,-4.5586,-4.6336,-4.7182,-4.799,-4.8856,-4.9721,-5.0587,-5.0702,-5.0702,-5.0702,-5.0702,-5.0702,-5.0702,-5.0702,-5.0702,-5.0702,-5.0702,-5.0702,-5.0702,-5.0702,-5.0702,-5.0702,-5.0702,-5.0702,-5.0702,-5.0702,-5.0702,-5.0702,-5.0702,-5.0702,-5.0702,-5.0702,-5.0702,-5.0702,-5.0702,-5.0702,-5.0683,-5.0683,-5.0683,-5.0702,-5.0702,-5.0702,-5.0702,0.0,0.0,0.0,0.0,0.0,0.0,0.0,0.0,0.0,0.0,0.0,0.0,0.0,0.0,0.0,0.0,0.0,0.0,-2.8994,-2.7806,-2.6984,-2.6743,-2.543,-2.4579,-2.4356,-2.4247,-2.419,-2.419,-2.5017,-2.5887,-2.6839,-2.7488,-2.8298,-2.9206,-2.9067,-2.8994,-2.8994,-2.8994,-2.8994,-2.8994,-2.8994,-2.9347,-2.9866,0.0,0.0,0.0,0.0,0.0,0.0,0.0,0.0,0.0,-3.5261,-3.5277,-3.5277,-3.5304,-3.5335,-3.5364,-3.5379,-3.6671,0.0,0.0,0.0,0.0,0.0,-4.372,0.0,0.0,-4.5413,-4.5586,-4.5586,-4.5586,0.0,-4.5586,-4.6336,-4.7182,-4.799,-4.8856,-4.9721,-5.0587,-5.0702,-5.0702,-5.0702,-5.0702,-5.0702,-5.0702,-5.0702,-5.0702,-5.0702,-5.0702,-5.0702,-5.0702,-5.0702,-5.0702,-5.0702,-5.0702,-5.0702,-5.0702,-5.0702,-5.0702,-5.0702,-5.0702,-5.0702,-5.0702,-5.0702,-5.0702,-5.0683,-5.0442,-5.0358,-5.0336,-5.0155,-5.0178,-5.0358,-5.0358,-5.0504,-5.0702,0.0,0.0,0.0,0.0,0.0,0.0,0.0,0.0,0.0,0.0,0.0,0.0,0.0,0.0,0.0,0.0,0.0,0.0,0.0,-2.738,-2.6576,-2.6261,-2.5023,-2.4321,-2.4321,-2.4228,-2.4355,-2.4667,-2.5556,-2.63,-2.6916,-2.7927,-2.8722,-2.9293,-2.9089,-2.8994,-2.8994,-2.8994,-2.9044,-2.9152,-2.9507,-2.9958,-3.0531,0.0,0.0,0.0,0.0,0.0,0.0,0.0,0.0,0.0,-3.5261,-3.5277,-3.5293,-3.53,-3.535,-3.5412,-3.5427,0.0,0.0,0.0,0.0,0.0,0.0,0.0,0.0,0.0,0.0,-4.5586,-4.5586,-4.5586,0.0,-4.5586,-4.6336,-4.7067,-4.7567,-4.8644,-4.9586,-5.0106,-5.0491,-5.0702,-5.0702,-5.0702,-5.0702,-5.0702,-5.0702,-5.0702,-5.0702,-5.0702,-5.0702,-5.0702,-5.0702,-5.0702,-5.0702,-5.0565,-5.0504,-5.0504,-5.0399,-5.0355,-5.0355,-5.0584,-5.0702,-5.0683,-5.0565,-5.0504,-5.0483,-5.0178,-5.0092,-5.0183,-5.0019,-5.0135,-5.0399,-5.0399,-5.0544,-5.0702,0.0,0.0,0.0,0.0,0.0,0.0,0.0,0.0,0.0,0.0,0.0,0.0,0.0,0.0,0.0,0.0,0.0,0.0,0.0,-2.7056,-2.6248,-2.5459,-2.4651,-2.4209,-2.419,-2.419,-2.4575,-2.5403,-2.6374,-2.6916,-2.7046,-2.8569,-2.9272,-2.9293,-2.9089,-2.8994,-2.8994,-2.9017,-2.9175,-2.95,-3.0304,-3.082,-3.1204,-3.1957,0.0,0.0,0.0,0.0,0.0,0.0,0.0,0.0,-3.5209,-3.5261,-3.5293,-3.53,-3.5364,-3.5432,-3.557,0.0,0.0,0.0,0.0,0.0,0.0,0.0,0.0,0.0,0.0,-4.5586,-4.5586,-4.5586,-4.5586,-4.5586,-4.6259,-4.6817,-4.6894,-4.8221,-4.9202,-4.926,-5.0048,-5.0567,-5.0567,-5.0644,-5.0702,-5.0702,-5.0702,-5.0702,-5.0702,-5.0702,-5.0702,-5.0702,-5.0663,-5.0644,-5.0644,-5.0336,-5.0159,-5.0159,-4.9936,-4.9803,-4.983,-5.0377,-5.0604,-5.0604,-5.0313,-5.0159,-5.0159,-4.9865,-4.991,-5.0135,-5.0092,-5.0291,-5.0584,-5.0604,-5.0624,-5.0663,0.0,0.0,0.0,0.0,0.0,0.0,0.0,0.0,0.0,0.0,0.0,0.0,0.0,0.0,0.0,0.0,0.0,0.0,0.0,-2.7145,-2.6393,-2.5597,-2.4782,-2.4302,-2.419,-2.419,-2.4575,-2.5403,-2.6252,-2.7073,-2.7864,-2.8676,-2.916,-2.9293,-2.9089,-2.8994,-2.9017,-2.9181,-2.9662,-3.0339,-3.0691,-3.1615,-3.284,-3.3204,-3.3885,0.0,0.0,0.0,0.0,0.0,0.0,0.0,-3.5261,-3.5277,-3.5308,-3.535,-3.5398,-3.5547,0.0,0.0,0.0,0.0,0.0,0.0,0.0,0.0,0.0,-4.5586,-4.5586,-4.5586,-4.5586,-4.5586,-4.5586,-4.5586,-4.5759,-4.6124,-4.6797,-4.7221,-4.7682,-4.8298,-4.9144,-4.9683,-4.9683,-5.0298,-5.0702,-5.0702,-5.0702,-5.0702,-5.0702,-5.0702,-5.0702,-5.0702,-5.0442,-5.0294,-5.0294,-5.0038,-4.991,-4.9884,-4.983,-4.9803,-4.9784,-4.9936,-4.9987,-4.9987,-4.9936,-4.991,-4.9884,-4.9598,-4.9529,-4.9558,-4.9265,-4.9389,-4.9703,-4.9929,-5.013,-5.0358,0.0,0.0,0.0,0.0,0.0,0.0,0.0,0.0,0.0,0.0,0.0,0.0,0.0,0.0,0.0,0.0,0.0,0.0,0.0,0.0,-2.5838,-2.4968,-2.4524,-2.4266,-2.419,-2.4575,-2.5162,-2.597,-2.6778,-2.7493,-2.8104,-2.8815,-2.9206,-2.9293,-2.9089,-2.9044,-2.9178,-2.9697,-3.0213,-3.0783,-3.1826,-3.2732,-3.3506,-3.4166,-3.4674,-3.5054,-3.5157,0.0,0.0,0.0,0.0,0.0,0.0,0.0,-3.5312,-3.5339,-3.5383,-3.5585,0.0,0.0,0.0,0.0,0.0,0.0,0.0,0.0,0.0,-4.5586,-4.5586,-4.5586,-4.5586,-4.5586,-4.5586,-4.5586,-4.5586,-4.5759,-4.6201,-4.6644,-4.7067,-4.749,-4.8279,-4.8779,-4.8779,-4.9567,-5.0067,-5.0067,-5.0452,-5.0624,-5.0483,-5.0442,-5.0399,-5.0268,-5.0087,-4.9993,-4.9993,-4.9749,-4.9598,-4.9598,-4.945,-4.9389,-4.937,-4.9665,-4.9803,-4.9784,-4.9665,-4.9598,-4.9569,-4.9302,-4.9257,-4.9384,-4.9225,-4.9315,-4.9598,-4.9749,-4.9891,-5.0062,0.0,0.0,0.0,0.0,0.0,0.0,0.0,0.0,0.0,0.0,0.0,0.0,0.0,0.0,0.0,0.0,0.0,0.0,0.0,0.0,0.0,-2.4246,-2.419,-2.4263,-2.4392,-2.5072,-2.586,-2.6814,-2.7475,-2.7969,-2.8266,-2.8934,-2.9249,-2.9249,-2.9067,-2.9093,-2.9326,-3.0203,-3.074,-3.1127,-3.2921,-3.3714,-3.3922,-3.4823,-3.5157,-3.5209,-3.5209,-3.5209,-3.5209,-3.5209,0.0,0.0,0.0,0.0,-3.5296,-3.5312,-3.5339,-3.5571,0.0,0.0,0.0,0.0,0.0,0.0,0.0,0.0,0.0,-4.5586,-4.5586,-4.5586,-4.5586,-4.5586,-4.5586,-4.5586,-4.5586,-4.5586,-4.5586,-4.622,-4.6682,-4.6682,-4.7357,-4.7818,-4.7818,-4.8587,-4.9106,-4.9106,-4.9893,-5.0272,-5.0015,-5.0083,-5.0038,-4.9803,-4.9749,-4.9721,-4.9721,-4.9439,-4.9302,-4.9321,-4.9027,-4.8909,-4.8943,-4.9401,-4.9646,-4.9637,-4.9408,-4.9302,-4.9289,-4.9027,-4.9061,-4.9302,-4.9302,-4.9469,-4.9665,-4.9721,-4.9721,-4.9776,0.0,0.0,0.0,0.0,0.0,0.0,0.0,0.0,0.0,0.0,0.0,0.0,0.0,0.0,0.0,0.0,0.0,0.0,0.0,0.0,0.0,-2.4209,-2.419,-2.452,-2.5219,-2.5348,-2.6156,-2.764,-2.775,-2.8176,-2.8897,-2.9007,-2.9044,-2.9044,-2.9017,-2.8998,-2.9099,-3.0076,-3.0968,-3.1759,-3.2908,-3.3902,-3.4737,-3.4889,-3.5054,-3.5209,-3.5209,-3.5209,-3.5209,-3.5209,-3.5209,0.0,0.0,0.0,-3.5226,-3.5277,-3.5304,-3.5522,0.0,0.0,0.0,0.0,0.0,0.0,0.0,0.0,-4.5586,0.0,-4.5586,-4.5586,-4.5586,-4.5586,-4.5586,-4.5586,-4.5586,-4.5586,-4.5586,-4.5701,-4.5759,-4.5759,-4.632,-4.6717,-4.6717,-4.7463,-4.7941,-4.7941,-4.8723,-4.9217,-4.9152,-4.9607,-4.9857,-4.9803,-4.9569,-4.9457,-4.9457,-4.9127,-4.8978,-4.8978,-4.8943,-4.8909,-4.8909,-4.8993,-4.9008,-4.9008,-4.8993,-4.8978,-4.8959,-4.8909,-4.8943,-4.8978,-4.8978,-4.8993,-4.9042,-4.9365,-4.9457,-4.9469,0.0,0.0,0.0,0.0,0.0,0.0,0.0,0.0,0.0,0.0,0.0,0.0,0.0,0.0,0.0,0.0,0.0,0.0,0.0,0.0,0.0,-2.4209,-2.463,-2.5054,-2.5403,-2.6284,-2.709,-2.7787,-2.8246,-2.8668,0.0,-2.8994,-2.8994,-2.8994,-2.8994,-2.9324,-2.9898,-3.0828,-3.1689,-3.2511,-3.3705,-3.4392,-3.4694,-3.4963,-3.5124,-3.5209,-3.5209,-3.5209,-3.5209,-3.5209,-3.5209,-3.5209,-3.5209,0.0,0.0,0.0,-3.5258,0.0,0.0,0.0,0.0,0.0,0.0,0.0,0.0,0.0,-4.5009,-4.549,-4.5586,-4.5586,-4.5586,-4.5586,-4.5586,-4.5586,-4.5586,-4.5586,-4.5586,-4.5586,-4.5531,-4.5381,-4.5607,-4.5712,-4.5559,-4.6321,-4.6796,-4.6796,-4.7577,-4.7979,-4.7844,-4.8484,-4.8765,-4.8621,-4.8931,-4.9127,-4.9127,-4.8959,-4.8909,-4.8909,-4.8909,-4.8909,-4.8909,-4.8909,-4.8909,-4.8909,-4.8909,-4.8909,-4.8909,-4.8909,-4.8909,-4.8909,-4.8909,-4.8909,-4.8909,-4.9061,-4.9127,-4.9141,0.0,0.0,0.0,0.0,0.0,0.0,0.0,0.0,0.0,0.0,0.0,0.0,0.0,0.0,0.0,0.0,0.0,0.0,0.0,0.0,0.0,-2.4521,-2.5333,-2.5849,-2.6009,-2.7245,-2.7945,-2.8099,-2.8723,0.0,-2.8994,-2.8994,-2.8994,0.0,-2.8994,-2.9531,-3.0483,0.0,0.0,0.0,-3.4145,-3.4612,-3.4614,-3.4907,-3.5107,-3.5209,-3.5209,-3.5209,-3.5209,-3.5209,-3.5209,-3.5209,-3.5209,-3.5209,0.0,0.0,0.0,0.0,0.0,0.0,0.0,0.0,0.0,0.0,0.0,0.0,-4.4547,0.0,-4.5586,-4.5586,-4.5586,-4.5586,-4.5586,-4.5586,-4.5586,-4.5586,-4.5586,-4.5531,-4.5419,-4.5222,-4.5074,-4.4919,-4.4726,-4.5287,-4.5672,-4.5672,-4.641,-4.6785,-4.659,-4.726,-4.7591,-4.7386,-4.8184,-4.8612,-4.8612,-4.8797,-4.8909,-4.8909,-4.8909,-4.8909,-4.8909,-4.8909,-4.8909,-4.8909,-4.8909,-4.8909,-4.8909,-4.8909,-4.8909,-4.8909,-4.8909,-4.8909,-4.8909,-4.8909,-4.8909,-4.8943,0.0,0.0,0.0,0.0,0.0,0.0,0.0,0.0,0.0,0.0,0.0,0.0,-2.6953,-2.6389,-2.5901,-2.569,-2.5227,-2.4889,-2.4707,-2.5239,-2.5486,-2.5348,-2.6301,0.0,-2.7662,-2.7927,-2.8352,-2.892,0.0,0.0,-2.8994,-2.8994,-2.8994,-2.8994,-2.8994,-2.9457,-3.027,0.0,0.0,0.0,0.0,-3.4255,-3.4851,-3.4614,-3.4813,-3.5209,-3.5209,-3.5209,-3.5209,-3.5209,-3.5209,-3.5209,-3.5209,-3.5209,-3.5209,0.0,0.0,0.0,0.0,0.0,0.0,0.0,0.0,0.0,0.0,0.0,0.0,-4.5413,-4.5586,-4.5586,-4.5586,-4.5586,-4.5586,-4.5586,-4.5586,-4.5586,-4.5586,-4.5362,-4.5222,-4.5201,-4.4751,-4.4438,-4.4411,-4.4448,-4.4486,-4.4486,-4.5237,-4.566,-4.5679,-4.624,-4.6583,-4.655,-4.7348,-4.7757,-4.7757,-4.8519,-4.8909,-4.8909,-4.8909,-4.8909,-4.8909,-4.8909,-4.8909,-4.8909,-4.8909,-4.8909,-4.8909,-4.8909,-4.8909,-4.8909,-4.8909,-4.8909,-4.8909,-4.8909,-4.8909,-4.8909,0.0,0.0,0.0,0.0,0.0,0.0,0.0,0.0,0.0,0.0,0.0,0.0,0.0,-2.5708,-2.5375,-2.4872,-2.5144,-2.5549,-2.6021,-2.6171,-2.6215,-2.6172,-2.7009,-2.7582,-2.7787,-2.839,-2.8772,-2.8994,-2.8994,-2.8994,-2.8994,-2.8994,-2.9292,-2.9769,-2.9769,-3.0228,-3.1017,-3.1825,0.0,0.0,0.0,0.0,0.0,0.0,0.0,0.0,0.0,0.0,-3.5037,-3.5176,-3.5209,-3.5209,-3.5209,-3.5209,-3.5305,-3.5878,0.0,0.0,0.0,0.0,0.0,0.0,0.0,0.0,0.0,-4.2912,-4.3758,-4.4586,-4.5201,-4.5586,-4.5586,-4.5586,-4.5586,-4.5586,-4.5586,-4.555,-4.5381,-4.5263,-4.5074,-4.4726,-4.4519,-4.4346,-4.4151,-4.4151,-4.4151,-4.4151,-4.4412,-4.458,-4.458,-4.5313,-4.5732,-4.5732,-4.6513,-4.6921,-4.6921,-4.7218,-4.7367,-4.7367,-4.7367,-4.7627,-4.8129,-4.8129,-4.8407,-4.8909,-4.8909,-4.8909,-4.8909,-4.8909,-4.8909,-4.8909,-4.8909,-4.8909,-4.8909,-4.8909,-4.8909,-4.8909,0.0,0.0,0.0,0.0,0.0,0.0,0.0,0.0,0.0,-2.6413,0.0,0.0,0.0,0.0,-2.5411,-2.5314,-2.5708,-2.6209,-2.6728,-2.6898,-2.6973,-2.6973,-2.7834,-2.8261,-2.8191,-2.8533,-2.8791,-2.8994,-2.8741,-2.8741,-2.8994,-2.8994,-2.9439,-3.021,-3.0485,-3.1054,0.0,0.0,0.0,-3.3947,0.0,0.0,-3.4321,0.0,0.0,0.0,0.0,0.0,0.0,-3.5054,-3.535,-3.5649,-3.5649,-3.5821,-3.6146,0.0,0.0,0.0,-3.9047,0.0,0.0,0.0,0.0,0.0,0.0,0.0,-4.2953,-4.4066,-4.4759,-4.5222,-4.5437,-4.5476,-4.5495,-4.5586,-4.5513,-4.54,-4.5222,-4.5118,-4.4896,-4.4438,-4.4318,-4.421,-4.4036,-4.4005,-4.4005,-4.4005,-4.4005,-4.4005,-4.4005,-4.4544,-4.4989,-4.5287,-4.5807,-4.6234,-4.6494,-4.6494,-4.6494,-4.6494,-4.6494,-4.6773,-4.7293,-4.7293,-4.7738,-4.85,-4.85,-4.8649,-4.8909,-4.8909,-4.8909,-4.8909,-4.8909,-4.8909,-4.8909,-4.8909,-4.8909,-4.8909,0.0,0.0,0.0,0.0,0.0,0.0,0.0,0.0,-2.5384,-2.5403,0.0,0.0,0.0,0.0,0.0,-2.7043,-2.6878,-2.6742,-2.676,-2.7365,-2.773,-2.773,-2.8738,-2.9206,-2.9017,-2.8426,-2.8408,-2.8994,-2.8227,-2.8227,-2.8994,-2.9012,-2.9475,-3.0265,-3.1072,-3.188,-3.2651,0.0,-3.3246,-3.4173,0.0,-3.4062,-3.4464,0.0,0.0,0.0,-3.4505,-3.471,0.0,-3.4946,0.0,0.0,0.0,0.0,0.0,0.0,0.0,0.0,0.0,0.0,0.0,0.0,0.0,0.0,-4.1569,0.0,-4.217,-4.3893,-4.4259,-4.4458,-4.5051,-4.5182,-4.5263,-4.5531,-4.5362,-4.518,-4.518,-4.4943,-4.4676,-4.4411,-4.4151,-4.4005,-4.4005,-4.4005,-4.4005,-4.4005,-4.4005,-4.4005,-4.4005,-4.4005,-4.4395,-4.5231,-4.5249,-4.5639,-4.642,-4.642,-4.642,-4.642,-4.642,-4.6438,-4.6457,-4.6457,-4.6903,-4.7664,-4.7683,-4.8147,-4.8872,-4.889,-4.8909,-4.8909,-4.8909,-4.8909,-4.8909,-4.8909,-4.8909,-4.8909,0.0,0.0,0.0,0.0,0.0,-2.4811,-2.4869,-2.4647,-2.4682,0.0,0.0,0.0,-2.6112,-2.6245,-2.6599,-2.7451,-2.7503,-2.7721,-2.8327,-2.8539,-2.864,-2.864,-2.8915,-2.9067,-2.8994,-2.8823,-2.8823,-2.8994,-2.8796,-2.8796,-2.8994,-2.9604,-3.0301,-3.1091,-3.1916,-3.2706,-3.3476,-3.3476,0.0,-3.3895,-3.3815,-3.3895,0.0,0.0,0.0,0.0,0.0,-3.5571,-3.6166,0.0,-3.668,-3.711,0.0,0.0,0.0,0.0,0.0,0.0,-3.9947,0.0,0.0,0.0,0.0,0.0,0.0,0.0,-4.1915,-4.2393,-4.329,-4.4058,-4.4227,-4.4455,-4.4726,-4.4985,-4.4962,-4.4849,-4.465,-4.4546,-4.443,-4.4151,-4.4048,-4.4005,-4.4005,-4.4005,-4.4005,-4.4005,-4.4005,-4.4005,-4.4005,-4.4005,-4.4116,-4.4358,-4.4358,-4.4469,-4.4692,-4.4692,-4.4692,-4.4692,-4.4692,-4.5026,-4.5621,-4.5621,-4.6067,-4.6865,-4.746,-4.7831,-4.8091,-4.8667,-4.8909,-4.8909,-4.8909,-4.8909,-4.8909,-4.8909,-4.8909,-4.8909,0.0,0.0,0.0,0.0,0.0,-2.4261,-2.463,-2.4646,-2.4901,0.0,0.0,0.0,-2.6889,-2.7273,-2.7675,-2.8127,-2.8164,-2.837,-2.8845,-2.8881,-2.8881,-2.8923,-2.8929,-2.8952,-2.8994,-2.8686,-2.8668,-2.8994,-2.8994,-2.9159,-2.9531,-3.032,-3.1127,-3.1916,0.0,0.0,0.0,0.0,0.0,0.0,-3.3807,0.0,0.0,-3.4174,-3.4596,0.0,0.0,0.0,-3.663,-3.6721,-3.7188,0.0,0.0,0.0,0.0,0.0,0.0,0.0,0.0,0.0,0.0,0.0,0.0,0.0,-4.0252,-4.0651,-4.1129,-4.1548,-4.2298,-4.3018,-4.351,-4.3775,-4.4016,-4.4401,-4.4457,-4.4457,-4.443,-4.4383,-4.4289,-4.4017,-4.4005,-4.4005,-4.4005,-4.4005,-4.4005,-4.4005,-4.4005,-4.4005,-4.4005,-4.4005,-4.4005,-4.4005,-4.4005,-4.4005,-4.4005,-4.4005,-4.4005,-4.4005,-4.4005,-4.4265,-4.4748,-4.4748,-4.5212,-4.603,-4.6847,-4.7386,-4.7757,-4.8574,-4.8909,-4.8909,-4.8909,-4.8909,-4.8909,-4.8909,-4.8909,-4.8909,0.0,0.0,-2.4318,-2.4318,-2.4392,-2.4684,-2.5401,-2.5468,-2.5701,0.0,-2.6644,-2.6945,-2.7638,-2.8419,-2.8858,-2.8785,-2.8737,-2.8694,-2.8694,-2.8718,-2.8798,-2.8937,-2.9009,-2.9093,-2.925,-2.8576,-2.8558,-2.925,-2.925,-2.9641,-3.0356,-3.1164,-3.1916,-3.2614,0.0,0.0,0.0,0.0,0.0,-3.3807,-3.3807,-3.3844,0.0,0.0,-3.5119,-3.5385,-3.6156,-3.662,-3.683,-3.6883,-3.7511,0.0,0.0,0.0,0.0,0.0,-3.967,0.0,0.0,0.0,0.0,0.0,-3.95,0.0,-3.988,-3.9901,-4.011,-4.1033,-4.1261,-4.1627,-4.2697,-4.3023,-4.3287,-4.3776,-4.3949,-4.4079,-4.4318,-4.4346,-4.4279,-4.4036,-4.4005,-4.4005,-4.4005,-4.4005,-4.4005,-4.4005,-4.4005,-4.4005,-4.4005,-4.4005,-4.4005,-4.4005,-4.4005,-4.4005,-4.4005,-4.4005,-4.4005,-4.4005,-4.4005,-4.4005,-4.4005,-4.4005,-4.4413,-4.5212,-4.6104,-4.6903,-4.7646,-4.8537,-4.8909,-4.8909,-4.8909,-4.8909,-4.8909,-4.8909,-4.8909,-4.8909,0.0,0.0,-2.5182,-2.5182,-2.5615,-2.6048,-2.6255,-2.6231,-2.6502,-2.7346,-2.7976,-2.8385,-2.8464,-2.8628,-2.8718,-2.8718,-2.8761,-2.8785,-2.8785,-2.8834,-2.9156,-2.982,-2.9905,-3.0265,-3.0907,-3.0779,-3.076,-3.0925,-3.0925,-3.0999,-3.1182,-3.199,-3.2467,-3.2632,-3.3293,0.0,0.0,0.0,0.0,-3.3807,-3.3807,-3.4192,-3.477,-3.4935,-3.5844,-3.7019,-3.7184,-3.7691,-3.8313,-3.8554,-3.8738,-3.8995,0.0,0.0,0.0,-3.9526,0.0,0.0,0.0,0.0,0.0,0.0,-3.9494,0.0,-3.9576,-3.9622,-3.9724,-3.9917,-4.0339,-4.0746,-4.0977,-4.2015,-4.2835,-4.294,-4.3547,-4.4036,-4.4079,-4.4079,-4.4048,-4.4005,-4.4005,-4.4005,-4.4005,-4.4005,-4.4005,-4.4005,-4.4005,-4.4005,-4.4005,-4.4005,-4.4005,-4.4005,-4.4005,-4.4005,-4.4005,-4.4005,-4.4005,-4.4005,-4.4005,-4.4005,-4.4005,-4.4005,-4.4098,-4.4339,-4.5844,-4.6587,-4.6847,-4.8296,-4.8909,-4.8909,-4.8909,-4.8909,-4.8909,-4.8909,-4.8909,-4.8909,0.0,-2.5651,-2.5905,-2.5905,-2.6194,-2.6593,-2.6995,-2.7027,-2.7296,-2.8099,-2.853,-2.8718,-2.8662,-2.9032,-2.9286,-2.9243,-2.965,-2.9911,-2.9911,-2.997,-3.0202,-3.0629,-3.0723,-3.0956,-3.1384,-3.1384,-3.1384,-3.1384,-3.1806,-3.2008,-3.2027,-3.2816,-3.3201,-3.322,-3.3623,-3.3807,0.0,0.0,-3.4027,-3.4412,-3.4412,0.0,-3.5082,-3.5936,-3.6762,-3.7562,-3.7936,-3.8358,-3.8738,-3.8851,-3.891,0.0,-3.9045,-3.9192,-3.9272,0.0,-3.9192,-3.9272,0.0,0.0,0.0,-3.9101,-3.911,0.0,0.0,-3.932,-3.9345,-3.9396,-3.9623,-3.9946,-4.0262,-4.1223,-4.2162,-4.2631,-4.3391,-4.3942,-4.4005,-4.4005,-4.4005,-4.4005,-4.4005,-4.4005,-4.4005,-4.4005,-4.4005,-4.4005,-4.4005,-4.4005,-4.4005,-4.4005,-4.4005,-4.4005,-4.4005,-4.4005,-4.4005,-4.4005,-4.4005,-4.4005,-4.4005,-4.4005,-4.4005,-4.4005,-4.4005,-4.4098,-4.5769,-4.6494,-4.6624,-4.824,-4.8909,-4.8909,-4.8909,-4.8909,-4.8909,-4.8909,-4.8909,-4.8909,-2.6585,0.0,-2.668,-2.668,-2.6812,-2.7141,-2.7734,-2.7802,-2.8069,-2.8821,-2.8803,-2.8796,-2.9047,-2.9551,-2.994,-3.0033,-3.0631,-3.1012,-3.1039,-3.1119,-3.1227,-3.1443,-3.1495,-3.1646,-3.1861,-3.1843,-3.1843,-3.1843,-3.2504,-3.2834,-3.2852,-3.3495,-3.3807,-3.3807,-3.3807,-3.3807,0.0,0.0,0.0,-3.5027,0.0,-3.5495,-3.5642,-3.6982,-3.7709,-3.8065,-3.8872,-3.9056,-3.8927,-3.8927,-3.8836,-3.8707,-3.8707,-3.8851,0.0,0.0,0.0,0.0,0.0,0.0,0.0,0.0,-3.8707,-3.875,0.0,0.0,0.0,-3.9073,-3.9101,0.0,0.0,0.0,0.0,-4.2051,0.0,0.0,-4.3763,-4.3893,-4.4005,-4.4005,-4.4005,-4.4005,-4.4005,-4.4005,-4.4005,-4.4005,-4.4005,-4.4005,-4.4005,-4.4005,-4.4005,-4.4005,-4.4005,-4.4005,-4.4005,-4.4005,-4.4005,-4.4005,-4.4005,-4.4005,-4.4005,-4.4005,-4.4005,-4.4079,-4.5602,-4.6364,-4.6605,-4.8073,-4.876,-4.8909,-4.8909,-4.8909,-4.8909,-4.8909,-4.8909,-4.8909,-2.6866,-2.716,-2.7636,-2.7636,-2.8132,-2.8573,-2.864,-2.8615,-2.8857,-2.9657,-2.9148,-2.9214,-3.0568,-3.0196,0.0,0.0,-3.1038,-3.1101,-3.118,-3.125,-3.1587,-3.2326,-3.2415,-3.2771,-3.3513,-3.3532,-3.3532,-3.3532,-3.3623,-3.366,-3.3678,-3.3752,-3.3807,-3.3807,-3.3807,0.0,0.0,0.0,-3.4917,0.0,-3.6615,-3.7202,0.0,-3.7422,-3.8377,-3.9717,-4.0543,-4.0377,-3.9753,-3.9753,-3.9294,-3.8707,0.0,-3.8738,-3.8719,-3.8707,0.0,0.0,0.0,0.0,0.0,-3.8707,-3.8707,-3.8707,-3.8738,0.0,-3.875,-3.875,0.0,-3.8787,-3.8848,0.0,0.0,-4.0369,-4.1773,-4.2866,-4.2927,-4.3559,-4.4005,-4.4005,-4.4005,-4.4005,-4.4005,-4.4005,-4.4005,-4.4005,-4.4005,-4.4005,-4.4005,-4.4005,-4.4005,-4.4005,-4.4005,-4.4005,-4.4005,-4.4005,-4.4005,-4.4005,-4.4005,-4.4005,-4.4005,-4.4005,-4.4005,-4.4061,-4.5026,-4.5844,-4.6568,-4.746,-4.8259,-4.8909,-4.8909,-4.8909,-4.8909,-4.8909,-4.8909,-4.8909,-2.8004,-2.8127,0.0,-2.8275,-2.8543,-2.8737,-2.8687,-2.9043,-2.9642,-3.044,-3.0241,-3.0269,0.0,0.0,0.0,0.0,0.0,-3.2436,0.0,0.0,-3.2721,-3.3076,-3.3177,-3.3405,-3.3734,-3.378,-3.3807,-3.3807,-3.3807,-3.3807,-3.3807,-3.3807,-3.3807,-3.3807,-3.3807,0.0,-3.4523,0.0,-3.5569,0.0,0.0,-3.7771,0.0,-3.8193,-3.8909,-4.001,-4.0818,-4.0891,-4.0598,-4.0598,-4.0065,-3.9405,-3.9405,-3.9074,0.0,-3.8707,0.0,0.0,0.0,0.0,-3.8707,-3.8707,-3.8707,-3.8707,-3.8707,-3.8707,-3.8707,-3.8707,0.0,0.0,0.0,0.0,0.0,0.0,-4.104,-4.2026,-4.2681,-4.3033,-4.3435,-4.3949,-4.4005,-4.4005,-4.4005,-4.4005,-4.4005,-4.4005,-4.4005,-4.4005,-4.4005,-4.4005,-4.4005,-4.4005,-4.4005,-4.4005,-4.4005,-4.4005,-4.4005,-4.4005,-4.4005,-4.4005,-4.4005,-4.4005,-4.4005,-4.4042,-4.4915,-4.5751,-4.655,-4.7367,-4.8166,-4.8909,-4.8909,-4.8909,-4.8909,-4.8909,-4.8909,-4.8909,-2.881,0.0,0.0,0.0,-2.8869,-2.9087,-2.9228,-2.9753,-3.0405,-3.122,-3.1129,0.0,-3.16,-3.1981,0.0,0.0,-3.3096,-3.3452,0.0,0.0,-3.3549,-3.3577,-3.3661,-3.3698,-3.3726,-3.378,-3.3807,-3.3807,-3.3807,-3.3807,-3.3807,-3.3807,-3.3917,-3.4137,0.0,-3.4596,-3.5385,0.0,-3.6395,-3.7514,-3.7734,-3.8303,-3.9056,-3.9276,-3.9863,-4.0653,-4.1479,-4.1625,-4.1442,-4.1442,-4.0891,-4.023,-4.023,-3.968,-3.9038,0.0,0.0,0.0,-3.8707,-3.8707,-3.8707,-3.8707,-3.8707,-3.8707,-3.8707,-3.8707,-3.8707,-3.8707,-3.8707,0.0,0.0,0.0,-3.9583,-3.9657,0.0,-4.1138,-4.1884,-4.2211,-4.2761,-4.3875,-4.4005,-4.4005,-4.4005,-4.4005,-4.4005,-4.4005,-4.4005,-4.4005,-4.4005,-4.4005,-4.4005,-4.4005,-4.4005,-4.4005,-4.4005,-4.4005,-4.4005,-4.4005,-4.4005,-4.4005,-4.4005,-4.4005,-4.4005,-4.4042,-4.4674,-4.5398,-4.6234,-4.7033,-4.785,-4.8593,-4.8816,-4.8909,-4.8909,-4.8909,-4.8909,-4.8909,-2.881,-2.8785,0.0,0.0,0.0,-3.0104,-3.0812,-3.093,0.0,0.0,0.0,0.0,0.0,0.0,0.0,0.0,0.0,-3.3549,-3.3671,0.0,-3.3643,-3.378,-3.3726,-3.3726,0.0,-3.3807,-3.3807,-3.3807,-3.3807,-3.3807,-3.3807,-3.3807,-3.4229,-3.4954,-3.4954,-3.5459,-3.6303,-3.7074,-3.747,-3.7551,-3.834,-3.9148,-3.9937,-4.0744,-4.1534,-4.2323,-4.313,-4.291,-4.2268,-4.2268,-4.1735,-4.1075,-4.1075,-4.0506,-3.9845,-3.9845,-3.9313,-3.8707,-3.8707,-3.8707,-3.8707,-3.8707,-3.8707,-3.8707,-3.8707,-3.8707,-3.8707,-3.8707,-3.8707,-3.8707,-3.8707,-3.8726,-3.8775,-3.8829,-3.9522,0.0,0.0,-4.0966,-4.2149,-4.3819,-4.4005,-4.4005,-4.4005,-4.4005,-4.4005,-4.4005,-4.4005,-4.4005,-4.4005,-4.4005,-4.4005,-4.4005,-4.4005,-4.4005,-4.4005,-4.4005,-4.4005,-4.4005,-4.4005,-4.4005,-4.4005,-4.4005,-4.4005,-4.4005,-4.4023,-4.4544,-4.5398,-4.6197,-4.7014,-4.7813,-4.8612,-4.8909,-4.8909,-4.8909,-4.8909,-4.8909,0.0,0.0,0.0,0.0,0.0,0.0,0.0,-3.1781,0.0,0.0,-3.2759,0.0,0.0,-3.3723,-3.3836,0.0,0.0,-3.4821,-3.5203,-3.471,0.0,-3.4457,-3.3973,-3.3698,0.0,0.0,-3.3807,-3.3807,-3.3807,-3.4082,-3.4596,-3.4596,-3.5055,-3.5862,-3.5862,-3.6321,0.0,0.0,0.0,0.0,0.0,-4.0304,-4.1515,-4.1791,-4.2066,-4.2415,-4.3204,-4.3314,-4.3075,-4.3075,-4.2561,-4.1901,-4.1901,-4.135,-4.0689,-4.0689,-4.0506,-4.0304,-4.0304,-4.0304,-4.0304,-4.0304,-4.0304,-4.0304,-4.0304,-4.0304,-4.0304,-4.0304,-4.0304,-4.0304,-4.0304,-4.0304,-4.012,-3.9601,-3.9779,-3.9976,0.0,-4.0831,-4.1866,-4.3015,-4.3639,0.0,-4.4005,-4.4005,-4.4005,-4.4005,-4.4005,-4.4005,-4.4005,-4.4005,-4.4005,-4.4005,-4.4005,-4.4005,-4.4005,-4.4005,-4.4005,-4.4005,-4.4005,-4.4005,-4.4005,-4.4005,-4.4005,-4.4005,-4.4005,-4.4488,-4.5324,-4.5584,-4.6494,-4.7738,-4.7999,-4.8426,-4.8909,-4.8909,-4.8909,-4.8909,-3.081,0.0,0.0,0.0,0.0,0.0,0.0,0.0,0.0,0.0,-3.3448,0.0,-3.4121,0.0,-3.4733,0.0,-3.5421,-3.5468,-3.6006,-3.5222,0.0,-3.5121,-3.4232,0.0,0.0,0.0,0.0,-3.4229,-3.4393,-3.4814,-3.5477,-3.5316,-3.5784,-3.6725,-3.6725,-3.7165,-3.7918,-3.7918,-3.8377,0.0,0.0,-4.1368,-4.2323,-4.2616,-4.2727,-4.2782,-4.3296,-4.3497,-4.3497,-4.3497,-4.3149,-4.2727,-4.2727,-4.2176,-4.1534,-4.1534,-4.1332,-4.1111,-4.1111,-4.1111,-4.1111,-4.1111,-4.1111,-4.1111,-4.1111,-4.1111,-4.1111,-4.1111,-4.1111,-4.1111,-4.1111,-4.1111,-4.0946,-4.0414,-4.0322,-4.0354,0.0,-4.0953,-4.1662,-4.2532,-4.3169,0.0,0.0,-4.3974,-4.4005,-4.3992,-4.3974,-4.4005,-4.4005,-4.4005,-4.4005,-4.4005,-4.4005,-4.4005,-4.4005,-4.4005,-4.4005,-4.4005,-4.4005,-4.4005,-4.4005,-4.4005,-4.4005,-4.4005,-4.4005,-4.4321,-4.4859,-4.5157,-4.6085,-4.7293,-4.759,-4.8184,-4.8909,-4.8909,-4.8909,-4.8909,-3.0624,0.0,0.0,0.0,-3.1745,0.0,0.0,0.0,-3.3256,0.0,-3.3529,-3.386,-3.3547,-3.4464,-3.5187,-3.5361,-3.5257,-3.546,-3.6115,-3.5273,0.0,0.0,-3.4521,-3.4077,-3.4514,0.0,0.0,0.0,-3.5521,-3.597,-3.6358,-3.5957,-3.6375,-3.7533,-3.7533,0.0,-3.8658,-3.8707,-3.9184,-4.0102,-4.1662,-4.2323,-4.2433,-4.3204,-4.3497,-4.3497,-4.3497,-4.3497,-4.3497,-4.3497,-4.3497,-4.3497,-4.3497,-4.2983,-4.2359,-4.2359,-4.1827,-4.124,-4.124,-4.124,-4.124,-4.124,-4.124,-4.124,-4.124,-4.124,-4.124,-4.124,-4.124,-4.124,-4.124,-4.124,-4.1222,-4.1185,-4.1148,-4.1126,-4.119,-4.1204,-4.153,-4.2387,-4.2593,0.0,0.0,-4.3942,-4.3942,-4.3897,-4.3961,-4.4005,-4.4005,-4.4005,-4.4005,-4.4005,-4.4005,-4.4005,-4.4005,-4.4005,-4.4005,-4.4005,-4.4005,-4.4005,-4.4005,-4.4005,-4.4005,-4.4005,-4.4005,-4.4005,-4.4061,-4.4896,-4.5714,-4.6513,-4.733,-4.8166,-4.8909,-4.8909,-4.8909,-4.8909,-3.2809,-3.2857,-3.2889,0.0,-3.2697,-3.2724,0.0,0.0,0.0,0.0,-3.3615,-3.3952,-3.4984,-3.5091,-3.5479,-3.6461,-3.6247,0.0,0.0,0.0,0.0,-3.5971,-3.5101,-3.4727,-3.4932,-3.5245,-3.5434,-3.5514,0.0,-3.649,-3.7184,-3.6776,-3.7065,-3.7944,-3.7944,-3.8053,-3.8285,-3.8578,-3.9515,-4.0891,-4.1901,-4.2653,-4.3204,-4.3406,-4.3497,-4.3497,-4.3497,-4.3497,-4.3497,-4.3497,-4.3497,-4.3497,-4.3497,-4.3351,-4.3185,-4.3185,-4.3039,-4.2873,-4.2873,-4.2873,-4.2873,-4.2873,-4.2873,-4.2873,-4.2873,-4.2873,-4.2873,-4.2873,-4.2873,-4.2873,-4.2873,-4.2873,-4.269,-4.2084,-4.1497,-4.1111,-4.1126,-4.1144,0.0,-4.2322,-4.2465,-4.283,-4.3744,-4.3818,-4.3851,-4.3837,-4.3883,-4.3897,-4.3851,-4.3915,-4.3897,-4.3851,-4.3851,-4.3851,-4.3851,-4.3851,-4.3851,-4.3851,-4.3851,-4.3851,-4.3851,-4.3851,-4.3851,-4.3851,-4.3851,-4.3883,-4.3947,-4.417,-4.4777,-4.5677,-4.6494,-4.7664,-4.8909,-4.8909,-4.8909,-4.8909,-3.2844,0.0,0.0,-3.247,0.0,0.0,-3.3312,-3.3182,0.0,-3.397,-3.4102,0.0,-3.5572,-3.5939,-3.6547,-3.7592,-3.7488,0.0,-3.8104,0.0,0.0,-3.6876,-3.6004,-3.548,-3.5366,-3.5616,0.0,-3.5975,0.0,-3.688,-3.7497,-3.7091,-3.7325,-3.8101,0.0,-3.8219,-3.8405,-3.9347,-4.0487,-4.1666,-4.2317,-4.2831,0.0,-4.3232,-4.3232,-4.3268,-4.3444,-4.3497,-4.3497,-4.3497,-4.3497,-4.3497,-4.3497,-4.3497,-4.3497,-4.3497,-4.3497,-4.3497,-4.3497,-4.3497,-4.3497,-4.3497,-4.3497,-4.3497,-4.3497,-4.3497,-4.3497,-4.3497,-4.3497,-4.3497,-4.3497,-4.3497,-4.3332,-4.2892,-4.2158,-4.1754,-4.2103,0.0,0.0,0.0,-4.2868,-4.3085,-4.3597,-4.3771,-4.3771,-4.3719,-4.3786,-4.3818,-4.3804,-4.3837,-4.3818,-4.3804,-4.3804,-4.3804,-4.3804,-4.3804,-4.3804,-4.3804,-4.3804,-4.3804,-4.3804,-4.3804,-4.3804,-4.3804,-4.3804,-4.3837,-4.3897,-4.3897,-4.4461,-4.5398,-4.6568,-4.7571,-4.8426,-4.8779,-4.8909,-4.8909,-3.193,0.0,0.0,0.0,0.0,0.0,0.0,-3.3829,-3.3715,-3.4302,0.0,-3.5352,-3.587,-3.683,-3.7774,-3.8439,-3.8481,-3.8659,-3.9223,-3.857,-3.815,-3.7997,-3.7067,-3.6357,-3.5955,-3.6036,-3.6174,0.0,-3.6758,-3.717,-3.7505,-3.7094,-3.7266,-3.7948,0.0,0.0,0.0,-4.0288,-4.1418,-4.2171,-4.2631,-4.2806,-4.2806,-4.2806,-4.2844,-4.2938,-4.3304,-4.3463,-4.3497,-4.3497,-4.3497,-4.3497,-4.3497,-4.3497,-4.3497,-4.3497,-4.3497,-4.3497,-4.3497,-4.3497,-4.3497,-4.3497,-4.3497,-4.3497,-4.3497,-4.3497,-4.3497,-4.3497,-4.3497,-4.3497,-4.3497,-4.3497,-4.3497,-4.3497,-4.291,-4.269,-4.3387,0.0,0.0,0.0,-4.3497,0.0,-4.3497,-4.3652,-4.3719,-4.36,-4.3719,-4.3771,-4.3771,-4.3771,-4.3771,-4.3771,-4.3771,-4.3771,-4.3771,-4.3771,-4.3771,-4.3771,-4.3771,-4.3771,-4.3771,-4.3771,-4.3771,-4.3771,-4.3771,-4.3818,-4.3883,-4.3883,-4.4448,-4.5435,-4.6828,-4.7516,-4.7776,-4.8481,-4.8816,-4.8909,-3.2317,0.0,0.0,0.0,0.0,-3.4318,-3.5077,-3.4492,-3.4424,-3.568,-3.5668,-3.6005,-3.7347,-3.7665,-3.7878,-3.7997,-3.8108,0.0,0.0,0.0,0.0,-3.8326,-3.8143,-3.7774,-3.7222,-3.7504,-3.7413,-3.6767,-3.7212,-3.7432,-3.7505,-3.7094,-3.6978,-3.7132,0.0,0.0,-3.8689,-3.9713,-4.0556,-4.1289,-4.2016,-4.2338,-4.2338,-4.2338,-4.2537,-4.292,-4.2957,-4.3232,-4.3497,-4.3497,-4.3497,-4.3497,-4.3497,-4.3497,-4.3497,-4.3497,-4.3497,-4.3497,-4.3497,-4.3497,-4.3497,-4.3497,-4.3497,-4.3497,-4.3497,-4.3497,-4.3497,-4.3497,-4.3497,-4.3497,-4.3497,-4.3497,-4.3497,-4.3497,-4.3369,-4.3332,-4.3461,0.0,0.0,0.0,0.0,-4.3497,-4.3497,-4.3532,-4.3532,-4.3513,-4.36,-4.36,-4.3566,-4.36,-4.36,-4.3566,-4.3566,-4.3566,-4.3566,-4.3566,-4.3566,-4.3566,-4.3566,-4.3566,-4.3566,-4.3566,-4.3566,-4.3566,-4.3566,-4.3634,-4.3837,-4.3837,-4.4416,-4.5324,-4.5602,-4.6531,-4.772,-4.7868,-4.8333,-4.8909,0.0,0.0,0.0,0.0,0.0,-3.4846,-3.5521,-3.5599,-3.5771,-3.6464,-3.6673,-3.7229,-3.8345,-3.8464,-3.8664,-3.912,-3.9185,-3.9282,-3.9313,-3.9474,-3.938,-3.8997,-3.9055,-3.8756,-3.8077,-3.7879,-3.7607,-3.7224,-3.6991,-3.686,-3.686,-3.6678,-3.6719,-3.6917,0.0,-3.8351,0.0,-4.0128,-4.0913,-4.1622,-4.1789,-4.1821,-4.1864,-4.2115,-4.2198,-4.2239,-4.2976,-4.3196,-4.3232,-4.341,-4.3497,-4.3497,-4.3497,-4.3497,-4.3497,-4.3497,-4.3497,-4.3497,-4.3497,-4.3497,-4.3497,-4.3497,-4.3497,-4.3497,-4.3497,-4.3497,-4.3497,-4.3497,-4.3497,-4.3497,-4.3497,-4.3497,-4.3497,-4.3497,-4.3497,-4.3497,-4.3497,-4.3497,-4.3497,0.0,0.0,0.0,-4.3497,-4.3497,-4.3497,-4.3497,-4.3513,-4.3513,-4.3479,-4.3513,-4.3513,-4.3497,-4.3497,-4.3497,-4.3497,-4.3497,-4.3497,-4.3497,-4.3497,-4.3497,-4.3497,-4.3497,-4.3497,-4.3497,-4.3497,-4.36,-4.3804,-4.3883,-4.4202,-4.4674,-4.5119,-4.5769,-4.655,-4.7386,-4.7943,-4.8333,0.0,-3.4086,0.0,0.0,-3.5044,-3.5788,-3.6236,-3.6968,-3.7398,-3.7352,-3.7801,-3.8413,-3.9189,-3.9274,-3.9561,-4.0303,-4.0355,-4.0436,-4.0534,-4.0697,-4.047,-3.9851,-3.991,-3.9595,-3.8836,-3.8249,-3.787,-3.7715,-3.6939,-3.6559,-3.6542,-3.6387,-3.6579,-3.7079,-3.8135,-3.9071,-3.9909,-4.0471,-4.1197,-4.1881,-4.1534,-4.1356,-4.1401,-4.1778,-4.1735,-4.1648,-4.2714,-4.2939,-4.2788,-4.3142,-4.3286,-4.3375,-4.3375,-4.3286,-4.325,-4.3444,-4.3444,-4.3375,-4.3497,-4.3497,-4.3497,-4.3497,-4.3497,-4.3497,-4.3497,-4.3497,-4.3497,-4.3497,-4.3497,-4.3497,-4.3497,-4.3497,-4.3497,-4.3497,-4.3497,-4.3497,-4.3497,-4.3497,-4.3497,0.0,0.0,0.0,-4.3497,-4.3497,-4.3497,-4.3497,-4.3497,-4.3497,-4.3497,-4.3497,-4.3497,-4.3497,-4.3497,-4.3497,-4.3497,-4.3497,-4.3497,-4.3497,-4.3497,-4.3497,-4.3497,-4.3497,-4.3497,-4.3497,-4.3497,-4.36,-4.3804,-4.3929,-4.3974,-4.4079,-4.4748,-4.5138,-4.5472,-4.6903,-4.7553,-4.7813,0.0,0.0,0.0,-3.5976,-3.7161,-3.8031,-3.7991,-3.8657,-3.9075,-3.8834,-3.8853,-3.9223,-4.0068,-4.0203,-4.0269,-4.0468,-4.0583,-4.0648,-4.0697,-4.0793,-4.0853,-4.0767,-4.0767,-4.0405,-3.9612,-3.9526,-3.9163,-3.8491,-3.7732,-3.737,-3.7353,-3.6628,-3.6723,-3.7491,-3.8261,-3.9022,-3.9714,-3.9783,-4.0285,-4.1012,-4.0965,-4.0965,-4.0965,-4.0995,-4.1209,-4.1516,-4.1648,-4.1948,-4.2297,-4.232,-4.2616,-4.2975,-4.2975,-4.2673,-4.248,-4.3286,-4.3232,-4.305,-4.341,-4.3497,-4.3497,-4.3497,-4.3497,-4.3497,-4.3497,-4.3497,-4.3497,-4.3497,-4.3497,-4.3497,-4.3497,-4.3497,-4.3497,-4.3497,-4.3497,-4.3497,-4.3497,-4.3497,-4.3497,-4.3497,0.0,0.0,-4.3497,-4.3497,-4.3497,-4.3497,-4.3497,-4.3497,-4.3497,-4.3497,-4.3497,-4.3497,-4.3497,-4.3497,-4.3497,-4.3497,-4.3497,-4.3497,-4.3497,-4.3497,-4.3497,-4.3497,-4.3497,-4.3497,-4.3497,-4.36,-4.3804,-4.3883,-4.3961,-4.4005,-4.4098,-4.4599,-4.5398,-4.629,-4.707,-4.7813,-3.6483,-3.7197,-3.7654,-3.7654,-3.8047,-3.8551,-3.8905,-3.9217,-3.9546,-3.9844,-3.9895,-4.0046,-4.0402,-4.0436,-4.0485,-4.06,-4.0648,-4.0745,-4.084,-4.0888,-4.0888,-4.0888,-4.0888,-4.0733,-4.0422,-3.9939,-3.956,-3.925,-3.8508,-3.8146,-3.8146,-3.7818,-3.7836,-3.818,-3.8922,-3.9422,-3.9733,-4.0215,-4.0595,-4.0888,-4.0888,-4.0888,-4.0918,-4.1163,-4.1209,-4.1209,-4.1735,-4.1864,-4.1778,-4.1778,-4.2074,-4.2458,-4.2458,-4.2338,-4.2279,-4.2616,-4.2788,-4.2938,-4.3123,-4.3304,-4.3497,-4.3497,-4.3497,-4.3497,-4.3497,-4.3497,-4.3497,-4.3497,-4.3497,-4.3497,-4.3497,-4.3497,-4.3497,-4.3497,-4.3497,-4.3497,-4.3497,-4.3497,-4.3497,-4.3497,0.0,-4.3497,0.0,-4.3497,-4.3497,-4.3497,-4.3497,-4.3497,-4.3497,-4.3497,-4.3497,-4.3497,-4.3497,-4.3497,-4.3497,-4.3497,-4.3497,-4.3497,-4.3497,-4.3497,-4.3497,-4.3497,-4.3497,-4.3479,-4.3548,-4.36,-4.3701,-4.3832,-4.3929,-4.3942,-4.3974,-4.4209,-4.4618,-4.5472,-4.629,-4.7088,-3.8387,-3.8767,-3.8922,-3.8922,-3.9003,-3.9238,-3.9787,-3.9795,-3.9953,-4.0514,-4.0583,-4.0583,-4.0583,-4.0534,-4.0631,-4.0745,-4.0745,-4.0793,-4.0871,-4.0888,-4.0888,-4.0888,-4.0888,-4.0888,-4.0888,-4.0336,-4.0043,-4.0043,-3.9284,-3.8922,-3.8922,-3.8922,-3.8922,-3.8957,-3.9698,-4.0043,-4.0077,-4.0647,-4.0888,-4.0888,-4.0888,-4.0888,-4.0918,-4.1209,-4.1163,-4.0965,-4.1596,-4.1622,-4.1311,-4.1311,-4.1534,-4.1839,-4.1948,-4.1906,-4.1881,-4.2115,-4.2338,-4.2498,-4.2673,-4.2902,-4.3124,-4.3124,-4.3124,-4.316,-4.3304,-4.3339,-4.3339,-4.3497,-4.3497,-4.3497,-4.3497,-4.3497,-4.3497,-4.3497,-4.3497,-4.3497,-4.3497,-4.3497,-4.3497,-4.3497,-4.3497,-4.3497,-4.3497,-4.3497,-4.3497,-4.3497,-4.3497,-4.3497,-4.3497,-4.3497,-4.3497,-4.3497,-4.3497,-4.3497,-4.3497,-4.3497,-4.3497,-4.3497,-4.3497,-4.3497,-4.3497,-4.3497,-4.3497,-4.3479,-4.3548,-4.3582,-4.3667,-4.38,-4.3897,-4.3929,-4.3974,-4.4005,-4.4116,-4.4971,-4.5807,-4.6624,-3.8594,-3.9181,-3.9681,-3.9681,-4.0242,-4.068,-4.068,-4.068,-4.0697,-4.0697,-4.084,-4.084,-4.0697,-4.0697,-4.0745,-4.0888,-4.0888,-4.0888,-4.0888,-4.0888,-4.0888,-4.0888,-4.0888,-4.0888,-4.0888,-4.0871,-4.0871,-4.0871,-4.0077,-3.9681,-3.9681,-3.9681,-3.9681,-3.9715,-4.0509,-4.0871,-4.0871,-4.0888,-4.0888,-4.0888,-4.0888,-4.0888,-4.0888,-4.0935,-4.0871,-4.0888,-4.0918,-4.0918,-4.0935,-4.0935,-4.0918,-4.1012,-4.1401,-4.1255,-4.1088,-4.1966,-4.1864,-4.1604,-4.2074,-4.2198,-4.2198,-4.2198,-4.2198,-4.2338,-4.2806,-4.292,-4.3032,-4.341,-4.3497,-4.3497,-4.3497,-4.3497,-4.3497,-4.3497,-4.3497,-4.3497,-4.3497,-4.3497,-4.3497,-4.3497,-4.3497,-4.3497,-4.3497,-4.3497,-4.3497,-4.3497,-4.3497,-4.3497,-4.3497,-4.3497,-4.3497,-4.3497,-4.3497,-4.3497,-4.3497,-4.3497,-4.3497,-4.3497,-4.3497,-4.3497,-4.3497,-4.3497,-4.3497,-4.3497,-4.3497,-4.36,-4.3804,-4.3804,-4.3883,-4.4005,-4.4005,-4.4005,-4.4116,-4.4971,-4.5807,-4.6624,-4.0043,-4.0336,-4.0509,-4.0509,-4.0716,-4.084,-4.084,-4.084,-4.084,-4.084,-4.0871,-4.0871,-4.084,-4.084,-4.0823,-4.0888,-4.0888,-4.0888,-4.0888,-4.0888,-4.0888,-4.0888,-4.0888,-4.0888,-4.0888,-4.0888,-4.0888,-4.0888,-4.0629,-4.0509,-4.0509,-4.0509,-4.0509,-4.0509,-4.0767,-4.0888,-4.0888,-4.0888,-4.0888,-4.0888,-4.0888,-4.0888,-4.0888,-4.0888,-4.0888,-4.0888,-4.0888,-4.0888,-4.0888,-4.0888,-4.0888,-4.0918,-4.1041,-4.0995,-4.0965,-4.1209,-4.1401,-4.1516,-4.1692,-4.1948,-4.2198,-4.2198,-4.2198,-4.2257,-4.2378,-4.2673,-4.2995,-4.341,-4.3497,-4.3497,-4.3497,-4.3497,-4.3497,-4.3497,-4.3497,-4.3497,-4.3497,-4.3497,-4.3497,-4.3497,-4.3497,-4.3497,-4.3497,-4.3497,-4.3497,-4.3497,-4.3497,-4.3497,-4.3497,-4.3497,-4.3497,-4.3497,-4.3497,-4.3497,-4.3497,-4.3497,-4.3497,-4.3497,-4.3497,-4.3497,-4.3497,-4.3497,-4.3497,-4.3479,-4.3566,-4.3582,-4.3667,-4.3818,-4.3897,-4.3929,-4.3974,-4.4005,-4.4023,-4.4302,-4.5305,-4.6531,-4.0784,-4.0888,-4.0888,-4.0888,-4.0888,-4.0888,-4.0888,-4.0888,-4.0888,-4.0888,-4.0888,-4.0888,-4.0888,-4.0888,-4.0888,-4.0888,-4.0888,-4.0888,-4.0888,-4.0888,-4.0888,-4.0888,-4.0888,-4.0888,-4.0888,-4.0888,-4.0888,-4.0888,-4.0888,-4.0888,-4.0888,-4.0888,-4.0888,-4.0888,-4.0888,-4.0888,-4.0888,-4.0888,-4.0888,-4.0888,-4.0888,-4.0888,-4.0888,-4.0888,-4.0888,-4.0888,-4.0888,-4.0888,-4.0888,-4.0888,-4.0888,-4.0888,-4.0888,-4.0888,-4.0888,-4.0888,-4.1088,-4.1283,-4.1283,-4.1507,-4.1709,-4.1709,-4.1709,-4.1753,-4.1906,-4.2418,-4.2957,-4.3214,-4.341,-4.3497,-4.3497,-4.3497,-4.3497,-4.3497,-4.3497,-4.3497,-4.3497,-4.3497,-4.3497,-4.3497,-4.3497,-4.3497,-4.3497,-4.3497,-4.3497,-4.3497,-4.3497,-4.3497,-4.3497,-4.3497,-4.3497,-4.3497,-4.3497,-4.3497,-4.3497,-4.3497,-4.3497,-4.3497,-4.3497,-4.3497,-4.3497,-4.3497,-4.3497,-4.3479,-4.3548,-4.3634,-4.3667,-4.3832,-4.3897,-4.3961,-4.3974,-4.4005,-4.4005,-4.4005,-4.5064,-4.6494,-4.0888,-4.0888,-4.0888,-4.0888,-4.0888,-4.0888,-4.0888,-4.0888,-4.0888,-4.0888,-4.0888,-4.0888,-4.0888,-4.0888,-4.0888,-4.0888,-4.0888,-4.0888,-4.0888,-4.0888,-4.0888,-4.0888,-4.0888,-4.0888,-4.0888,-4.0888,-4.0888,-4.0888,-4.0888,-4.0888,-4.0888,-4.0888,-4.0888,-4.0888,-4.0888,-4.0888,-4.0888,-4.0888,-4.0888,-4.0888,-4.0888,-4.0888,-4.0888,-4.0888,-4.0888,-4.0888,-4.0888,-4.0888,-4.0888,-4.0888,-4.0888,-4.0888,-4.0888,-4.0888,-4.0888,-4.0888,-4.0888,-4.0888,-4.0888,-4.0888,-4.0888,-4.0888,-4.0888,-4.1012,-4.1401,-4.2157,-4.2806,-4.2882,-4.3196,-4.3463,-4.3479,-4.3497,-4.3497,-4.3497,-4.3497,-4.3497,-4.3497,-4.3497,-4.3497,-4.3497,-4.3497,-4.3497,-4.3497,-4.3497,-4.3497,-4.3497,-4.3497,-4.3497,-4.3497,-4.3497,-4.3497,-4.3497,-4.3497,-4.3497,-4.3497,-4.3497,-4.3497,-4.3497,-4.3497,-4.3497,-4.3497,-4.3497,-4.3497,-4.3479,-4.3582,-4.3667,-4.3804,-4.3883,-4.3961,-4.4005,-4.4005,-4.4005,-4.4005,-4.4005,-4.5064,-4.6494,-4.0888,-4.0888,-4.0888,-4.0888,-4.0888,-4.0888,-4.0888,-4.0888,-4.0888,-4.0888,-4.0888,-4.0888,-4.0888,-4.0888,-4.0888,-4.0888,-4.0888,-4.0888,-4.0888,-4.0888,-4.0888,-4.0888,-4.0888,-4.0888,-4.0888,-4.0888,-4.0888,-4.0888,-4.0888,-4.0888,-4.0888,-4.0888,-4.0888,-4.0888,-4.0888,-4.0888,-4.0888,-4.0888,-4.0888,-4.0888,-4.0888,-4.0888,-4.0888,-4.0888,-4.0888,-4.0888,-4.0888,-4.0888,-4.0888,-4.0888,-4.0888,-4.0888,-4.0888,-4.0888,-4.0888,-4.0888,-4.0888,-4.0888,-4.0888,-4.0888,-4.0888,-4.0888,-4.0888,-4.1012,-4.1401,-4.1692,-4.2032,-4.275,-4.2975,-4.316,-4.3444,-4.3497,-4.3497,-4.3497,-4.3497,-4.3497,-4.3497,-4.3497,-4.3497,-4.3497,-4.3497,-4.3497,-4.3497,-4.3497,-4.3497,-4.3497,-4.3497,-4.3497,-4.3497,-4.3497,-4.3497,-4.3497,-4.3497,-4.3497,-4.3497,-4.3497,-4.3497,-4.3497,-4.3497,-4.3497,-4.3497,-4.3497,-4.3497,-4.3532,-4.3686,-4.3771,-4.3804,-4.3929,-4.3974,-4.4005,-4.4005,-4.4005,-4.4005,-4.4005,-4.5064,-4.6494,-4.0888,-4.0888,-4.0888,-4.0888,-4.0888,-4.0888,-4.0888,-4.0888,-4.0888,-4.0888,-4.0888,-4.0888,-4.0888,-4.0888,-4.0888,-4.0888,-4.0888,-4.0888,-4.0888,-4.0888,-4.0888,-4.0888,-4.0888,-4.0888,-4.0888,-4.0888,-4.0888,-4.0888,-4.0888,-4.0888,-4.0888,-4.0888,-4.0888,-4.0888,-4.0888,-4.0888,-4.0888,-4.0888,-4.0888,-4.0888,-4.0888,-4.0888,-4.0888,-4.0888,-4.0888,-4.0888,-4.0888,-4.0888,-4.0888,-4.0888,-4.0888,-4.0888,-4.0888,-4.0888,-4.0888,-4.0888,-4.0888,-4.0888,-4.0888,-4.0888,-4.0888,-4.0888,-4.0888,-4.0965,-4.1163,-4.1534,-4.1948,-4.2458,-4.2902,-4.3232,-4.3444,-4.3497,-4.3497,-4.3497,-4.3497,-4.3497,-4.3497,-4.3497,-4.3497,-4.3497,-4.3497,-4.3497,-4.3497,-4.3497,-4.3497,-4.3497,-4.3497,-4.3497,-4.3497,-4.3497,-4.3497,-4.3497,-4.3497,-4.3497,-4.3497,-4.3497,-4.3497,-4.3497,-4.3497,-4.3497,-4.3497,-4.3497,-4.3532,-4.3566,-4.3719,-4.3837,-4.3851,-4.3961,-4.4005,-4.4005,-4.4005,-4.4005,-4.4005,-4.4005,-4.5064,-4.6494,-4.0888,-4.0888,-4.0888,-4.0888,-4.0888,-4.0888,-4.0888,-4.0888,-4.0888,-4.0888,-4.0888,-4.0888,-4.0888,-4.0888,-4.0888,-4.0888,-4.0888,-4.0888,-4.0888,-4.0888,-4.0888,-4.0888,-4.0888,-4.0888,-4.0888,-4.0888,-4.0888,-4.0888,-4.0888,-4.0888,-4.0888,-4.0888,-4.0888,-4.0888,-4.0888,-4.0888,-4.0888,-4.0888,-4.0888,-4.0888,-4.0888,-4.0888,-4.0888,-4.0888,-4.0888,-4.0888,-4.0888,-4.0888,-4.0888,-4.0888,-4.0888,-4.0888,-4.0888,-4.0888,-4.0888,-4.0888,-4.0888,-4.0888,-4.0888,-4.0888,-4.0888,-4.0888,-4.0888,-4.0888,-4.0888,-4.1507,-4.2115,-4.2216,-4.2846,-4.341,-4.3497,-4.3497,-4.3497,-4.3497,-4.3497,-4.3497,-4.3497,-4.3497,-4.3497,-4.3497,-4.3497,-4.3497,-4.3497,-4.3497,-4.3497,-4.3497,-4.3497,-4.3497,-4.3497,-4.3497,-4.3497,-4.3497,-4.3497,-4.3497,-4.3497,-4.3497,-4.3497,-4.3497,-4.3497,-4.3497,-4.3497,-4.3532,-4.3566,-4.3615,-4.3753,-4.3851,-4.3915,-4.3974,-4.4005,-4.4005,-4.4005,-4.4005,-4.4023,-4.4153,-4.5175,-4.6513,-4.0888,-4.0888,-4.0888,-4.0888,-4.0888,-4.0888,-4.0888,-4.0888,-4.0888,-4.0888,-4.0888,-4.0888,-4.0888,-4.0888,-4.0888,-4.0888,-4.0888,-4.0888,-4.0888,-4.0888,-4.0888,-4.0888,-4.0888,-4.0888,-4.0888,-4.0888,-4.0888,-4.0888,-4.0888,-4.0888,-4.0888,-4.0888,-4.0888,-4.0888,-4.0888,-4.0888,-4.0888,-4.0888,-4.0888,-4.0888,-4.0888,-4.0888,-4.0888,-4.0888,-4.0888,-4.0888,-4.0888,-4.0888,-4.0888,-4.0888,-4.0888,-4.0888,-4.0888,-4.0888,-4.0888,-4.0888,-4.0888,-4.0888,-4.0888,-4.0888,-4.0888,-4.0888,-4.0888,-4.0888,-4.0888,-4.1283,-4.1735,-4.2115,-4.2616,-4.3123,-4.3444,-4.3497,-4.3497,-4.3497,-4.3497,-4.3497,-4.3497,-4.3497,-4.3497,-4.3497,-4.3497,-4.3497,-4.3497,-4.3497,-4.3497,-4.3497,-4.3497,-4.3497,-4.3497,-4.3497,-4.3497,-4.3497,-4.3497,-4.3497,-4.3497,-4.3497,-4.3497,-4.3497,-4.3497,-4.3497,-4.3479,-4.3548,-4.3582,-4.3615,-4.38,-4.3883,-4.3915,-4.3974,-4.4005,-4.4005,-4.4005,-4.4005,-4.4098,-4.4822,-4.5677,-4.6605,-4.0888,-4.0888,-4.0888,-4.0888,-4.0888,-4.0888,-4.0888,-4.0888,-4.0888,-4.0888,-4.0888,-4.0888,-4.0888,-4.0888,-4.0888,-4.0888,-4.0888,-4.0888,-4.0888,-4.0888,-4.0888,-4.0888,-4.0888,-4.0888,-4.0888,-4.0888,-4.0888,-4.0888,-4.0888,-4.0888,-4.0888,-4.0888,-4.0888,-4.0888,-4.0888,-4.0888,-4.0888,-4.0888,-4.0888,-4.0888,-4.0888,-4.0888,-4.0888,-4.0888,-4.0888,-4.0888,-4.0888,-4.0888,-4.0888,-4.0888,-4.0888,-4.0888,-4.0888,-4.0888,-4.0888,-4.0888,-4.0888,-4.0888,-4.0888,-4.0888,-4.0888,-4.0888,-4.0888,-4.0888,-4.0888,-4.1418,-4.1948,-4.2175,-4.2732,-4.3268,-4.3463,-4.3497,-4.3497,-4.3497,-4.3497,-4.3497,-4.3497,-4.3497,-4.3497,-4.3497,-4.3497,-4.3497,-4.3497,-4.3497,-4.3497,-4.3497,-4.3497,-4.3497,-4.3497,-4.3497,-4.3497,-4.3497,-4.3497,-4.3497,-4.3497,-4.3497,-4.3497,-4.3497,-4.3497,-4.3513,-4.3548,-4.3582,-4.3649,-4.3767,-4.3865,-4.3929,-4.3961,-4.3974,-4.4005,-4.4005,-4.4005,-4.4005,-4.4116,-4.4971,-4.5807,-4.6624,-4.0888,-4.0888,-4.0888,-4.0888,-4.0888,-4.0888,-4.0888,-4.0888,-4.0888,-4.0888,-4.0888,-4.0888,-4.0888,-4.0888,-4.0888,-4.0888,-4.0888,-4.0888,-4.0888,-4.0888,-4.0888,-4.0888,-4.0888,-4.0888,-4.0888,-4.0888,-4.0888,-4.0888,-4.0888,-4.0888,-4.0888,-4.0888,-4.0888,-4.0888,-4.0888,-4.0888,-4.0888,-4.0888,-4.0888,-4.0888,-4.0888,-4.0888,-4.0888,-4.0888,-4.0888,-4.0888,-4.0888,-4.0888,-4.0888,-4.0888,-4.0888,-4.0888,-4.0888,-4.0888,-4.0888,-4.0888,-4.0888,-4.0888,-4.0888,-4.0965,-4.1012,-4.0918,-4.1041,-4.1163,-4.1041,-4.1709,-4.2378,-4.2378,-4.2976,-4.3497,-4.3497,-4.3497,-4.3497,-4.3497,-4.3497,-4.3497,-4.3497,-4.3497,-4.3497,-4.3497,-4.3497,-4.3497,-4.3497,-4.3497,-4.3497,-4.3497,-4.3497,-4.3497,-4.3497,-4.3497,-4.3532,-4.3513,-4.3532,-4.3497,-4.3497,-4.3497,-4.3532,-4.3513,-4.3513,-4.3566,-4.3667,-4.3649,-4.3749,-4.3897,-4.3929,-4.3942,-4.4005,-4.4005,-4.4005,-4.4005,-4.4005,-4.4116,-4.4413,-4.5249,-4.6085,-4.6884,-4.0888,-4.0888,-4.0888,-4.0888,-4.0888,-4.0888,-4.0888,-4.0888,-4.0888,-4.0888,-4.0888,-4.0888,-4.0888,-4.0888,-4.0888,-4.0888,-4.0888,-4.0888,-4.0888,-4.0888,-4.0888,-4.0888,-4.0888,-4.0888,-4.0888,-4.0888,-4.0888,-4.0888,-4.0888,-4.0888,-4.0888,-4.0888,-4.0888,-4.0888,-4.0888,-4.0888,-4.0888,-4.0888,-4.0888,-4.0888,-4.0888,-4.0888,-4.0888,-4.0888,-4.0888,-4.0888,-4.0888,-4.0888,-4.0888,-4.0888,-4.0888,-4.0888,-4.0888,-4.0888,-4.0888,-4.0888,-4.0888,-4.0888,-4.0888,-4.1163,-4.1356,-4.0995,-4.1507,-4.199,-4.1561,-4.2157,-4.2844,-4.2844,-4.3196,-4.3497,-4.3497,-4.3497,-4.3497,-4.3497,-4.3497,-4.3497,-4.3497,-4.3497,-4.3497,-4.3497,-4.3497,-4.3497,-4.3497,-4.3497,-4.3497,-4.3497,-4.3497,-4.3497,-4.3497,-4.3497,-4.3513,-4.3582,-4.3513,-4.3497,-4.3497,-4.3497,-4.3513,-4.3582,-4.3582,-4.3667,-4.3804,-4.3851,-4.3883,-4.3897,-4.3992,-4.4005,-4.4005,-4.4005,-4.4005,-4.4005,-4.4005,-4.4488,-4.5287,-4.6104,-4.6921,-4.7738,-4.0888,-4.0888,-4.0888,-4.0888,-4.0888,-4.0888,-4.0888,-4.0888,-4.0888,-4.0888,-4.0888,-4.0888,-4.0888,-4.0888,-4.0888,-4.0888,-4.0888,-4.0888,-4.0888,-4.0888,-4.0888,-4.0888,-4.0888,-4.0888,-4.0888,-4.0888,-4.0888,-4.0888,-4.0888,-4.0888,-4.0888,-4.0888,-4.0888,-4.0888,-4.0888,-4.0888,-4.0888,-4.0888,-4.0888,-4.0888,-4.0888,-4.0888,-4.0888,-4.0888,-4.0888,-4.0888,-4.0888,-4.0888,-4.0888,-4.0888,-4.0888,-4.0888,-4.0888,-4.0888,-4.0888,-4.0888,-4.1088,-4.1283,-4.1283,-4.1401,-4.1516,-4.1666,-4.1966,-4.2157,-4.199,-4.2418,-4.2882,-4.2882,-4.3232,-4.3497,-4.3497,-4.3497,-4.3497,-4.3497,-4.3497,-4.3497,-4.3497,-4.3497,-4.3497,-4.3497,-4.3497,-4.3497,-4.3497,-4.3497,-4.3497,-4.3497,-4.3497,-4.3497,-4.3497,-4.3497,-4.3513,-4.3582,-4.3582,-4.36,-4.3686,-4.3686,-4.3686,-4.3719,-4.3719,-4.3786,-4.3851,-4.3883,-4.3929,-4.3942,-4.4005,-4.4005,-4.4005,-4.4005,-4.4005,-4.4005,-4.4005,-4.4525,-4.5398,-4.6197,-4.7014,-4.7813,-4.0888,-4.0888,-4.0888,-4.0888,-4.0888,-4.0888,-4.0888,-4.0888,-4.0888,-4.0888,-4.0888,-4.0888,-4.0888,-4.0888,-4.0888,-4.0888,-4.0888,-4.0888,-4.0888,-4.0888,-4.0888,-4.0888,-4.0888,-4.0888,-4.0888,-4.0888,-4.0888,-4.0888,-4.0888,-4.0888,-4.0888,-4.0888,-4.0888,-4.0888,-4.0888,-4.0888,-4.0888,-4.0888,-4.0888,-4.0888,-4.0888,-4.0888,-4.0888,-4.0888,-4.0888,-4.0888,-4.0888,-4.0888,-4.0888,-4.0888,-4.0888,-4.0888,-4.0888,-4.1012,-4.1088,-4.1088,-4.1373,-4.1735,-4.1906,-4.1948,-4.199,-4.2157,-4.2418,-4.2577,-4.2458,-4.2788,-4.3087,-4.3087,-4.3304,-4.3497,-4.3497,-4.3497,-4.3497,-4.3497,-4.3497,-4.3497,-4.3497,-4.3497,-4.3497,-4.3497,-4.3497,-4.3497,-4.3497,-4.3497,-4.3497,-4.3497,-4.3497,-4.3497,-4.3497,-4.3497,-4.3513,-4.3582,-4.3634,-4.3719,-4.3837,-4.3804,-4.3804,-4.3818,-4.3818,-4.3883,-4.3929,-4.3929,-4.3961,-4.4005,-4.4005,-4.4005,-4.4005,-4.4005,-4.4005,-4.4005,-4.4005,-4.4692,-4.5732,-4.629,-4.7163,-4.8166,-4.0888,-4.0888,-4.0888,-4.0888,-4.0888,-4.0888,-4.0888,-4.0888,-4.0888,-4.0888,-4.0888,-4.0888,-4.0888,-4.0888,-4.0888,-4.0888,-4.0888,-4.0888,-4.0888,-4.0888,-4.0888,-4.0888,-4.0888,-4.0888,-4.0888,-4.0888,-4.0888,-4.0888,-4.0888,-4.0888,-4.0888,-4.0888,-4.0888,-4.0888,-4.0888,-4.0888,-4.0888,-4.0888,-4.0888,-4.0888,-4.0888,-4.0888,-4.0888,-4.0888,-4.0888,-4.0888,-4.0888,-4.0888,-4.0888,-4.0888,-4.0888,-4.0888,-4.0888,-4.1163,-4.149,-4.1472,-4.1821,-4.2279,-4.275,-4.2882,-4.2806,-4.2338,-4.2846,-4.341,-4.3013,-4.3232,-4.3497,-4.3497,-4.3497,-4.3497,-4.3497,-4.3497,-4.3497,-4.3497,-4.3497,-4.3497,-4.3497,-4.3497,-4.3497,-4.3497,-4.3497,-4.3497,-4.3497,-4.3497,-4.3497,-4.3497,-4.3497,-4.3497,-4.3497,-4.3497,-4.3513,-4.3582,-4.3719,-4.3818,-4.3897,-4.3818,-4.3818,-4.3897,-4.3897,-4.3929,-4.4005,-4.4005,-4.4005,-4.4005,-4.4005,-4.4005,-4.4005,-4.4005,-4.4005,-4.4005,-4.4005,-4.5026,-4.6494,-4.6494,-4.7516,-4.8909,-4.0888,-4.0888,-4.0888,-4.0888,-4.0888,-4.0888,-4.0888,-4.0888,-4.0888,-4.0888,-4.0888,-4.0888,-4.0888,-4.0888,-4.0888,-4.0888,-4.0888,-4.0888,-4.0888,-4.0888,-4.0888,-4.0888,-4.0888,-4.0888,-4.0888,-4.0888,-4.0888,-4.0888,-4.0888,-4.0888,-4.0888,-4.0888,-4.0888,-4.0888,-4.0888,-4.0888,-4.0888,-4.0888,-4.0888,-4.0888,-4.0888,-4.0888,-4.0888,-4.0888,-4.0888,-4.0888,-4.0888,-4.0888,-4.0888,-4.0888,-4.0888,-4.0888,-4.0888,-4.0965,-4.1117,-4.1401,-4.1821,-4.2279,-4.275,-4.3123,-4.3304,-4.3124,-4.3321,-4.3463,-4.3339,-4.341,-4.3497,-4.3497,-4.3497,-4.3497,-4.3497,-4.3497,-4.3497,-4.3497,-4.3497,-4.3497,-4.3497,-4.3497,-4.3497,-4.3497,-4.3497,-4.3497,-4.3497,-4.3497,-4.3497,-4.3497,-4.3497,-4.3513,-4.3548,-4.3548,-4.3649,-4.38,-4.3851,-4.3897,-4.3974,-4.3961,-4.3961,-4.3974,-4.3974,-4.3974,-4.4005,-4.4005,-4.4005,-4.4005,-4.4005,-4.4005,-4.4005,-4.4005,-4.4005,-4.4005,-4.4005,-4.5026,-4.6494,-4.6494,-4.7516,-4.8909,-4.0888,-4.0888,-4.0888,-4.0888,-4.0888,-4.0888,-4.0888,-4.0888,-4.0888,-4.0888,-4.0888,-4.0888,-4.0888,-4.0888,-4.0888,-4.0888,-4.0888,-4.0888,-4.0888,-4.0888,-4.0888,-4.0888,-4.0888,-4.0888,-4.0888,-4.0888,-4.0888,-4.0888,-4.0888,-4.0888,-4.0888,-4.0888,-4.0888,-4.0888,-4.0888,-4.0888,-4.0888,-4.0888,-4.0888,-4.0888,-4.0888,-4.0888,-4.0888,-4.0888,-4.0888,-4.0888,-4.0888,-4.0888,-4.0888,-4.0888,-4.0888,-4.0888,-4.0888,-4.1012,-4.1209,-4.1445,-4.1948,-4.2537,-4.2806,-4.3178,-4.3497,-4.3497,-4.3497,-4.3497,-4.3497,-4.3497,-4.3497,-4.3497,-4.3497,-4.3497,-4.3497,-4.3497,-4.3497,-4.3497,-4.3497,-4.3497,-4.3497,-4.3497,-4.3497,-4.3497,-4.3497,-4.3497,-4.3497,-4.3497,-4.3532,-4.3532,-4.3548,-4.36,-4.3667,-4.3667,-4.3734,-4.3851,-4.3883,-4.3929,-4.3942,-4.3974,-4.4005,-4.4005,-4.4005,-4.4005,-4.4005,-4.4005,-4.4005,-4.4005,-4.4005,-4.4005,-4.4005,-4.4005,-4.4005,-4.4005,-4.4005,-4.5026,-4.6494,-4.6494,-4.7516,-4.8909,-4.0888,-4.0888,-4.0888,-4.0888,-4.0888,-4.0888,-4.0888,-4.0888,-4.0888,-4.0888,-4.0888,-4.0888,-4.0888,-4.0888,-4.0888,-4.0888,-4.0888,-4.0888,-4.0888,-4.0888,-4.0888,-4.0888,-4.0888,-4.0888,-4.0888,-4.0888,-4.0888,-4.0888,-4.0888,-4.0888,-4.0888,-4.0888,-4.0888,-4.0888,-4.0888,-4.0888,-4.0888,-4.0888,-4.0888,-4.0888,-4.0888,-4.0888,-4.0888,-4.0888,-4.0888,-4.0888,-4.0888,-4.0888,-4.0888,-4.0888,-4.0888,-4.0888,-4.0888,-4.1163,-4.1445,-4.1516,-4.2157,-4.2844,-4.292,-4.3232,-4.3497,-4.3497,-4.3497,-4.3497,-4.3497,-4.3497,-4.3497,-4.3497,-4.3497,-4.3497,-4.3497,-4.3497,-4.3497,-4.3497,-4.3497,-4.3497,-4.3497,-4.3497,-4.3497,-4.3497,-4.3497,-4.3497,-4.3497,-4.3532,-4.3513,-4.3582,-4.3615,-4.3667,-4.3804,-4.3804,-4.3804,-4.3837,-4.3883,-4.3897,-4.3897,-4.3974,-4.4005,-4.4005,-4.4005,-4.4005,-4.4005,-4.4005,-4.4005,-4.4005,-4.4005,-4.4005,-4.4005,-4.4005,-4.4005,-4.4005,-4.4005,-4.5026,-4.6494,-4.6494,-4.7516,-4.8909,-4.0888,-4.0888,-4.0888,-4.0888,-4.0888,-4.0888,-4.0888,-4.0888,-4.0888,-4.0888,-4.0888,-4.0888,-4.0888,-4.0888,-4.0888,-4.0888,-4.0888,-4.0888,-4.0888,-4.0888,-4.0888,-4.0888,-4.0888,-4.0888,-4.0888,-4.0888,-4.0888,-4.0888,-4.0888,-4.0888,-4.0888,-4.0888,-4.0888,-4.0888,-4.0888,-4.0888,-4.0888,-4.0888,-4.0888,-4.0888,-4.0888,-4.0888,-4.0888,-4.0888,-4.0888,-4.0888,-4.0888,-4.0888,-4.0888,-4.0888,-4.0888,-4.0888,-4.0888,-4.0965,-4.1163,-4.1864,-4.2198,-4.2498,-4.3178,-4.341,-4.3497,-4.3497,-4.3497,-4.3497,-4.3497,-4.3497,-4.3497,-4.3497,-4.3497,-4.3497,-4.3497,-4.3497,-4.3497,-4.3497,-4.3497,-4.3497,-4.3497,-4.3497,-4.3497,-4.3497,-4.3497,-4.3497,-4.3497,-4.3566,-4.3582,-4.3582,-4.3719,-4.3786,-4.3883,-4.3883,-4.3897,-4.3942,-4.3974,-4.3974,-4.3974,-4.4005,-4.4005,-4.4005,-4.4005,-4.4005,-4.4005,-4.4005,-4.4005,-4.4005,-4.4005,-4.4005,-4.4005,-4.4005,-4.4005,-4.4005,-4.4005,-4.5026,-4.6494,-4.6494,-4.7516,-4.8909,-4.0888,-4.0888,-4.0888,-4.0888,-4.0888,-4.0888,-4.0888,-4.0888,-4.0888,-4.0888,-4.0888,-4.0888,-4.0888,-4.0888,-4.0888,-4.0888,-4.0888,-4.0888,-4.0888,-4.0888,-4.0888,-4.0888,-4.0888,-4.0888,-4.0888,-4.0888,-4.0888,-4.0888,-4.0888,-4.0888,-4.0888,-4.0888,-4.0888,-4.0888,-4.0888,-4.0888,-4.0888,-4.0888,-4.0888,-4.0888,-4.0888,-4.0888,-4.0888,-4.0888,-4.0888,-4.0888,-4.0888,-4.0888,-4.0888,-4.0888,-4.0888,-4.0888,-4.0888,-4.1041,-4.1283,-4.1735,-4.2157,-4.2616,-4.3105,-4.3339,-4.3497,-4.3497,-4.3497,-4.3497,-4.3497,-4.3497,-4.3497,-4.3497,-4.3497,-4.3497,-4.3497,-4.3497,-4.3497,-4.3497,-4.3497,-4.3497,-4.3497,-4.3497,-4.3497,-4.3497,-4.3532,-4.3566,-4.3652,-4.3667,-4.3701,-4.3734,-4.3818,-4.3883,-4.3942,-4.3961,-4.3974,-4.4005,-4.4005,-4.4005,-4.4005,-4.4005,-4.4005,-4.4005,-4.4005,-4.4005,-4.4005,-4.4005,-4.4005,-4.4005,-4.4005,-4.4005,-4.4005,-4.4005,-4.4005,-4.4005,-4.4005,-4.4785,-4.5974,-4.6364,-4.7516,-4.8909,-4.0888,-4.0888,-4.0888,-4.0888,-4.0888,-4.0888,-4.0888,-4.0888,-4.0888,-4.0888,-4.0888,-4.0888,-4.0888,-4.0888,-4.0888,-4.0888,-4.0888,-4.0888,-4.0888,-4.0888,-4.0888,-4.0888,-4.0888,-4.0888,-4.0888,-4.0888,-4.0888,-4.0888,-4.0888,-4.0888,-4.0888,-4.0888,-4.0888,-4.0888,-4.0888,-4.0888,-4.0888,-4.0888,-4.0888,-4.0888,-4.0888,-4.0888,-4.0888,-4.0888,-4.0888,-4.0888,-4.0888,-4.0888,-4.0888,-4.0888,-4.0965,-4.0995,-4.0995,-4.1283,-4.1648,-4.1735,-4.2297,-4.2938,-4.2995,-4.3268,-4.3497,-4.3497,-4.3497,-4.3497,-4.3497,-4.3497,-4.3497,-4.3497,-4.3497,-4.3497,-4.3497,-4.3497,-4.3497,-4.3497,-4.3497,-4.3497,-4.3497,-4.3532,-4.3532,-4.3532,-4.36,-4.3667,-4.3804,-4.3804,-4.3818,-4.3915,-4.3897,-4.3961,-4.4005,-4.4005,-4.4005,-4.4005,-4.4005,-4.4005,-4.4005,-4.4005,-4.4005,-4.4005,-4.4005,-4.4005,-4.4005,-4.4005,-4.4005,-4.4005,-4.4005,-4.4005,-4.4005,-4.4005,-4.4005,-4.4005,-4.4005,-4.4525,-4.5398,-4.6364,-4.7553,-4.8723,-4.0888,-4.0888,-4.0888,-4.0888,-4.0888,-4.0888,-4.0888,-4.0888,-4.0888,-4.0888,-4.0888,-4.0888,-4.0888,-4.0888,-4.0888,-4.0888,-4.0888,-4.0888,-4.0888,-4.0888,-4.0888,-4.0888,-4.0888,-4.0888,-4.0888,-4.0888,-4.0888,-4.0888,-4.0888,-4.0888,-4.0888,-4.0888,-4.0888,-4.0888,-4.0888,-4.0888,-4.0888,-4.0888,-4.0888,-4.0888,-4.0888,-4.0888,-4.0888,-4.0888,-4.0888,-4.0888,-4.0888,-4.0888,-4.0888,-4.0888,-4.1117,-4.1401,-4.1401,-4.1735,-4.2216,-4.2595,-4.2806,-4.2975,-4.3339,-4.3444,-4.3497,-4.3497,-4.3497,-4.3497,-4.3497,-4.3497,-4.3497,-4.3497,-4.3497,-4.3497,-4.3497,-4.3497,-4.3497,-4.3497,-4.3497,-4.3497,-4.3497,-4.3548,-4.3582,-4.3582,-4.3719,-4.3771,-4.3804,-4.3851,-4.3883,-4.3897,-4.3942,-4.4005,-4.4005,-4.4005,-4.4005,-4.4005,-4.4005,-4.4005,-4.4005,-4.4005,-4.4005,-4.4005,-4.4005,-4.4005,-4.4005,-4.4005,-4.4005,-4.4005,-4.4005,-4.4005,-4.4005,-4.4005,-4.4005,-4.4005,-4.4005,-4.4525,-4.5472,-4.6977,-4.7683,-4.7961,-4.0888,-4.0888,-4.0888,-4.0888,-4.0888,-4.0888,-4.0888,-4.0888,-4.0888,-4.0888,-4.0888,-4.0888,-4.0888,-4.0888,-4.0888,-4.0888,-4.0888,-4.0888,-4.0888,-4.0888,-4.0888,-4.0888,-4.0888,-4.0888,-4.0888,-4.0888,-4.0888,-4.0888,-4.0888,-4.0888,-4.0888,-4.0888,-4.0888,-4.0888,-4.0888,-4.0888,-4.0888,-4.0888,-4.0888,-4.0888,-4.0888,-4.0888,-4.0888,-4.0888,-4.0888,-4.0918,-4.1163,-4.1255,-4.1283,-4.1552,-4.1735,-4.1906,-4.1906,-4.2198,-4.2634,-4.2844,-4.3069,-4.3268,-4.3444,-4.3497,-4.3497,-4.3497,-4.3497,-4.3497,-4.3497,-4.3497,-4.3497,-4.3497,-4.3497,-4.3497,-4.3497,-4.3497,-4.3497,-4.3497,-4.3497,-4.3513,-4.3548,-4.3582,-4.3649,-4.3749,-4.3818,-4.3883,-4.3897,-4.3929,-4.3961,-4.3961,-4.3974,-4.4005,-4.4005,-4.4005,-4.4005,-4.4005,-4.4005,-4.4005,-4.4005,-4.4005,-4.4005,-4.4005,-4.4005,-4.4005,-4.4005,-4.4005,-4.4005,-4.4005,-4.4005,-4.4005,-4.4005,-4.4005,-4.4005,-4.4005,-4.4005,-4.4525,-4.5379,-4.6104,-4.6643,-4.7144]}]]